[[{"header":{"parameterUnit":"m.s-1","parameterCategory":1,"la1":30.6,"la2":29.2853,"lo1":-89.7004,"lo2":-87.6739,"dy":0.0162,"dx":0.0183,"nx":112,"ny":82,"refTime":"2026-04-30T00:00:00:Z","depth":0,"parameterNumber":2,"parameterNumberName":"U-component_of_WINDS"},"data":[0.0,0.0,0.0,0.0,0.0,0.0,0.0,0.0,0.0,0.0,0.0,0.0,0.0,0.0,0.0,0.0,0.0,0.0,0.0,0.0,0.0,0.0,0.0,0.0,0.0,0.0,0.0,0.0,0.0,0.0,0.0,0.0,0.0,0.0,0.0,0.0,0.0,0.0,0.0,0.0,0.0,0.0,0.0,0.0,0.0,0.0,0.0,0.0,0.0,0.0,0.0,0.0,0.0,0.0,0.0,0.0,0.0,0.0,0.0,0.0,0.0,0.0,0.0,0.0,0.0,0.0,0.0,0.0,0.0,0.0,0.0,0.0,0.0,0.0,0.0,0.0,0.0,0.0,0.0,0.0,0.0,0.0,0.0,0.0,0.0,0.0,0.0,0.0,0.0,0.0,-5.4372,-5.6296,-5.8424,-5.9706,-5.9706,-5.8288,-5.6532,-5.4544,0.0,0.0,0.0,0.0,0.0,0.0,0.0,0.0,0.0,0.0,0.0,0.0,0.0,0.0,0.0,0.0,0.0,0.0,0.0,0.0,0.0,0.0,0.0,0.0,0.0,0.0,0.0,0.0,0.0,0.0,0.0,0.0,0.0,0.0,0.0,0.0,0.0,0.0,0.0,0.0,0.0,0.0,0.0,0.0,0.0,0.0,0.0,0.0,0.0,0.0,0.0,0.0,0.0,0.0,0.0,0.0,0.0,0.0,0.0,0.0,0.0,0.0,0.0,0.0,0.0,0.0,0.0,0.0,0.0,0.0,0.0,0.0,0.0,0.0,0.0,0.0,0.0,0.0,0.0,0.0,0.0,0.0,0.0,0.0,0.0,0.0,0.0,0.0,0.0,0.0,0.0,0.0,0.0,0.0,0.0,0.0,0.0,0.0,0.0,0.0,0.0,0.0,0.0,0.0,-5.4873,-5.7963,-5.8598,-5.8806,-5.8806,-5.8443,-5.6898,-5.3773,0.0,0.0,0.0,0.0,0.0,0.0,0.0,0.0,0.0,0.0,0.0,0.0,0.0,0.0,0.0,0.0,0.0,0.0,0.0,0.0,0.0,0.0,0.0,0.0,0.0,0.0,0.0,0.0,0.0,0.0,0.0,0.0,0.0,0.0,0.0,0.0,0.0,0.0,0.0,0.0,0.0,0.0,0.0,0.0,0.0,0.0,0.0,0.0,0.0,0.0,0.0,0.0,0.0,0.0,0.0,0.0,0.0,0.0,0.0,0.0,0.0,0.0,0.0,0.0,0.0,0.0,0.0,0.0,0.0,0.0,0.0,0.0,0.0,0.0,0.0,0.0,0.0,0.0,0.0,0.0,0.0,0.0,0.0,0.0,0.0,0.0,0.0,0.0,0.0,0.0,0.0,0.0,0.0,0.0,0.0,0.0,0.0,0.0,0.0,0.0,0.0,0.0,0.0,-5.4311,-5.6019,-5.844,-5.8635,-5.8613,-5.8613,-5.8076,-5.63,-5.2904,-5.178,0.0,0.0,0.0,0.0,0.0,0.0,0.0,0.0,0.0,0.0,0.0,0.0,0.0,0.0,0.0,0.0,0.0,0.0,0.0,0.0,0.0,0.0,0.0,0.0,0.0,0.0,0.0,0.0,0.0,0.0,0.0,0.0,0.0,0.0,0.0,0.0,0.0,0.0,0.0,0.0,0.0,0.0,0.0,0.0,0.0,0.0,0.0,0.0,0.0,0.0,0.0,0.0,0.0,0.0,0.0,0.0,0.0,0.0,0.0,0.0,0.0,0.0,0.0,0.0,0.0,0.0,0.0,0.0,0.0,0.0,0.0,0.0,0.0,0.0,0.0,0.0,0.0,0.0,0.0,0.0,0.0,0.0,0.0,0.0,0.0,0.0,0.0,0.0,0.0,0.0,0.0,0.0,0.0,0.0,0.0,0.0,0.0,0.0,0.0,0.0,0.0,0.0,-5.5278,-5.6836,-5.827,-5.8341,-5.8217,-5.8004,-5.7129,-5.5297,-5.2287,-5.0827,0.0,0.0,0.0,0.0,0.0,0.0,0.0,0.0,0.0,0.0,0.0,0.0,0.0,0.0,0.0,0.0,0.0,0.0,0.0,0.0,0.0,0.0,0.0,0.0,0.0,0.0,0.0,0.0,0.0,0.0,0.0,0.0,0.0,0.0,0.0,0.0,0.0,0.0,0.0,0.0,0.0,0.0,0.0,0.0,0.0,0.0,0.0,0.0,0.0,0.0,0.0,0.0,0.0,0.0,0.0,0.0,0.0,0.0,0.0,0.0,0.0,0.0,0.0,0.0,0.0,0.0,0.0,0.0,0.0,0.0,0.0,0.0,0.0,0.0,0.0,0.0,0.0,0.0,0.0,0.0,0.0,0.0,0.0,0.0,0.0,0.0,0.0,0.0,0.0,0.0,0.0,0.0,0.0,0.0,0.0,0.0,0.0,0.0,0.0,0.0,0.0,0.0,-5.529,-5.6636,-5.7483,-5.7466,-5.7048,-5.6244,-5.5333,-5.4023,-5.221,-4.97,0.0,0.0,0.0,0.0,0.0,0.0,0.0,0.0,0.0,0.0,0.0,0.0,0.0,0.0,0.0,0.0,0.0,0.0,0.0,0.0,0.0,0.0,0.0,0.0,0.0,0.0,0.0,0.0,0.0,0.0,0.0,0.0,0.0,0.0,0.0,0.0,0.0,0.0,0.0,0.0,0.0,0.0,0.0,0.0,0.0,0.0,0.0,0.0,0.0,0.0,0.0,0.0,0.0,0.0,0.0,0.0,0.0,0.0,0.0,0.0,0.0,0.0,0.0,0.0,0.0,0.0,0.0,0.0,0.0,0.0,0.0,0.0,0.0,0.0,0.0,0.0,0.0,0.0,0.0,0.0,0.0,0.0,0.0,0.0,0.0,0.0,0.0,0.0,0.0,0.0,0.0,0.0,0.0,0.0,0.0,0.0,0.0,0.0,0.0,0.0,0.0,0.0,-5.4523,-5.6078,-5.7428,-5.7446,-5.7008,-5.6131,-5.4694,-5.2885,-5.0628,0.0,0.0,0.0,0.0,0.0,0.0,0.0,0.0,0.0,0.0,0.0,0.0,0.0,0.0,0.0,0.0,0.0,0.0,0.0,0.0,0.0,0.0,0.0,0.0,0.0,0.0,0.0,0.0,0.0,0.0,0.0,0.0,0.0,0.0,0.0,0.0,0.0,0.0,0.0,0.0,0.0,0.0,0.0,0.0,0.0,0.0,0.0,0.0,0.0,0.0,0.0,0.0,0.0,0.0,0.0,0.0,0.0,0.0,0.0,0.0,0.0,0.0,0.0,0.0,0.0,0.0,0.0,0.0,0.0,0.0,0.0,0.0,0.0,0.0,0.0,0.0,0.0,0.0,0.0,0.0,0.0,0.0,0.0,0.0,0.0,0.0,0.0,0.0,0.0,0.0,0.0,0.0,0.0,0.0,0.0,0.0,0.0,0.0,0.0,0.0,0.0,0.0,-5.2097,-5.3676,-5.5142,-5.6281,-5.6278,-5.5838,-5.4979,-5.3484,-5.1726,-4.9661,0.0,0.0,0.0,0.0,0.0,0.0,0.0,0.0,0.0,0.0,0.0,0.0,0.0,0.0,0.0,0.0,0.0,0.0,0.0,0.0,0.0,0.0,0.0,0.0,0.0,0.0,0.0,0.0,0.0,0.0,0.0,0.0,0.0,0.0,0.0,0.0,0.0,0.0,0.0,0.0,0.0,0.0,0.0,0.0,0.0,0.0,0.0,0.0,0.0,0.0,0.0,0.0,0.0,0.0,0.0,0.0,0.0,0.0,0.0,0.0,0.0,0.0,0.0,0.0,0.0,0.0,0.0,0.0,0.0,0.0,0.0,0.0,0.0,0.0,0.0,0.0,0.0,0.0,0.0,0.0,0.0,0.0,0.0,0.0,0.0,0.0,0.0,0.0,0.0,0.0,0.0,0.0,0.0,0.0,0.0,0.0,0.0,0.0,0.0,0.0,0.0,0.0,-5.1274,-5.2801,-5.3869,-5.3814,-5.3675,-5.3249,-5.2387,-5.1424,-5.0513,0.0,0.0,0.0,0.0,0.0,0.0,0.0,0.0,0.0,0.0,0.0,0.0,0.0,0.0,0.0,0.0,0.0,0.0,0.0,0.0,0.0,0.0,0.0,0.0,0.0,0.0,0.0,0.0,0.0,0.0,0.0,0.0,0.0,0.0,0.0,0.0,0.0,0.0,0.0,0.0,0.0,0.0,0.0,0.0,0.0,0.0,0.0,0.0,0.0,0.0,0.0,0.0,0.0,0.0,0.0,0.0,0.0,0.0,0.0,0.0,0.0,0.0,0.0,0.0,0.0,0.0,0.0,0.0,0.0,0.0,0.0,0.0,0.0,0.0,0.0,0.0,0.0,0.0,0.0,0.0,0.0,0.0,0.0,0.0,0.0,0.0,0.0,0.0,0.0,0.0,0.0,0.0,0.0,0.0,0.0,0.0,0.0,0.0,0.0,0.0,0.0,0.0,0.0,-5.0355,-5.1984,-5.3251,-5.3819,-5.3755,-5.331,-5.2447,-5.0898,-4.9605,-4.8736,0.0,0.0,0.0,0.0,0.0,0.0,0.0,0.0,0.0,0.0,0.0,0.0,0.0,0.0,0.0,0.0,0.0,0.0,0.0,0.0,0.0,0.0,0.0,0.0,0.0,0.0,0.0,0.0,0.0,0.0,0.0,0.0,0.0,0.0,0.0,0.0,0.0,0.0,0.0,0.0,0.0,0.0,0.0,0.0,0.0,0.0,0.0,0.0,0.0,0.0,0.0,0.0,0.0,0.0,0.0,0.0,0.0,0.0,0.0,0.0,0.0,0.0,0.0,0.0,0.0,0.0,0.0,0.0,0.0,0.0,0.0,0.0,0.0,0.0,0.0,0.0,0.0,0.0,0.0,0.0,0.0,0.0,0.0,0.0,0.0,0.0,0.0,0.0,0.0,0.0,0.0,0.0,0.0,0.0,0.0,0.0,0.0,0.0,0.0,0.0,0.0,0.0,-4.9452,-5.0826,-5.2,-5.2821,-5.2773,-5.2353,-5.1476,-5.0327,-4.8972,-4.7395,0.0,0.0,0.0,0.0,0.0,0.0,0.0,0.0,0.0,0.0,0.0,0.0,0.0,0.0,0.0,0.0,0.0,0.0,0.0,0.0,0.0,0.0,0.0,0.0,0.0,0.0,0.0,0.0,0.0,0.0,0.0,0.0,0.0,0.0,0.0,0.0,0.0,0.0,0.0,0.0,0.0,0.0,0.0,0.0,0.0,0.0,0.0,0.0,0.0,0.0,0.0,0.0,0.0,0.0,0.0,0.0,0.0,0.0,0.0,0.0,0.0,0.0,0.0,0.0,0.0,0.0,0.0,0.0,0.0,0.0,0.0,0.0,0.0,0.0,0.0,0.0,0.0,0.0,0.0,0.0,0.0,0.0,0.0,0.0,0.0,0.0,0.0,0.0,0.0,0.0,0.0,0.0,0.0,0.0,0.0,0.0,0.0,0.0,0.0,0.0,0.0,0.0,-4.8584,-4.9507,-5.0369,-5.1088,-5.1037,-5.0648,-4.9845,-4.9594,-4.8457,-4.6078,0.0,0.0,0.0,0.0,0.0,0.0,0.0,0.0,0.0,0.0,0.0,0.0,0.0,0.0,0.0,0.0,0.0,0.0,0.0,0.0,0.0,0.0,0.0,0.0,0.0,0.0,0.0,0.0,0.0,0.0,0.0,0.0,0.0,0.0,0.0,0.0,0.0,0.0,0.0,0.0,0.0,0.0,0.0,0.0,0.0,0.0,0.0,0.0,0.0,0.0,0.0,0.0,0.0,0.0,0.0,0.0,0.0,0.0,0.0,0.0,-5.3279,-5.3183,0.0,0.0,0.0,0.0,0.0,0.0,0.0,0.0,0.0,0.0,0.0,0.0,0.0,0.0,0.0,0.0,0.0,0.0,0.0,0.0,0.0,0.0,0.0,0.0,0.0,0.0,0.0,0.0,0.0,0.0,0.0,0.0,0.0,0.0,0.0,0.0,0.0,0.0,0.0,0.0,-4.7811,-4.863,-4.9217,-4.9338,-4.9284,-4.9149,-4.8905,-4.8171,-4.7501,-4.6932,-4.5392,0.0,0.0,0.0,0.0,0.0,0.0,0.0,0.0,0.0,0.0,0.0,0.0,0.0,0.0,0.0,0.0,0.0,0.0,0.0,0.0,0.0,0.0,0.0,0.0,0.0,0.0,0.0,0.0,0.0,0.0,0.0,0.0,0.0,0.0,0.0,0.0,0.0,0.0,0.0,0.0,0.0,0.0,0.0,0.0,0.0,0.0,0.0,0.0,0.0,0.0,0.0,0.0,0.0,0.0,0.0,0.0,0.0,0.0,0.0,-5.5207,-5.4778,0.0,0.0,0.0,0.0,0.0,0.0,0.0,0.0,0.0,0.0,0.0,0.0,0.0,0.0,0.0,0.0,0.0,0.0,0.0,0.0,0.0,0.0,0.0,0.0,0.0,0.0,0.0,0.0,0.0,0.0,0.0,0.0,0.0,0.0,0.0,0.0,0.0,0.0,0.0,0.0,-4.7526,-4.8006,-4.8417,-4.8759,-4.8738,-4.8521,-4.8059,-4.7514,-4.686,-4.6054,-4.4305,0.0,0.0,0.0,0.0,0.0,0.0,0.0,0.0,0.0,0.0,0.0,0.0,0.0,0.0,0.0,0.0,0.0,0.0,0.0,0.0,0.0,0.0,0.0,0.0,0.0,0.0,0.0,0.0,0.0,0.0,0.0,0.0,0.0,0.0,0.0,0.0,0.0,0.0,0.0,0.0,0.0,0.0,0.0,0.0,0.0,0.0,0.0,0.0,0.0,0.0,0.0,0.0,0.0,-5.7619,-5.8,-5.8668,-5.7942,-5.8,-5.8615,-5.7567,-5.6932,-5.6686,-5.66,0.0,0.0,0.0,0.0,0.0,0.0,0.0,0.0,0.0,0.0,0.0,0.0,0.0,0.0,0.0,0.0,0.0,0.0,0.0,0.0,0.0,0.0,-4.9336,-4.9336,-4.9238,-4.9121,-4.9121,0.0,0.0,0.0,0.0,0.0,0.0,0.0,0.0,0.0,0.0,0.0,-4.7259,-4.7362,-4.7636,-4.8295,-4.8302,-4.7984,-4.7249,-4.7071,-4.6429,-4.5029,-4.3381,-4.2414,0.0,0.0,0.0,0.0,0.0,0.0,0.0,0.0,0.0,0.0,0.0,0.0,0.0,0.0,0.0,0.0,0.0,0.0,0.0,0.0,0.0,0.0,0.0,0.0,0.0,0.0,0.0,0.0,0.0,0.0,0.0,0.0,-5.7107,-5.7877,0.0,0.0,0.0,0.0,0.0,0.0,0.0,0.0,0.0,0.0,0.0,0.0,0.0,-5.7291,-5.8075,-5.8133,-5.8263,-5.843,-5.844,-5.8502,-5.8599,-5.8483,-5.8502,-5.8645,-5.9199,0.0,-5.7396,-5.6706,0.0,0.0,0.0,0.0,0.0,0.0,0.0,0.0,0.0,0.0,0.0,0.0,0.0,0.0,0.0,0.0,0.0,0.0,0.0,0.0,0.0,0.0,-5.1074,-5.1074,-5.0547,-5.0039,-5.0039,-4.875,-4.7598,-4.7598,-4.6992,-4.6191,0.0,0.0,0.0,0.0,0.0,0.0,-4.6364,-4.6464,-4.6504,-4.6619,-4.6615,-4.6545,-4.6377,-4.6294,-4.6146,-4.5924,-4.4938,-4.4033,-4.3329,-4.2247,0.0,0.0,0.0,0.0,0.0,0.0,0.0,0.0,0.0,0.0,0.0,0.0,0.0,0.0,0.0,0.0,0.0,0.0,0.0,0.0,0.0,0.0,0.0,0.0,0.0,0.0,0.0,0.0,0.0,-5.7184,-5.7877,-5.8261,-5.7953,-5.753,0.0,0.0,0.0,0.0,0.0,0.0,0.0,0.0,0.0,-5.6233,-5.6302,-5.6738,-5.7606,-5.813,-5.8392,-5.8422,-5.8423,-5.8665,-5.9089,-5.8645,-5.8954,-5.9803,-5.9254,-5.8633,-5.8052,-5.7872,-5.653,-5.4545,0.0,0.0,0.0,0.0,-5.2851,-5.2812,-5.2461,-5.2578,-5.2715,-5.1875,0.0,0.0,0.0,0.0,0.0,0.0,0.0,-4.9902,-5.1094,-5.1406,-5.1406,-5.1406,-5.1133,-5.0742,-5.0293,-4.9219,-4.8183,-4.7695,-4.7285,-4.6757,-4.5879,-4.5312,0.0,0.0,0.0,-4.5312,-4.6191,-4.6307,-4.6307,-4.6307,-4.6308,-4.6287,-4.6257,-4.6195,-4.6162,-4.6167,-4.5274,-4.4588,-4.4257,-4.249,-4.1556,0.0,0.0,0.0,0.0,0.0,0.0,0.0,0.0,0.0,0.0,0.0,0.0,0.0,0.0,0.0,0.0,0.0,0.0,0.0,0.0,0.0,0.0,0.0,0.0,0.0,0.0,0.0,0.0,-5.8174,-5.8853,-5.8853,-5.8889,-5.8566,0.0,0.0,0.0,0.0,0.0,0.0,-5.6983,-5.5829,-5.5415,-5.6011,-5.603,-5.6453,-5.7319,-5.7973,-5.83,-5.83,-5.8511,-5.8819,-5.9184,-5.88,-5.93,-6.0396,-5.8934,-5.8336,-5.8374,-5.8445,-5.7127,-5.5065,-5.5198,-5.4734,-5.398,-5.3984,-5.4004,-5.4004,-5.4004,-5.4141,-5.4199,-5.332,-5.2285,-5.1133,-4.9668,0.0,0.0,0.0,0.0,-5.0391,-5.1191,-5.1406,-5.1406,-5.1406,-5.123,-5.0879,-5.0039,-4.9179,-4.8379,-4.7734,-4.7421,-4.699,-4.611,-4.5425,0.0,-4.5872,-4.5423,-4.5305,-4.6184,-4.6301,-4.6301,-4.6301,-4.609,-4.5976,-4.5976,-4.5713,-4.5558,-4.556,-4.4894,-4.4415,-4.42,-4.237,-4.1529,-4.1917,0.0,0.0,0.0,0.0,0.0,0.0,0.0,0.0,0.0,0.0,0.0,0.0,0.0,0.0,0.0,0.0,0.0,0.0,0.0,0.0,0.0,0.0,0.0,0.0,0.0,0.0,0.0,0.0,0.0,-6.0378,-6.0495,0.0,0.0,0.0,0.0,-5.8223,-5.8184,-5.7838,-5.7041,-5.6926,-5.6887,-5.6926,-5.6926,-5.7349,-5.8223,-5.828,-5.83,-5.8319,-5.9069,-5.9069,-5.8377,-5.9108,-5.9492,-5.9511,-5.8665,-5.8295,-5.8244,-5.7579,-5.6352,-5.4919,-5.5064,-5.4611,-5.3909,-5.3983,-5.4004,-5.4004,-5.4004,-5.4531,-5.5098,-5.4219,-5.2773,-5.123,-5.0391,-4.9531,0.0,0.0,-5.0195,-5.0391,-5.1191,-5.1406,-5.1406,-5.1406,-5.082,-5.0018,-4.9159,-4.8278,-4.7651,-4.7615,-4.6932,-4.6091,-4.5228,0.0,-4.5013,-4.5052,-4.5032,-4.5305,-4.6184,-4.6301,-4.6301,-4.6301,-4.5563,-4.5077,-4.5078,-4.4294,-4.3837,-4.383,-4.3782,-4.3386,-4.2549,-4.2393,-4.1965,-4.1165,-4.0229,0.0,0.0,0.0,0.0,0.0,0.0,0.0,0.0,0.0,0.0,0.0,0.0,0.0,0.0,0.0,0.0,0.0,0.0,0.0,0.0,0.0,0.0,0.0,0.0,0.0,0.0,0.0,0.0,-6.0222,-6.036,0.0,-5.9421,-5.8711,-5.8511,-5.9031,-5.9069,-5.9184,-5.9415,-5.8915,-5.8607,-5.8607,-5.7561,-5.7157,-5.7453,-5.6915,-5.6626,-5.6626,-5.6915,-5.7203,-5.7453,-5.7184,-5.7665,-5.8646,-5.7242,-5.6945,-5.7362,-5.601,-5.521,-5.4841,-5.4986,-5.4911,-5.474,-5.4815,-5.5193,-5.5663,-5.5664,-5.5508,-5.5058,-5.3633,-5.2012,-5.0664,-5.0898,-5.0391,-4.9902,-5.0742,-5.0976,-5.1035,-5.1328,-5.1406,-5.1269,-5.0742,-5.041,-4.9803,-4.8377,-4.7828,-4.7434,-4.6866,-4.6514,-4.6201,-4.5886,-4.5375,-4.5195,-4.5743,-4.4884,-4.4474,-4.5353,-4.4962,-4.463,-4.463,-4.4344,-4.4152,-4.4154,-4.3885,-4.3691,-4.3691,-4.3691,-4.3554,-4.3242,-4.2695,-4.2246,-4.1933,-4.0566,-3.9863,0.0,0.0,0.0,0.0,0.0,0.0,0.0,0.0,0.0,0.0,0.0,0.0,0.0,0.0,0.0,0.0,0.0,0.0,0.0,0.0,0.0,0.0,0.0,0.0,0.0,-5.8963,-5.9891,-5.9896,-6.0353,-6.0422,-5.9766,-5.936,-5.9358,-5.9896,-5.9935,-6.0069,-6.0339,-5.9819,-5.9242,-5.8665,-5.758,-5.6868,-5.656,-5.5992,-5.5703,-5.5703,-5.5992,-5.6291,-5.656,-5.6272,-5.6761,-5.778,-5.6319,-5.603,-5.6445,-5.5068,-5.4246,-5.3894,-5.4304,-5.4558,-5.4738,-5.5105,-5.5614,-5.6129,-5.6152,-5.5586,-5.4629,-5.3164,-5.1758,-5.0703,-5.123,-5.1035,-5.0723,-5.125,-5.1406,-5.1406,-5.1406,-5.1191,-5.0859,-5.0332,-4.9745,-4.9001,-4.7849,-4.7375,-4.6998,-4.6407,-4.6291,-4.6293,-4.6309,-4.5815,-4.5539,-4.5812,-4.4875,-4.4231,-4.4524,-4.4055,-4.3705,-4.3705,-4.3438,-4.3268,-4.3268,-4.2999,-4.2826,-4.2826,-4.2826,-4.2826,-4.2826,-4.2279,-4.1967,-4.1967,-4.0599,-3.9897,-3.9898,0.0,0.0,0.0,0.0,0.0,0.0,0.0,0.0,0.0,0.0,0.0,0.0,0.0,0.0,0.0,0.0,0.0,0.0,0.0,0.0,0.0,0.0,0.0,-5.794,-5.9403,-6.0191,-5.9563,-6.0586,-6.112,-6.0562,-6.0692,-6.08,-6.08,-6.08,-6.0435,-5.9588,-5.9511,-5.8761,-5.7137,-5.7041,-5.6599,-5.5742,-5.5703,-5.5703,-5.5703,-5.656,-5.6522,-5.5722,-5.656,-5.6926,-5.6868,-5.5992,-5.5626,-5.5549,-5.4741,-5.3464,-5.2088,-5.3003,-5.3507,-5.3802,-5.4684,-5.5086,-5.5164,-5.5214,-5.4668,-5.3828,-5.2949,-5.209,-5.1406,-5.1406,-5.1387,-5.1367,-5.1387,-5.1367,-5.1328,-5.1367,-5.0762,-5.0156,-5.0137,-4.8826,-4.7591,-4.7571,-4.6898,-4.628,-4.6261,-4.6267,-4.6251,-4.6262,-4.6241,-4.5929,-4.509,-4.4932,0.0,-4.3762,-4.3647,-4.3627,-4.3627,-4.2852,-4.2368,-4.2368,-4.1593,-4.1107,-4.1107,-4.1107,-4.1107,-4.1107,-4.1107,-4.1107,-4.1107,-4.0326,-3.9917,-3.99,0.0,0.0,0.0,0.0,0.0,0.0,0.0,0.0,0.0,0.0,0.0,0.0,0.0,0.0,0.0,0.0,0.0,0.0,0.0,0.0,0.0,-5.6936,-5.7318,-5.7538,-5.8306,-5.8902,-5.9101,-5.9708,-6.0127,-6.0261,-6.0591,-6.08,-6.08,-6.08,-6.0704,-6.0454,-5.9838,-5.93,-5.8838,-5.7627,-5.6887,-5.6637,-5.6011,-5.5703,-5.5703,-5.5934,-5.5934,-5.5684,-5.5338,-5.5184,-5.5145,-5.426,-5.3895,-5.3818,-5.2972,-5.2337,-5.1963,-5.2331,-5.2903,-5.3521,-5.3297,-5.3693,-5.4249,-5.3631,-5.3261,-5.291,-5.2031,-5.1601,-5.1406,-5.1406,-5.0996,-5.0644,-5.123,-5.0527,-4.9726,-5.0371,-4.9902,-4.9101,-4.8476,-4.7946,-4.7434,-4.6784,-4.6464,-4.6105,-4.548,-4.5365,-4.5365,-4.5363,-4.4836,-4.4328,-4.4094,-4.3528,-4.304,-4.2786,-4.2201,-4.1812,-4.1812,-4.1599,-4.1464,-4.1464,-4.1231,-4.1095,-4.1095,-4.1095,-4.1095,-4.1095,-4.1095,-4.1095,-4.1095,-4.0881,-4.0454,0.0,0.0,0.0,0.0,0.0,0.0,0.0,0.0,0.0,0.0,0.0,0.0,0.0,0.0,0.0,0.0,0.0,0.0,0.0,0.0,0.0,0.0,-5.7287,-5.7556,-5.7642,-5.7954,-5.8378,-5.8847,-5.9324,-5.9769,-6.0165,-6.0559,-6.08,-6.08,-6.08,-6.0646,-6.0262,-5.9781,-5.9184,-5.8473,-5.7522,-5.683,-5.6464,-5.5953,-5.5703,-5.5703,-5.5357,-5.5203,-5.5164,-5.4337,-5.3953,-5.3933,-5.3414,-5.2991,-5.2615,-5.2115,-5.1692,-5.1404,0.0,0.0,0.0,0.0,-5.3084,-5.3805,-5.2976,-5.269,-5.2557,-5.1678,-5.1171,-5.0898,-5.0898,-5.0312,-4.9746,-5.0215,-4.9648,-4.9023,-4.9511,-4.9003,-4.8221,-4.7712,-4.7318,-4.6922,-4.6411,-4.6014,-4.5617,-4.5107,-4.4405,0.0,-4.3917,-4.3782,-4.3587,-4.3216,-4.2728,-4.2279,-4.1908,-4.14,-4.1109,-4.1109,-4.1109,-4.1109,-4.1109,-4.1109,0.0,0.0,0.0,-4.1109,-4.1109,-4.1109,0.0,0.0,0.0,0.0,0.0,0.0,0.0,0.0,-4.0245,-4.0458,0.0,0.0,0.0,0.0,0.0,0.0,0.0,0.0,0.0,0.0,0.0,0.0,0.0,0.0,0.0,0.0,-5.7538,-5.7997,-5.7997,-5.8088,-5.8334,-5.8745,-5.927,-5.9753,-6.015,-6.0546,-6.08,-6.08,-6.0704,-6.0319,-5.955,-5.9319,0.0,0.0,0.0,-5.6483,-5.5703,-5.5607,-5.5549,-5.5549,-5.4741,-5.4357,-5.4318,-5.3453,-5.3049,-5.3049,-5.2972,-5.2491,-5.175,-5.175,-5.1337,-5.0712,-5.0808,-5.0836,-5.0921,-5.2001,-5.2864,-5.3403,-5.2767,0.0,0.0,-5.1534,-5.0776,-5.0174,-5.0077,-4.9433,-4.8769,-4.8867,-4.8769,-4.8631,-4.8729,-4.8101,-4.7454,-4.7454,-4.6864,-4.6273,-4.6174,-4.5543,-4.4932,-4.4737,-4.3469,-4.2376,-4.2279,-4.2884,-4.3138,-4.2376,-4.2259,-4.1967,-4.1207,-4.1109,-4.1109,-4.1109,-4.1109,0.0,-4.1109,-4.1012,-4.0953,-4.0953,-4.0875,-4.0816,-4.0816,-4.0914,-4.0953,-4.0953,-4.1051,-4.0701,-3.9886,-3.9939,-3.9939,-3.9906,-4.0628,-4.0586,0.0,0.0,0.0,0.0,0.0,0.0,0.0,0.0,0.0,0.0,0.0,0.0,0.0,0.0,0.0,-5.7648,-5.7905,-5.7997,-5.7997,-5.802,-5.8223,-5.8677,-5.914,-5.9616,-6.0084,-6.054,-6.08,-6.08,-6.0146,-5.9685,-5.9511,-5.8223,-5.733,-5.7003,-5.6329,-5.5857,-5.5703,-5.5049,-5.4722,-5.4722,-5.3857,0.0,-5.3414,-5.2538,-5.2154,-5.2115,-5.1471,-5.1087,-5.0933,-5.0933,-5.0846,-5.077,-5.1462,-5.1364,-5.0927,-5.1939,-5.2016,-5.1622,-5.1583,-5.1608,-5.1519,-5.0627,-5.0286,-5.0077,-4.9354,-4.8535,0.0,-4.8691,-4.7889,-4.6951,-4.7671,-4.7201,-4.6554,-4.655,-4.6411,-4.6116,-4.5405,-4.5129,-4.458,-4.3177,-4.263,-4.2181,-4.1479,-4.15,-4.1558,-4.1382,-4.1343,-4.1285,-4.1129,-4.1109,-4.1109,-4.1109,-4.1109,-4.1109,-4.1109,-4.0464,-4.0054,-4.0054,-3.945,-3.9079,-3.9079,-3.9702,-4.0054,-4.0054,-4.0738,-4.068,-3.9821,-4.0504,-4.0485,-3.9821,-3.9977,-4.0348,0.0,0.0,0.0,0.0,0.0,0.0,0.0,0.0,0.0,0.0,0.0,-5.5702,-5.6124,0.0,-5.706,-5.7868,-5.7666,-5.7538,-5.7941,-5.7648,-5.7696,-5.8495,-5.9008,-5.9465,-5.9906,-6.0401,-6.0717,-6.0753,-5.9981,-5.9319,-5.8915,-5.7684,-5.681,-5.6368,-5.5934,-5.5511,-5.5107,-5.4703,-5.428,-5.3837,-5.2972,-5.2538,-5.2519,-5.1683,-5.1298,-5.1279,-5.0856,-5.0712,-5.0712,-5.0712,-5.0712,-5.0731,-5.1174,-5.1106,-5.0813,-5.1357,-5.1317,-5.1017,-5.1162,-5.095,-5.0597,-5.023,-4.9568,-4.8821,-4.8371,-4.7633,-4.7049,-4.7477,-4.6967,-4.6399,-4.6845,-4.6627,-4.6293,-4.6308,-4.5975,-4.5524,-4.509,-4.4307,-4.345,-4.2572,-4.2045,-4.1615,-4.1187,-4.1109,-4.1109,-4.1109,-4.1109,-4.1109,-4.1109,-4.1109,-4.1109,-4.1109,-4.0717,-4.0444,-4.0444,-3.9683,-3.9195,-3.9195,-3.8825,-3.8591,-3.8591,-3.8982,-3.9195,-3.9195,-3.9626,-3.9626,-3.9195,-4.0034,-4.0228,-3.9811,-4.0242,-4.0675,0.0,0.0,0.0,0.0,0.0,0.0,0.0,-5.383,-5.4399,-5.4399,-5.5152,-5.6033,-5.6693,-5.6932,-5.7262,-5.7886,-5.7464,-5.7262,-5.7905,-5.7446,-5.7375,-5.8329,-5.8829,-5.927,-5.9675,-6.0198,-6.054,-6.0629,-5.9792,-5.8973,-5.8338,-5.73,-5.6426,-5.5722,-5.5549,-5.5164,-5.4511,-5.4164,-5.3645,-5.2953,-5.2087,-5.1673,-5.1635,-5.0991,-5.0712,-5.0712,-5.0712,-5.0712,-5.0712,-5.0712,-5.0712,-5.0712,-5.0712,-5.0712,-5.0702,-5.0748,-5.0816,-5.0875,-5.0836,-5.0411,-4.9843,-4.9634,-4.8662,-4.7556,-4.7382,-4.6863,-4.6301,-4.6301,-4.6297,-4.6293,-4.6291,-4.6306,-4.6261,-4.6085,-4.5519,-4.4912,-4.4561,-4.3391,-4.2355,-4.2178,-4.1573,-4.1103,-4.1101,-4.1099,-4.1081,-4.1108,-4.1109,-4.1109,-4.1109,-4.0953,-4.0855,-4.0855,-4.0073,-3.9507,-3.9331,-3.8726,-3.8279,-3.8103,-3.8084,-3.8084,-3.8084,-3.8259,-3.8357,-3.8357,-3.8513,-3.8513,-3.8357,-3.933,-3.9715,-3.957,-4.0621,-4.1095,-5.0655,-5.1142,-5.205,-5.2876,-5.3133,-5.3185,0.0,-5.383,-5.4399,-5.4399,-5.5611,-5.6693,-5.6785,-5.7373,-5.7905,-5.7997,-5.7923,-5.7905,-5.7997,-5.7923,-5.7973,-5.8201,-5.8542,-5.8931,-5.9399,-5.988,-6.0222,-6.0416,-5.9194,-5.8396,-5.83,-5.6742,-5.5799,-5.5703,-5.5011,-5.4587,-5.4491,-5.2972,-5.2135,-5.2038,-5.1221,-5.0827,-5.0827,-5.075,-5.0712,-5.0712,-5.0712,-5.0712,-5.0712,-5.0712,-5.0712,-5.0712,-5.0712,-5.0712,-5.0693,-5.0711,-5.0747,-5.072,-5.008,-4.9841,-4.9589,-4.8163,-4.7629,-4.7381,-4.6649,-4.6371,-4.6301,-4.6295,-4.6294,-4.6291,-4.6303,-4.6302,-4.6105,-4.5324,-4.5068,-4.458,-4.304,-4.2533,-4.2178,-4.141,-4.1166,-4.1096,-4.1106,-4.1053,-4.1022,-4.1085,-4.1109,-4.1109,-4.1109,-4.0424,-3.9956,-3.9956,-3.9216,-3.8415,-3.7653,-3.7497,-3.7126,-3.6344,-3.6285,-3.6285,-3.6285,-3.7028,-3.7458,-3.7458,-3.8201,-3.822,-3.7458,-3.9032,-3.9398,-3.8692,-4.032,-4.1096,-5.1173,-5.1448,-5.1971,-5.2754,-5.3039,-5.3082,-5.3082,-5.3769,-5.4528,-5.4987,-5.6014,-5.695,-5.7409,-5.7776,-5.7997,-5.7997,-5.7611,-5.7464,-5.7923,-5.7189,-5.6973,-5.7973,-5.7785,-5.8021,-5.9046,-5.9622,-5.9798,-5.9488,-5.87,-5.8012,-5.7505,-5.6346,-5.5703,-5.5703,-5.4914,-5.426,-5.376,-5.2519,-5.1654,-5.1202,-5.0856,-5.0712,-5.0712,-5.0712,-5.0712,-5.0712,-5.0712,-5.0712,-5.0712,-5.0712,-5.0712,-5.0712,-5.0712,-5.0385,-5.0,-5.0519,-5.0404,-4.994,-4.9685,-4.8955,-4.8076,-4.7514,-4.7042,-4.6624,-4.6333,-4.6278,-4.629,-4.6306,-4.6306,-4.6305,-4.6302,-4.5929,-4.5441,-4.5088,-4.4229,-4.3294,-4.2552,-4.2006,-4.1534,-4.1163,-4.1067,-4.1022,-4.0997,-4.0929,-4.0898,-4.0915,-4.0989,-4.103,-4.103,-4.0311,-3.9414,-3.84,-3.799,-3.7425,-3.6567,-3.6489,-3.6333,-3.596,-3.594,-3.594,-3.594,-3.6294,-3.6489,-3.6489,-3.684,-3.684,-3.6489,-3.7693,-3.8351,-3.8527,-3.9719,-4.0565,-5.1078,-5.1224,-5.1474,-5.2277,-5.2565,-5.2724,-5.2944,-5.3378,-5.4032,-5.506,-5.5904,-5.6712,-5.7519,-5.785,-5.7997,-5.7997,-5.7519,-5.7336,-5.7923,-5.6987,-5.6675,-5.785,-5.7483,-5.7578,-5.8727,-5.9271,-5.9316,-5.8722,-5.8314,-5.7714,-5.6917,-5.6132,-5.5588,-5.5376,-5.4568,-5.3722,-5.2856,-5.201,-5.1279,-5.0712,-5.0712,-5.0712,-5.0712,-5.0712,-5.0577,-5.0346,-5.0346,-5.0212,-4.9971,-4.9971,-4.9971,-4.9971,-4.9971,-4.9606,-4.9125,-4.974,-4.9586,-4.9019,-4.884,-4.8001,-4.6996,-4.6926,-4.6538,-4.6076,-4.6157,-4.6211,-4.6273,-4.6296,-4.6298,-4.6241,-4.6007,-4.548,-4.4873,-4.4403,-4.3328,-4.2329,-4.2093,-4.1523,-4.1066,-4.1078,-4.1026,-4.0949,-4.0889,-4.082,-4.0766,-4.0766,-4.0867,-4.0918,-4.094,-4.0032,-3.8731,-3.6972,-3.6797,-3.6524,-3.5895,-3.5837,-3.5833,-3.5811,-3.583,-3.583,-3.583,-3.583,-3.583,-3.583,-3.583,-3.583,-3.583,-3.6687,-3.7452,-3.8111,-3.8925,-3.9649,-5.0119,-5.0405,-5.0633,-5.1438,-5.1743,-5.2047,-5.2816,-5.2517,-5.2509,-5.4106,-5.5078,-5.5868,-5.6693,-5.7464,-5.7997,-5.7997,-5.7978,-5.796,-5.7997,-5.796,-5.7941,-5.7997,-5.7978,-5.8092,-5.8393,-5.8727,-5.8765,-5.845,-5.7986,-5.7442,-5.6827,-5.611,-5.5338,-5.4549,-5.3683,-5.2818,-5.1942,-5.1144,-5.0731,-5.0712,-5.0712,-5.0712,-5.0712,-5.0712,-5.025,-4.9433,-4.9433,-4.8952,-4.8182,-4.8182,-4.8182,-4.8182,-4.8182,-4.8163,-4.8144,-4.8182,-4.8163,-4.8029,-4.7255,-4.699,-4.6873,-4.6176,-4.5968,-4.6022,-4.6072,-4.6151,-4.6211,-4.6282,-4.6292,-4.6105,-4.5265,-4.501,-4.4579,-4.2873,-4.2434,-4.2169,-4.1315,-4.1064,-4.1003,-4.1007,-4.0943,-4.0878,-4.0804,-4.0742,-4.07,-4.07,-4.0706,-4.0734,-4.0801,-3.9377,-3.7687,-3.5935,-3.576,-3.5732,-3.5711,-3.5706,-3.5678,-3.5616,-3.5616,-3.5616,-3.5616,-3.5616,-3.5616,-3.5616,-3.5616,-3.5616,-3.5616,-3.6474,-3.6957,-3.7063,-3.7931,-3.8354,-4.93,-4.9397,-4.9727,-5.1074,-5.1533,-5.1886,-5.2667,-5.2819,-5.3096,-5.4179,-5.462,-5.5207,-5.6565,-5.7024,-5.7373,-5.7905,-5.7997,-5.7997,-5.7997,-5.7538,-5.7409,-5.7941,-5.706,-5.6691,-5.7467,-5.7825,-5.7847,-5.7369,-5.6994,-5.6461,-5.5766,-5.5171,-5.4707,-5.4438,-5.3067,-5.2192,-5.1904,-5.1106,-5.0712,-5.0712,-5.0712,-5.0712,-5.0712,-5.0712,-5.0221,-4.9394,-4.9394,-4.8913,-4.8105,-4.8105,-4.8105,-4.8105,-4.8105,-4.7778,-4.7288,-4.7288,-4.6932,-4.6499,-4.6796,-4.6544,-4.6039,-4.5835,-4.5807,-4.588,-4.5993,-4.608,-4.6144,-4.6209,-4.5857,-4.5363,-4.5088,-4.4131,-4.3133,-4.2531,-4.1925,-4.1373,-4.1032,-4.0902,-4.0861,-4.0874,-4.0818,-4.0742,-4.0675,-4.0609,-4.0564,-4.0573,-4.0641,-4.0306,-3.9223,-3.859,-3.7577,-3.5814,-3.5625,-3.5634,-3.5623,-3.5588,-3.5552,-3.5541,-3.5521,-3.5521,-3.5521,-3.5521,-3.5521,-3.5521,-3.5521,-3.5521,-3.5521,-3.5872,-3.6346,-3.6949,-3.7225,-3.7679,-4.8456,-4.8674,-4.9217,-5.0524,-5.1009,-5.1474,-5.255,-5.2797,-5.3004,-5.3812,-5.4197,-5.4803,-5.6124,-5.662,-5.706,-5.7868,-5.7997,-5.7997,-5.7997,-5.7556,-5.7428,-5.7941,-5.6822,-5.6283,-5.6996,-5.6751,-5.6477,-5.6274,-5.6107,-5.5609,-5.468,-5.4402,-5.4001,-5.3451,-5.245,-5.175,-5.1471,-5.0952,-5.0712,-5.0712,-5.0712,-5.0712,-5.0712,-5.0712,-5.0048,-4.8933,-4.8933,-4.8279,-4.7201,-4.7201,-4.7201,-4.7201,-4.7201,-4.6894,-4.6432,-4.6432,-4.6086,-4.5691,-4.624,-4.6067,-4.5603,-4.5679,-4.5731,-4.5793,-4.5917,-4.6008,-4.6084,-4.6144,-4.5571,-4.4892,-4.458,-4.3448,-4.229,-4.1972,-4.1409,-4.0941,-4.0881,-4.0811,-4.0759,-4.0767,-4.0719,-4.0642,-4.06,-4.0546,-4.0495,-4.051,-4.0296,-3.9636,-3.826,-3.8086,-3.743,-3.5682,-3.5489,-3.549,-3.5496,-3.5457,-3.5417,-3.5385,-3.5385,-3.5385,-3.5385,-3.5385,-3.5385,-3.5385,-3.5385,-3.5385,-3.5385,-3.5457,-3.5791,-3.6352,-3.6361,-3.6658,-4.7717,-4.8257,-4.9057,-4.9872,-5.0264,-5.0815,-5.2419,-5.2413,-5.227,-5.302,-5.3812,-5.4583,-5.5372,-5.6198,-5.7005,-5.7813,-5.796,-5.7997,-5.7997,-5.7997,-5.7978,-5.7941,-5.7226,-5.6775,-5.6849,-5.5465,-5.4732,-5.5119,-5.5282,-5.4846,-5.3644,-5.3764,-5.3197,-5.1735,-5.1766,-5.1462,-5.0702,-5.0712,-5.0712,-5.0712,-5.0712,-5.0712,-5.0712,-5.0712,-4.974,-4.8105,-4.8105,-4.7144,-4.5594,-4.5594,-4.5594,-4.5594,-4.5594,-4.5594,-4.5594,-4.5594,-4.5594,-4.5594,-4.5594,-4.5594,-4.5622,-4.5665,-4.5687,-4.5723,-4.5859,-4.5943,-4.6002,-4.6075,-4.548,-4.4634,-4.3796,-4.29,-4.2016,-4.1194,-4.0935,-4.0864,-4.0793,-4.073,-4.0694,-4.07,-4.0647,-4.0593,-4.0588,-4.0538,-4.0482,-4.0436,-3.9673,-3.8805,-3.7992,-3.7857,-3.7186,-3.548,-3.5308,-3.5293,-3.5293,-3.5304,-3.5269,-3.5209,-3.5209,-3.5209,-3.5209,-3.5209,-3.5209,-3.5209,-3.5209,-3.5209,-3.5209,-3.5269,-3.5335,-3.5391,-3.5388,-3.5388,-4.7717,-4.7862,-4.8351,-4.9745,-5.0199,-5.0726,-5.229,-5.2685,-5.2785,-5.3005,-5.3289,-5.3757,-5.4564,-5.5354,-5.6161,-5.6987,-5.7611,-5.7997,-5.7997,-5.7997,-5.7776,-5.7189,-5.64,-5.5691,-5.5175,-5.3689,-5.2871,-5.3124,-5.3457,-5.3547,-5.3381,-5.2484,-5.1827,-5.1481,-5.1114,-5.0835,-5.0623,-5.0682,-5.0712,-5.0712,-5.0712,-5.0712,-5.0712,-5.0712,-4.974,-4.8105,-4.8105,-4.7144,-4.5594,-4.5594,-4.5594,-4.5594,-4.5594,-4.5594,-4.5594,-4.5594,-4.5594,-4.5594,-4.5594,-4.5594,-4.5594,-4.5622,-4.564,-4.5646,-4.5723,-4.5793,-4.5854,-4.5922,-4.4909,-4.3723,-4.351,-4.2324,-4.1129,-4.0903,-4.0807,-4.073,-4.0662,-4.0588,-4.0557,-4.0542,-4.0534,-4.0531,-4.0523,-4.0518,-4.0255,-3.9555,-3.925,-3.881,-3.8011,-3.7329,-3.6504,-3.5423,-3.5304,-3.53,-3.5312,-3.5242,-3.5218,-3.5209,-3.5209,-3.5209,-3.5209,-3.5209,-3.5209,-3.5209,-3.5209,-3.5209,-3.5209,-3.5269,-3.5304,-3.5326,-3.533,-3.533,-4.7927,-4.7886,-4.8187,-4.976,-5.0221,-5.0722,-5.2312,-5.285,-5.302,-5.3082,-5.2871,-5.3041,-5.4197,-5.4473,-5.5042,-5.6565,-5.7189,-5.7464,-5.7464,-5.7776,-5.7574,-5.6418,-5.5868,-5.5306,-5.4522,-5.3021,-5.2164,-5.2339,-5.2271,-5.2167,-5.2032,-5.1371,-5.0916,-5.0748,-5.0535,-5.0502,-5.0633,-5.0673,-5.0519,-5.0125,-5.0519,-5.05,-5.0144,-5.0539,-4.974,-4.8105,-4.8105,-4.7144,-4.5594,-4.5594,-4.5594,-4.5594,-4.5594,-4.5594,-4.5594,-4.5594,-4.5594,-4.5594,-4.5594,-4.5594,-4.5594,-4.5594,-4.5594,-4.5603,-4.5679,-4.5723,-4.5764,-4.5847,-4.4653,-4.3352,-4.3352,-4.2059,-4.0768,-4.0756,-4.0707,-4.0655,-4.0619,-4.0561,-4.0496,-4.0496,-4.05,-4.0495,-4.051,-4.0449,-4.01,-3.9233,-3.8748,-3.8185,-3.7398,-3.687,-3.6219,-3.535,-3.5258,-3.5261,-3.5261,-3.5218,-3.5209,-3.5209,-3.5209,-3.5209,-3.5209,-3.5209,-3.5037,-3.4674,-3.5018,-3.5037,-3.4674,-3.5081,-3.525,-3.5254,-3.5254,-3.5254,-4.8323,-4.817,-4.8417,-4.9895,-5.0289,-5.0707,-5.2291,-5.2747,-5.2837,-5.2852,-5.2325,-5.227,-5.3665,-5.3537,-5.3882,-5.5996,-5.651,-5.6638,-5.6638,-5.7244,-5.7116,-5.5611,-5.5335,-5.4968,-5.4161,-5.2686,-5.1811,-5.1966,-5.1286,-5.0712,-5.0396,-5.0413,-5.0267,-4.9944,-5.0094,-5.0347,-5.0663,-5.0558,-5.0115,-4.9375,-5.0038,-4.9942,-4.925,-5.0,-4.9471,-4.7952,-4.7952,-4.7048,-4.5594,-4.5594,-4.5594,-4.5594,-4.5594,-4.5594,-4.5594,-4.5594,-4.5594,-4.5594,-4.5594,-4.5594,-4.5594,-4.5594,-4.5594,-4.5622,-4.5676,-4.5698,-4.57,-4.575,-4.4564,-4.3271,-4.3271,-4.1983,-4.0662,-4.0668,-4.064,-4.0586,-4.0588,-4.0539,-4.0496,-4.0508,-4.0495,-4.0502,-4.0485,-4.0379,-3.9982,-3.9044,-3.8225,-3.7368,-3.6443,-3.6328,-3.6042,-3.5286,-3.5209,-3.5209,-3.5209,-3.5209,-3.5209,-3.5209,-3.5209,-3.5209,-3.5209,-3.5209,-3.4827,-3.4014,-3.4789,-3.4808,-3.3995,-3.4808,-3.5209,-3.5209,-3.5209,-3.5209,-4.8932,-4.8568,-4.8771,-5.0248,-5.0503,-5.063,-5.1602,-5.1907,-5.1828,-5.1172,-5.1035,-5.1096,-5.1371,-5.2417,-5.3332,-5.3775,-5.495,-5.5794,-5.5794,-5.5923,-5.5666,-5.4711,-5.4014,-5.3298,-5.2491,-5.0969,-5.0094,-5.023,-4.951,-4.9416,-5.0275,-4.9807,-4.9683,-5.0057,-5.0151,-5.0306,-5.0532,-4.9832,-4.9391,-4.9238,-4.8719,-4.8432,-4.8337,-4.8491,-4.803,-4.7096,-4.7096,-4.6528,-4.5594,-4.5594,-4.5594,-4.5594,-4.5594,-4.5594,-4.5594,-4.5594,-4.5594,-4.5594,-4.5594,-4.5594,-4.5594,-4.5594,-4.5594,-4.5594,-4.5603,-4.5612,-4.562,-4.5629,-4.4435,-4.3126,-4.3126,-4.1844,-4.0534,-4.0527,-4.0519,-4.0512,-4.0523,-4.0516,-4.05,-4.0507,-4.051,-4.0458,-4.0342,-4.0316,-3.9762,-3.8178,-3.7797,-3.7158,-3.563,-3.543,-3.5373,-3.5229,-3.5209,-3.5209,-3.5209,-3.5209,-3.5209,-3.5209,-3.5209,-3.5209,-3.5209,-3.5209,-3.4827,-3.4014,-3.4789,-3.4808,-3.3995,-3.4808,-3.5209,-3.5209,-3.5209,-3.5209,-5.0457,-4.9937,-4.9784,-5.1228,-5.1083,-5.0787,-5.1674,-5.1587,-5.1242,-5.0937,-5.0554,-5.0408,-5.0772,-5.1118,-5.1738,-5.3004,-5.3849,-5.4491,-5.4913,-5.5335,-5.5133,-5.3922,-5.3424,-5.2894,-5.2068,-5.0547,-4.967,-4.9787,-4.9049,-4.8881,-4.9537,-4.937,-4.9399,-4.9741,-4.9828,-4.9765,-4.9501,-4.9113,-4.8445,-4.7587,-4.7731,-4.7605,-4.7287,-4.7817,-4.7626,-4.6904,-4.6904,-4.6413,-4.5594,-4.5594,-4.5594,-4.5594,-4.5594,-4.5594,-4.5594,-4.5594,-4.5594,-4.5594,-4.5594,-4.5306,-4.4913,-4.4913,-4.4913,-4.5017,-4.546,-4.5287,-4.4913,-4.4913,-4.4047,-4.3008,-4.2547,-4.147,-4.0496,-4.0496,-4.0496,-4.0496,-4.0496,-4.0492,-4.0495,-4.051,-4.0449,-4.0379,-4.0316,-3.9925,-3.9191,-3.7893,-3.7349,-3.6623,-3.5362,-3.5209,-3.5209,-3.5209,-3.5209,-3.5209,-3.5209,-3.5209,-3.5209,-3.5209,-3.5209,-3.5209,-3.5209,-3.5209,-3.4617,-3.3356,-3.456,-3.4579,-3.3337,-3.4598,-3.5209,-3.5209,-3.5209,-3.5209,-5.1903,-5.1281,-5.0811,-5.2195,-5.1693,-5.1036,-5.1759,-5.1298,-5.069,-5.0638,-5.0065,-4.9732,-5.0301,-4.9945,-5.0235,-5.2123,-5.2582,-5.2968,-5.3775,-5.4418,-5.4363,-5.3096,-5.2803,-5.238,-5.1555,-5.016,-4.9394,-4.9529,-4.8993,-4.8732,-4.8891,-4.9081,-4.9228,-4.9384,-4.9315,-4.906,-4.8564,-4.8198,-4.7365,-4.6064,-4.6693,-4.6717,-4.623,-4.7033,-4.7107,-4.6569,-4.6569,-4.6194,-4.5577,-4.5577,-4.5586,-4.5594,-4.5594,-4.5594,-4.5594,-4.5594,-4.5594,-4.5575,-4.5383,-4.4874,-4.4259,-4.4105,-4.4047,-4.4162,-4.4863,-4.4586,-4.4047,-4.4047,-4.3451,-4.2662,-4.1981,-4.1143,-4.0496,-4.05,-4.05,-4.0442,-4.0242,-4.021,-4.014,-3.9959,-3.9842,-3.9771,-3.9762,-3.9172,-3.8438,-3.7578,-3.6901,-3.6194,-3.5297,-3.5209,-3.5209,-3.5209,-3.5209,-3.5209,-3.5209,-3.5209,-3.5209,-3.5209,-3.5209,-3.5209,-3.5209,-3.5209,-3.4495,-3.3005,-3.4437,-3.4475,-3.2986,-3.4475,-3.5209,-3.5209,-3.5209,-3.5209,-5.2549,-5.1806,-5.1343,-5.2696,-5.2132,-5.1268,-5.1343,-5.0693,-4.9896,-4.9245,-4.8985,-4.8877,-4.8808,-4.923,-4.9665,-4.9886,-5.0527,-5.1298,-5.2105,-5.227,-5.227,-5.2123,-5.1463,-5.0692,-4.9904,-4.8967,-4.8493,-4.8698,-4.8804,-4.8891,-4.8909,-4.9032,-4.9166,-4.9289,-4.8686,-4.8355,-4.8433,-4.6903,-4.6072,-4.5902,-4.5325,-4.5121,-4.5239,-4.5382,-4.5481,-4.5534,-4.5534,-4.5524,-4.5504,-4.5504,-4.555,-4.5594,-4.5594,-4.5594,-4.5594,-4.5594,-4.5594,-4.5498,-4.4682,-4.4374,-4.4182,-4.3451,-4.3201,-4.3239,-4.3316,-4.3278,-4.3201,-4.3201,-4.2585,-4.1904,-4.1808,-4.1143,-4.0508,-4.0499,-4.051,-4.0271,-3.9405,-3.9235,-3.8988,-3.8199,-3.8038,-3.8012,-3.7959,-3.7874,-3.754,-3.6729,-3.6557,-3.6194,-3.5297,-3.5209,-3.5209,-3.5209,-3.5209,-3.5209,-3.5209,-3.5209,-3.5209,-3.5209,-3.5209,-3.5209,-3.5209,-3.5209,-3.4789,-3.3899,-3.4751,-3.477,-3.388,-3.477,-3.5209,-3.5209,-3.5209,-3.5209,-5.3912,-5.3495,-5.2982,-5.3852,-5.2865,-5.1656,-5.1658,-5.0611,-4.9548,-4.9265,-4.919,-4.9123,-4.8993,-4.9081,-4.9307,-4.9769,-5.0043,-5.063,-5.1877,-5.2036,-5.2179,-5.2656,-5.2013,-5.1206,-5.0398,-4.9554,-4.8751,-4.7941,-4.8028,-4.7929,-4.7478,-4.7977,-4.8064,-4.7625,-4.7322,-4.6959,-4.6532,-4.5877,-4.5279,-4.4755,-4.4571,-4.4554,-4.4688,-4.4789,-4.4922,-4.5041,-4.5118,-4.5222,-4.5322,-4.541,-4.5504,-4.5594,-4.5594,-4.5594,-4.5594,-4.5594,-4.5267,-4.4759,-4.4412,-4.3643,-4.2739,-4.2431,-4.195,-4.172,-4.2777,-4.2739,-4.2316,-4.2316,-4.2066,-4.1681,-4.1143,-4.0766,-4.05,-4.0499,-4.0106,-3.9591,-3.9197,-3.8684,-3.8199,-3.7876,-3.7774,-3.7738,-3.7702,-3.7292,-3.6863,-3.6557,-3.6042,-3.5583,-3.5248,-3.5209,-3.5193,-3.5206,-3.5193,-3.5209,-3.5209,-3.5209,-3.5209,-3.5209,-3.5209,-3.5209,-3.5209,-3.5209,-3.4827,-3.4014,-3.4789,-3.4808,-3.3995,-3.4808,-3.5209,-3.5209,-3.5209,-3.5209,-5.4511,-5.4427,-5.4042,-5.4381,-5.324,-5.1958,-5.1717,-5.038,-4.925,-4.9495,-4.9344,-4.919,-4.9296,-4.9158,-4.9178,-4.9653,-4.9602,-4.9935,-5.1222,-5.1342,-5.1481,-5.205,-5.161,-5.0967,-5.0141,-4.9373,-4.8494,-4.7462,-4.7254,-4.6876,-4.6127,-4.6663,-4.6828,-4.6513,-4.6271,-4.5862,-4.5305,-4.5026,-4.4599,-4.4005,-4.4177,-4.4306,-4.4374,-4.4517,-4.4636,-4.4777,-4.4898,-4.5026,-4.5178,-4.5301,-4.5438,-4.5568,-4.5568,-4.5577,-4.5594,-4.5594,-4.5056,-4.4259,-4.4028,-4.3008,-4.175,-4.1508,-4.0989,-4.0727,-4.195,-4.1893,-4.1412,-4.1412,-4.1412,-4.1277,-4.0669,-4.0496,-4.0423,-4.0156,-3.9621,-3.9018,-3.8454,-3.7857,-3.7334,-3.7067,-3.6993,-3.6967,-3.6967,-3.6489,-3.6118,-3.6118,-3.5583,-3.5209,-3.5209,-3.5193,-3.5196,-3.52,-3.5179,-3.5168,-3.5168,-3.5168,-3.5168,-3.5168,-3.5168,-3.5168,-3.5168,-3.5168,-3.4901,-3.4337,-3.4882,-3.4882,-3.4337,-3.4882,-3.5168,-3.5168,-3.5168,-3.5168,-5.3874,-5.4104,-5.4066,-5.3941,-5.31,-5.2096,-5.1286,-4.9795,-4.8861,-4.9728,-4.9202,-4.8808,-4.9461,-4.9427,-4.9256,-4.9137,-4.8937,-4.9044,-4.9732,-4.9709,-4.961,-4.9536,-4.9592,-4.928,-4.8416,-4.7721,-4.7316,-4.7297,-4.6683,-4.5971,-4.5156,-4.5238,-4.5677,-4.6475,-4.5732,-4.5305,-4.5287,-4.4432,-4.4005,-4.4005,-4.4135,-4.4237,-4.4322,-4.4435,-4.4565,-4.4693,-4.4757,-4.4907,-4.5114,-4.517,-4.531,-4.5504,-4.5504,-4.5531,-4.5594,-4.5594,-4.5056,-4.4182,-4.3393,-4.2547,-4.1662,-4.0785,-4.0516,-4.0496,-4.0516,-4.0516,-4.0516,-4.0516,-4.0516,-4.0516,-4.0496,-4.0496,-4.0261,-3.9347,-3.9112,-3.8627,-3.6908,-3.6519,-3.6252,-3.54,-3.5229,-3.5229,-3.5229,-3.5229,-3.5209,-3.5209,-3.5209,-3.5209,-3.5209,-3.5206,-3.52,-3.52,-3.5138,-3.5092,-3.5092,-3.5092,-3.5092,-3.5092,-3.5092,-3.5092,-3.5092,-3.5092,-3.5092,-3.5092,-3.5092,-3.5092,-3.5092,-3.5092,-3.5092,-3.5092,-3.5092,-3.5092,-5.2996,-5.3206,-5.3181,-5.3092,-5.2372,-5.1635,-5.1374,-5.043,-4.9689,-4.9987,-4.9822,-4.9682,-4.9849,-4.9773,-4.9679,-4.9537,-4.9349,-4.9403,-4.9985,-4.988,-4.9913,-5.0387,-4.9905,-4.9426,-4.9225,-4.7958,-4.6967,-4.6506,-4.573,-4.4986,-4.4307,-4.4321,-4.448,-4.4785,-4.4544,-4.4413,-4.4413,-4.4135,-4.4005,-4.4005,-4.4036,-4.4082,-4.4109,-4.4143,-4.4188,-4.4214,-4.4397,-4.4513,-4.4649,-4.4888,-4.5109,-4.5312,-4.54,-4.5504,-4.5594,-4.5594,-4.4701,-4.3431,-4.3181,-4.2143,-4.0873,-4.0593,-4.0496,-4.0496,-4.0496,-4.0496,-4.0496,-4.0496,-4.0496,-4.0496,-4.0496,-4.0492,-4.026,-3.932,-3.8646,-3.7895,-3.6746,-3.6023,-3.5526,-3.5248,-3.5209,-3.5209,-3.5209,-3.5209,-3.5209,-3.5209,-3.5209,-3.5193,-3.5206,-3.5208,-3.5155,-3.5075,-3.5038,-3.5057,-3.5092,-3.5092,-3.5092,-3.5092,-3.5092,-3.5092,-3.5092,-3.5092,-3.5092,-3.5092,-3.5092,-3.5092,-3.5092,-3.5092,-3.5092,-3.5092,-3.5092,-3.5092,-5.2176,-5.26,-5.2716,-5.2373,-5.1878,-5.1383,-5.1059,-5.0335,-4.982,-5.0106,-4.9935,-4.9808,-5.0057,-5.0082,-5.0018,-4.9871,-4.9679,-4.9623,-4.9882,-4.9615,-4.9547,-4.9872,-4.941,-4.9058,-4.9095,-4.7902,-4.6801,-4.6084,-4.5273,-4.4497,-4.382,-4.3816,-4.3883,-4.3929,-4.3974,-4.4005,-4.4005,-4.4005,-4.4005,-4.4005,-4.4005,-4.4005,-4.4005,-4.4005,-4.4005,-4.4005,-4.4195,-4.4306,0.0,-4.4674,-4.4936,-4.5167,-4.5281,-4.5218,-4.508,-4.508,-4.4013,-4.256,-4.256,-4.1654,-4.0496,-4.0496,-4.0496,-4.0496,-4.0496,-4.0496,-4.0496,-4.0496,-4.0496,-4.0489,-4.0492,-4.0507,-4.0178,-3.8912,-3.818,-3.7477,-3.626,-3.5583,-3.5209,-3.5209,-3.5209,-3.5209,-3.5209,-3.5209,-3.5209,-3.5209,-3.5193,-3.5196,-3.52,-3.5155,-3.5084,-3.5011,-3.4983,-3.4983,-3.502,-3.502,-3.502,-3.502,-3.502,-3.502,-3.502,-3.502,-3.502,-3.502,-3.502,-3.502,-3.502,-3.502,-3.502,-3.502,-3.502,-3.502,0.0,-5.2112,-5.2454,-5.1697,-5.1505,-5.1314,-5.0474,-4.9671,0.0,-5.013,-4.9652,-4.9328,-5.0137,-5.029,-5.0243,-5.0108,-4.9922,-4.9712,-4.9427,-4.9055,-4.8694,-4.8363,-4.8306,-4.8306,-4.8306,-4.7571,-4.6764,-4.5957,-4.5202,-4.4445,-4.3635,-4.3719,-4.3788,-4.3804,-4.3913,-4.3989,-4.3989,-4.3989,-4.3989,-4.3989,-4.3989,-4.3989,-4.3989,-4.4005,-4.4005,-4.4005,-4.4135,-4.4218,-4.4275,-4.4505,-4.472,-4.4985,-4.5041,-4.4656,-4.4068,-4.4078,-4.306,-4.1684,-4.1692,-4.1168,-4.0496,-4.0496,-4.0496,-4.0496,-4.0496,-4.0496,-4.0496,-4.0496,-4.0496,-4.05,-4.0499,-4.0444,-3.9959,-3.8199,-3.7753,-3.7247,-3.5562,-3.5209,-3.5209,-3.5209,-3.5209,-3.5209,-3.5209,-3.5209,-3.5201,-3.5201,-3.5206,-3.5191,-3.5164,-3.5066,-3.4983,-3.4974,-3.4917,-3.4889,-3.4889,-3.4879,-3.4908,-3.4908,-3.4908,-3.4908,-3.4908,-3.4908,-3.4908,-3.4908,-3.4908,-3.4908,-3.4908,-3.4908,-3.4908,-3.4908,-3.4908,-3.4908,-5.0975,0.0,-5.0926,-5.0723,-5.0631,-5.055,0.0,-4.9671,-4.9328,-5.013,-4.9652,-4.9316,-5.0071,-5.0182,-5.0108,-4.9978,-4.9811,-4.964,-4.943,-4.9092,-4.8784,-4.855,-4.8476,-4.8401,-4.8306,-4.7571,-4.6764,-4.5957,-4.5167,-4.4394,-4.3654,-4.3634,-4.3684,-4.3788,-4.3837,-4.3851,-4.3851,-4.3851,-4.3851,-4.3851,-4.3897,-4.3929,-4.3929,-4.3974,-4.4005,-4.4005,-4.402,-4.4067,-4.4094,-4.4296,-4.4088,-4.3667,-4.3781,-4.3402,-4.2846,-4.295,-4.2345,-4.1484,-4.1595,-4.1135,-4.0496,-4.0496,-4.0496,-4.0496,-4.0496,-4.0496,-4.0496,-4.0496,-4.0511,-4.0499,-4.0502,-3.998,-3.9155,-3.8057,-3.7288,-3.6517,-3.5439,-3.5209,-3.5209,-3.5209,-3.5209,-3.5209,-3.5209,-3.5209,-3.5193,-3.5198,-3.5155,-3.5075,-3.4917,-3.4869,-3.4819,-3.4699,-3.4678,-3.4668,-3.4668,-3.4821,-3.4908,-3.4908,-3.4908,-3.4908,-3.4908,-3.4908,-3.4908,-3.4908,-3.4908,-3.4908,-3.4908,-3.4908,-3.4908,-3.4908,-3.4908,-3.4908,-5.0898,-5.07,-5.0483,-5.0448,-5.0084,-4.9748,-4.9748,-4.9098,-4.864,-4.906,-4.8812,-4.8732,-4.9439,-4.948,-4.9491,-4.9735,-4.9617,-4.9484,-4.9374,-4.9174,-4.8942,-4.873,-4.8605,-4.8476,-4.8306,-4.7901,-4.7168,-4.5993,-4.5498,-4.4745,-4.3621,-4.3548,-4.3583,-4.3669,-4.3669,-4.3703,-4.3804,-4.3804,-4.3804,-4.3804,-4.3853,-4.3867,-4.3897,-4.3945,-4.3958,-4.4005,-4.4005,-4.4005,-4.3983,-4.3752,-4.3465,-4.3131,-4.2848,-4.2347,-4.1772,-4.1903,-4.1469,-4.0826,-4.0967,-4.0784,-4.0496,-4.0496,-4.0496,-4.0496,-4.0496,-4.05,-4.0503,-4.0503,-4.0507,-4.0397,-3.998,-3.947,-3.8776,-3.7507,-3.6842,-3.6252,-3.5392,-3.5209,-3.5209,-3.5209,-3.5209,-3.5209,-3.5209,-3.5212,-3.5206,-3.52,-3.5066,-3.4908,-3.4733,-3.4649,-3.458,-3.4439,-3.4427,-3.4427,-3.4427,-3.452,-3.4639,-3.4742,-3.4771,-3.4771,-3.4771,-3.4771,-3.4771,-3.4771,-3.4771,-3.4771,-3.4771,-3.4771,-3.4771,-3.4771,-3.4771,-3.4781,-5.1037,-5.0927,-5.0779,-5.0572,-4.9983,-4.9454,-4.932,-4.8621,-4.8017,-4.8151,-4.7979,-4.8041,-4.8845,-4.8783,-4.8808,-4.9499,-4.9461,-4.9352,-4.9367,-4.9299,-4.916,-4.8937,-4.8766,-4.8569,-4.8363,-4.8234,-4.7517,-4.6012,-4.5792,-4.5057,-4.3588,-4.3515,-4.3515,-4.3515,-4.3515,-4.3583,-4.3754,-4.3754,-4.3754,-4.3754,-4.3753,-4.3802,-4.3849,-4.3899,-4.3855,-4.3804,-4.3819,-4.3729,-4.3562,-4.2966,-4.2677,-4.26,-4.1994,-4.133,-4.074,-4.0881,-4.0564,-4.0081,-4.027,-4.04,-4.0496,-4.0496,-4.0496,-4.0496,-4.0508,-4.0495,-4.0463,-4.0332,-4.037,-4.0296,-3.9491,-3.9082,-3.851,-3.7033,-3.6481,-3.6099,-3.5354,-3.5209,-3.5209,-3.5209,-3.5209,-3.5201,-3.5201,-3.5179,-3.5164,-3.5147,-3.4927,-3.4713,-3.4559,-3.4424,-3.4281,-3.4161,-3.4136,-3.4136,-3.4136,-3.4136,-3.4233,-3.4461,-3.4517,-3.4539,-3.4539,-3.4539,-3.4539,-3.4539,-3.4539,-3.4539,-3.4539,-3.4539,-3.4539,-3.4539,-3.4539,-3.4561,-5.1128,-5.1472,-5.1657,-5.0807,-5.0905,-5.1028,-5.0283,-4.948,-4.9079,-4.9786,-4.8781,-4.8232,-4.9644,-4.9181,-4.8826,-4.957,-4.96,-4.957,-4.963,-4.9589,-4.948,-4.9318,-4.9092,-4.8837,-4.8569,-4.7887,-4.7004,-4.5975,-4.5278,-4.4488,-4.3551,-4.3515,-4.3515,-4.3515,-4.3515,-4.3515,-4.3549,-4.3549,-4.3549,-4.3549,-4.36,-4.3651,-4.3649,-4.3816,-4.3526,-4.2894,-4.2953,-4.2581,-4.1875,-4.1817,-4.1349,-4.0655,-4.0649,-4.0128,-3.9424,-3.9665,-3.9804,-3.9922,-4.0319,-4.0481,-4.0496,-4.0496,-4.0496,-4.0508,-4.0507,-4.051,-4.0332,-3.9536,-3.9816,-4.0306,-4.0163,-3.9018,-3.7855,-3.7578,-3.6432,-3.5354,-3.5229,-3.5209,-3.5209,-3.5209,-3.5209,-3.5193,-3.5198,-3.5155,-3.5066,-3.4898,-3.474,-3.455,-3.4286,-3.413,-3.4011,-3.3868,-3.3855,-3.3855,-3.3855,-3.3855,-3.3868,-3.3921,-3.4136,-3.4257,-3.4257,-3.4257,-3.4257,-3.4257,-3.4257,-3.4257,-3.4257,-3.4257,-3.4257,-3.4257,-3.4257,-3.4293,-5.119,-5.1651,-5.1915,-5.0951,-5.079,-5.0799,-5.0397,-4.9308,-4.8506,-4.8869,-4.7971,-4.7564,-4.9111,-4.8574,-4.8251,-4.9303,-4.9562,-4.9655,-4.975,-4.9755,-4.9726,-4.9646,-4.9377,-4.8905,-4.8135,-4.7625,-4.6763,-4.5369,-4.4911,-4.436,-4.3551,-4.3515,-4.3515,-4.3515,-4.3515,-4.3277,-4.2855,-4.3277,-4.3515,-4.3515,-4.3513,-4.3565,-4.3599,-4.3701,-4.3597,-4.3323,-4.2878,-4.2489,-4.2079,-4.1174,-4.0548,-4.0159,-3.9777,-3.9412,-3.9142,-3.9471,-3.9773,-4.001,-4.0332,-4.046,-4.0503,-4.0508,-4.05,-4.0495,-4.051,-4.0449,-4.0215,-3.9329,-3.9684,-4.0068,-3.9151,-3.8303,-3.7597,-3.7158,-3.6107,-3.5209,-3.5209,-3.5209,-3.5209,-3.5209,-3.5204,-3.5206,-3.52,-3.5038,-3.4879,-3.4723,-3.4513,-3.4281,-3.4023,-3.3855,-3.3739,-3.3605,-3.3591,-3.3591,-3.3591,-3.3591,-3.3661,-3.3793,-3.3908,-3.3985,-3.3985,-3.3985,-3.3985,-3.3985,-3.3985,-3.3985,-3.3985,-3.3985,-3.3985,-3.3985,-3.3985,-3.4036,-5.0923,-5.1269,-5.1462,-5.0706,-5.0566,-5.0574,-5.0382,-4.9308,-4.838,-4.838,-4.7704,-4.7518,-4.8869,-4.8466,-4.8259,-4.928,-4.9579,-4.9745,-4.9849,-4.9743,-4.9629,-4.9572,-4.9145,-4.8474,-4.7448,-4.7063,-4.6263,-4.48,-4.4544,-4.4158,-4.3533,-4.3515,-4.3423,-4.3222,-4.3222,-4.2818,-4.2029,-4.2635,-4.302,-4.3222,-4.3423,-4.3422,-4.3289,-4.3508,-4.348,-4.3241,-4.2783,-4.2393,-4.1961,-4.064,-4.0011,-3.9819,-3.9205,-3.9036,-3.9142,-3.9489,-3.9781,-4.0046,-4.0233,-4.036,-4.043,-4.0468,-4.0479,-4.0466,-4.0458,-4.0388,-4.0096,-3.9054,-3.936,-3.9687,-3.8351,-3.7712,-3.7311,-3.6882,-3.5965,-3.5209,-3.5209,-3.5209,-3.5201,-3.5193,-3.5198,-3.5155,-3.5101,-3.4908,-3.4693,-3.4537,-3.4298,-3.4036,-3.3793,-3.3643,-3.352,-3.3408,-3.3393,-3.3393,-3.3393,-3.3393,-3.3495,-3.3684,-3.3712,-3.3712,-3.3712,-3.3712,-3.3712,-3.3712,-3.3712,-3.3712,-3.3712,-3.3712,-3.3712,-3.3712,-3.3712,-3.378,-5.0027,-4.9982,-4.9931,-4.9741,-5.0654,-5.1389,-5.0573,-5.0241,-5.013,-5.013,-4.948,-4.9163,-4.9952,-4.9943,-4.9813,-4.9847,-4.992,-5.0005,-5.0082,-4.9436,-4.8953,-4.8884,-4.7975,-4.7193,-4.6713,-4.5807,-4.5114,-4.4726,-4.4011,-4.3552,-4.3515,-4.3515,-4.3149,-4.2415,-4.2396,-4.2011,-4.1187,-4.1242,-4.1662,-4.2396,-4.313,-4.3111,-4.2431,-4.3234,-4.2787,-4.1441,-4.2186,-4.1633,-4.0188,-4.0136,-3.9637,-3.8895,-3.8914,-3.8993,-3.9129,-3.9272,-3.9502,-3.9762,-3.9962,-4.012,-4.0233,-4.037,-4.0415,-4.0407,-4.0325,-4.0316,-3.9954,-3.8265,-3.8428,-3.9049,-3.8935,-3.7742,-3.6748,-3.7445,-3.6375,-3.5209,-3.5209,-3.5209,-3.5193,-3.5198,-3.5147,-3.5057,-3.486,-3.472,-3.4528,-3.4269,-3.4061,-3.386,-3.3629,-3.3549,-3.3481,-3.3411,-3.3393,-3.3393,-3.3393,-3.3393,-3.3411,-3.3422,-3.3422,-3.3422,-3.3422,-3.3422,-3.3422,-3.3422,-3.3422,-3.3422,-3.3422,-3.3422,-3.3422,-3.3422,-3.3422,-3.3466,-5.0124,-4.9902,-4.9701,-4.9064,-4.9605,-5.0296,-5.0421,-5.039,-5.0302,-5.0302,-5.0054,-4.9603,-4.8854,-4.9105,-4.9248,-4.8691,-4.8627,-4.865,-4.8674,-4.8407,-4.8216,-4.8178,-4.7675,-4.7003,-4.6123,-4.5522,-4.4829,-4.4009,-4.3663,-4.3515,-4.3515,-4.302,-4.2598,-4.2304,-4.1809,-4.1167,-4.0359,-4.0838,-4.0985,-4.0818,-4.1625,-4.1864,-4.157,-4.1899,-4.1728,-4.1185,-4.0985,-4.0544,-3.9952,-3.9439,-3.9053,-3.8807,-3.8862,-3.895,-3.905,-3.9142,-3.935,-3.9604,-3.9805,-4.0021,-4.0215,-4.0353,-4.037,-4.0325,-4.0316,-3.9925,-3.9248,-3.8046,-3.7578,-3.7455,-3.7455,-3.6978,-3.6576,-3.6882,-3.6069,-3.5209,-3.5209,-3.5204,-3.5198,-3.52,-3.5038,-3.486,-3.4694,-3.4491,-3.4257,-3.3985,-3.382,-3.3675,-3.3509,-3.3452,-3.3422,-3.3393,-3.3393,-3.3393,-3.3393,-3.294,-3.2651,-3.2651,-3.3121,-3.3393,-3.3393,-3.3393,-3.3393,-3.3393,-3.3393,-3.3393,-3.3393,-3.3393,-3.3393,-3.3393,-3.3393,-3.3437,-5.0208,-4.9601,-4.9036,-4.8637,-4.8592,-4.8919,-4.9931,-5.0243,-5.0302,-5.0302,-5.0302,-4.9862,-4.8468,-4.8697,-4.8812,-4.7941,-4.7788,-4.7788,-4.7788,-4.7559,-4.7387,-4.7387,-4.6956,-4.6291,-4.5434,-4.511,-4.4599,-4.3719,-4.3632,-4.3617,-4.36,-4.2794,-4.2209,-4.1937,-4.1148,-4.0341,-3.9533,-4.0084,-4.0084,-3.9533,-4.0084,-4.0471,-4.0728,-4.0967,-4.0997,-4.0769,-4.0428,-4.0168,-3.9921,-3.9326,-3.8958,-3.8762,-3.8822,-3.8866,-3.891,-3.895,-3.9137,-3.9414,-3.9625,-3.9876,-4.0128,-4.0309,-4.0345,-4.0242,-3.9974,-3.9478,-3.8763,-3.7636,-3.692,-3.6443,-3.6156,-3.608,-3.6156,-3.6424,-3.5823,-3.5185,-3.5168,-3.5153,-3.5129,-3.5085,-3.4898,-3.4672,-3.4505,-3.4274,-3.4023,-3.378,-3.3629,-3.352,-3.3408,-3.3393,-3.3393,-3.3393,-3.3393,-3.3393,-3.3393,-3.2904,-3.2469,-3.2216,-3.2723,-3.3013,-3.3013,-3.3013,-3.314,-3.3393,-3.3393,-3.3393,-3.3393,-3.3393,-3.3393,-3.3393,-3.3393,-3.3422,-5.0108,-4.8834,-4.7684,-4.8423,-4.7799,-4.743,-4.9037,-4.9876,-5.0302,-5.0302,-5.0302,-5.0054,-4.9232,-4.9091,-4.8793,-4.7922,-4.7769,-4.7769,-4.7769,-4.7035,-4.65,-4.65,-4.562,-4.49,-4.463,-4.4486,-4.4277,-4.4036,-4.3945,-4.3883,-4.3786,-4.2892,-4.2,-4.1113,-4.0304,-3.9515,-3.8707,-3.8707,-3.8707,-3.8707,-3.8707,-3.9129,-3.9918,-4.0726,-4.0653,-3.9918,-4.0728,-4.0616,-3.9882,-3.9882,-3.9423,-3.8707,-3.8707,-3.8707,-3.8707,-3.8707,-3.8866,-3.9142,-3.9414,-3.967,-3.9933,-4.0215,-4.0282,-4.0129,-3.926,-3.8992,-3.8629,-3.6978,-3.65,-3.629,-3.5411,-3.5201,-3.5411,-3.6271,-3.5817,-3.5191,-3.5101,-3.5038,-3.4955,-3.4819,-3.4687,-3.4506,-3.4245,-3.4036,-3.3815,-3.3633,-3.3534,-3.3481,-3.3408,-3.3393,-3.3393,-3.3393,-3.3393,-3.3393,-3.3393,-3.3393,-3.3049,-3.2252,-3.218,-3.218,-3.218,-3.2198,-3.2578,-3.3375,-3.3393,-3.3393,-3.3393,-3.3393,-3.3393,-3.3393,-3.3393,-3.3393,-5.0107,-4.9273,-4.8444,-4.856,-4.8257,-4.8191,-4.9232,-4.989,-5.0474,-5.1085,-5.0741,-4.9862,-4.8449,-4.82,-4.7704,-4.6271,-4.6042,-4.6042,-4.6042,-4.5812,-4.566,-4.566,-4.5311,-4.4984,-4.477,-4.4617,-4.4476,-4.4289,-4.4181,-4.3784,-4.3067,-4.2134,-4.1217,-4.0267,-3.9478,-3.8946,-3.8707,-3.8707,-3.8707,-3.8707,-3.8707,-3.8817,-3.9056,-3.9313,-3.9276,-3.9074,-3.9313,-3.9276,-3.9056,-3.9056,-3.8927,-3.8707,-3.8707,-3.8707,-3.8707,-3.8707,-3.8855,-3.9064,-3.9285,-3.952,-3.9804,-4.0067,-3.9786,-3.9271,-3.9059,-3.8144,-3.7059,-3.6508,-3.5929,-3.536,-3.5058,-3.4992,-3.5085,-3.5482,-3.5361,-3.5092,-3.4973,-3.4879,-3.472,-3.4494,-3.4344,-3.4173,-3.3959,-3.3793,-3.3647,-3.3495,-3.3437,-3.3422,-3.3393,-3.3393,-3.3393,-3.3393,-3.3393,-3.3393,-3.3393,-3.2886,-3.2451,-3.2216,-3.1143,-3.0781,-3.1329,-3.189,-3.2306,-3.2542,-3.3103,-3.3393,-3.3393,-3.3393,-3.3393,-3.3393,-3.3393,-3.3393,-5.0522,-4.9984,-4.9374,-4.9576,-4.9262,-4.9076,-4.9781,-5.015,-5.0478,-5.0971,-5.0417,-4.9404,-4.8056,-4.7521,-4.6844,-4.5507,-4.5307,-4.5307,-4.5307,-4.5307,-4.5297,-4.5256,-4.517,-4.5038,-4.4869,-4.448,-4.419,-4.4049,-4.3618,-4.3053,-4.2325,-4.139,-4.0563,-3.9916,-3.9129,-3.8707,-3.8707,-3.8707,-3.8707,-3.8707,-3.8707,-3.8707,-3.8707,-3.8707,-3.8707,-3.8707,-3.8707,-3.8707,-3.8707,-3.8707,-3.8707,-3.8707,-3.8707,-3.8707,-3.8707,-3.8707,-3.881,-3.8979,-3.917,-3.9195,-3.9168,-3.944,-3.9003,-3.8337,-3.8067,-3.7239,-3.6281,-3.5855,-3.5325,-3.486,-3.4763,-3.4743,-3.4803,-3.5037,-3.5029,-3.4936,-3.4811,-3.4678,-3.4487,-3.4225,-3.4087,-3.3959,-3.3766,-3.3633,-3.352,-3.3408,-3.3393,-3.3393,-3.3393,-3.3393,-3.3393,-3.3393,-3.3393,-3.3393,-3.3393,-3.2958,-3.2542,-3.2216,-3.1288,-3.0835,-3.0998,-3.1148,-3.1546,-3.218,-3.2687,-3.3085,-3.3393,-3.3393,-3.3393,-3.3393,-3.3393,-3.3393,-5.1013,-5.0653,-5.017,-5.1005,-5.0542,-5.0015,-5.0392,-5.0389,-5.0286,-5.0218,-4.9614,-4.8812,-4.7857,-4.7035,-4.6233,-4.543,-4.5307,-4.5307,-4.5307,-4.5297,-4.5275,-4.5203,-4.5148,-4.5019,-4.4825,-4.4161,-4.3632,-4.344,-4.2618,-4.1969,-4.1642,-4.0713,-4.0089,-3.9806,-3.9074,-3.8707,-3.8707,-3.8707,-3.8707,-3.8707,-3.8707,-3.8707,-3.8707,-3.8707,-3.8707,-3.8707,-3.8707,-3.8707,-3.8707,-3.8707,-3.8707,-3.8707,-3.8707,-3.8707,-3.8707,-3.8707,-3.878,-3.8906,-3.8957,-3.8667,-3.8293,-3.8409,-3.8,-3.7328,-3.6658,-3.6337,-3.5979,-3.5116,-3.4782,-3.4643,-3.4508,-3.4475,-3.4529,-3.4792,-3.481,-3.4737,-3.4583,-3.4461,-3.4281,-3.4023,-3.3908,-3.382,-3.3619,-3.352,-3.3466,-3.3408,-3.3393,-3.3393,-3.3393,-3.3393,-3.3393,-3.3393,-3.3393,-3.3393,-3.3393,-3.3393,-3.3085,-3.2361,-3.2234,-3.1872,-3.1143,-3.0418,-3.0708,-3.2162,-3.227,-3.2669,-3.3393,-3.3393,-3.3393,-3.3393,-3.3393,-3.3393,-4.9972,-4.9745,-4.9432,-5.0907,-5.1009,-5.0542,-4.9811,-4.9606,-4.9494,-4.9381,-4.9224,-4.8621,-4.7073,-4.6634,-4.6233,-4.543,-4.5307,-4.5307,-4.5307,-4.5246,-4.5213,-4.5203,-4.5148,-4.4844,-4.4174,-4.3965,-4.3577,-4.2917,-4.2488,-4.1857,-4.0959,-4.0561,-3.9926,-3.8998,-3.8799,-3.8707,-3.8707,-3.8707,-3.8707,-3.8707,-3.8707,-3.8707,-3.8707,-3.8707,-3.8707,-3.8707,-3.8707,-3.8707,-3.8707,-3.8707,-3.8707,-3.8707,-3.8707,-3.8707,-3.8707,-3.8707,-3.875,-3.8744,-3.8186,-3.8034,-3.7991,-3.7565,-3.6939,-3.6326,-3.6273,-3.5723,-3.5065,-3.4745,-3.4583,-3.4424,-3.4298,-3.4262,-3.4274,-3.4333,-3.442,-3.445,-3.4305,-3.4185,-3.4011,-3.3739,-3.3671,-3.3619,-3.3466,-3.3422,-3.3408,-3.3393,-3.3393,-3.3393,-3.3393,-3.3393,-3.3393,-3.3393,-3.3393,-3.3393,-3.3393,-3.3393,-3.3339,-3.3158,-3.2542,-3.2125,-3.1944,-3.1781,-3.1836,-3.218,-3.2814,-3.323,-3.3393,-3.3393,-3.3393,-3.3393,-3.3393,-3.3393,-4.9135,-4.9457,-4.972,-5.0995,-5.0889,-5.03,-4.9641,-4.9102,-4.8557,-4.7977,-4.7857,-4.757,-4.6672,-4.6194,-4.5793,-4.5383,-4.5307,-4.5307,-4.5307,-4.5275,-4.5213,-4.5159,-4.4782,-4.4338,-4.3844,-4.3106,-4.2474,-4.2068,-4.1472,-4.0854,-4.0165,-3.9965,-3.9523,-3.8765,-3.875,-3.8735,-3.8707,-3.8707,-3.8707,-3.8707,-3.8707,-3.8707,-3.8707,-3.8707,-3.8707,-3.8707,-3.8707,-3.8707,-3.8707,-3.8707,-3.8707,-3.8707,-3.8707,-3.8707,-3.8652,-3.8267,-3.815,-3.8066,-3.7301,-3.6874,-3.6623,-3.6379,-3.5799,-3.5246,-3.5352,-3.5028,-3.4572,-3.445,-3.4305,-3.4173,-3.4049,-3.4011,-3.4011,-3.4011,-3.4136,-3.4233,-3.4124,-3.4023,-3.3881,-3.3661,-3.3605,-3.3549,-3.3422,-3.3393,-3.3393,-3.3393,-3.3393,-3.3393,-3.3393,-3.3393,-3.3393,-3.3393,-3.3393,-3.3393,-3.3393,-3.3393,-3.3393,-3.3393,-3.3013,-3.2777,-3.2777,-3.2777,-3.2596,-3.2198,-3.2614,-3.3013,-3.3393,-3.3393,-3.3393,-3.3393,-3.3393,-3.3393,-4.8374,-4.9328,-5.0296,-5.1106,-5.0596,-4.9812,-4.9468,-4.8602,-4.7597,-4.6515,-4.6405,-4.6462,-4.6328,-4.5755,-4.5307,-4.5307,-4.5307,-4.525,-4.5105,-4.5201,-4.514,-4.4725,-4.4208,-4.3726,-4.3327,-4.2071,-4.122,-4.1079,-4.0331,-3.9781,-3.9551,-3.9401,-3.9165,-3.8833,-3.8818,-3.8777,-3.8707,-3.8707,-3.8707,-3.8707,-3.8707,-3.8707,-3.8707,-3.8707,-3.8707,-3.8707,-3.8707,-3.8707,-3.8707,-3.8707,-3.8707,-3.8707,-3.8707,-3.8707,-3.8597,-3.7804,-3.7492,-3.7364,-3.6413,-3.5676,-3.5204,-3.518,-3.4785,-3.4363,-3.4428,-3.4394,-3.4316,-3.4197,-3.4074,-3.3947,-3.3829,-3.3807,-3.3807,-3.3807,-3.3921,-3.4036,-3.3972,-3.3921,-3.3834,-3.3647,-3.3577,-3.352,-3.3408,-3.3393,-3.3393,-3.3393,-3.3393,-3.3393,-3.3393,-3.3393,-3.3393,-3.3393,-3.3393,-3.3393,-3.3393,-3.3393,-3.3393,-3.3393,-3.3393,-3.3393,-3.3393,-3.3393,-3.3085,-3.2415,-3.2415,-3.2723,-3.3393,-3.3393,-3.3393,-3.3393,-3.3393,-3.3393,-4.7526,-4.8905,-5.0296,-5.1106,-5.0583,-4.9648,-4.8695,-4.7747,-4.6759,-4.5684,-4.6003,-4.629,-4.5583,-4.5373,-4.5307,-4.5307,-4.5307,-4.5029,-4.4274,-4.4777,-4.4669,-4.3198,-4.3493,-4.3236,-4.1751,-4.1366,-4.093,-4.0224,-3.9957,-3.9781,-3.9682,-3.9489,-3.9259,-3.8989,-3.8921,-3.8822,-3.8707,-3.8707,-3.8707,-3.8707,-3.8707,-3.8707,-3.8707,-3.8707,-3.8707,-3.8707,-3.8707,-3.8707,-3.8707,-3.8707,-3.8707,-3.8707,-3.8707,-3.8707,-3.8597,-3.7804,-3.7492,-3.729,-3.5701,-3.5188,-3.5086,-3.4404,-3.4179,-3.4161,-3.4233,-3.4179,-3.4124,-3.4049,-3.3972,-3.3895,-3.3815,-3.3807,-3.3807,-3.3807,-3.3815,-3.3847,-3.3815,-3.3815,-3.378,-3.3633,-3.3509,-3.3408,-3.3393,-3.3393,-3.3393,-3.3393,-3.3393,-3.3393,-3.3393,-3.3393,-3.3393,-3.3393,-3.3393,-3.3393,-3.3393,-3.3393,-3.3393,-3.3393,-3.3393,-3.3393,-3.3393,-3.3393,-3.3357,-3.3248,-3.3248,-3.3284,-3.3393,-3.3393,-3.3393,-3.3393,-3.3393,-3.3393,-4.7354,-4.8105,-4.8855,-4.9683,-4.92,-4.8341,-4.7753,-4.6892,-4.6069,-4.5477,-4.5638,-4.5751,-4.5375,-4.5307,-4.5307,-4.5307,-4.4895,-4.4437,-4.4045,-4.392,-4.3564,-4.2789,-4.2563,-4.2148,-4.1374,-4.0797,-4.0328,-3.9981,-3.9889,-3.9815,-3.9705,-3.9551,-3.9337,-3.9073,-3.895,-3.8855,-3.8707,-3.8707,-3.8707,-3.8707,-3.8707,-3.8707,-3.8707,-3.8707,-3.8707,-3.8707,-3.8707,-3.8707,-3.8707,-3.8707,-3.8707,-3.8707,-3.8707,-3.8707,-3.856,-3.7276,-3.6831,-3.6593,-3.4908,-3.4371,-3.4357,-3.3997,-3.3908,-3.3934,-3.3972,-3.3959,-3.3921,-3.3895,-3.3855,-3.3847,-3.382,-3.3807,-3.3807,-3.3807,-3.3807,-3.3807,-3.3807,-3.3807,-3.3766,-3.3633,-3.3477,-3.3393,-3.3393,-3.3393,-3.3393,-3.3393,-3.3393,-3.3393,-3.3393,-3.3393,-3.3393,-3.3393,-3.3367,-3.3367,-3.3411,-3.3367,-3.3367,-3.3411,-3.3393,-3.3393,-3.3393,-3.3393,-3.3393,-3.3393,-3.3393,-3.3393,-3.3393,-3.3393,-3.3393,-3.3393,-3.3393,-3.3393,-4.7356,-4.7561,-4.773,-4.8584,-4.8087,-4.7354,-4.715,-4.6375,-4.5629,-4.5428,-4.54,-4.5381,-4.5319,-4.5328,-4.5241,-4.501,-4.4418,-4.3854,-4.3414,-4.3042,-4.2621,-4.2161,-4.1691,-4.1286,-4.1024,-4.0323,-3.99,-3.99,-3.99,-3.9867,-3.977,-3.9611,-3.9401,-3.9142,-3.8979,-3.8822,-3.8658,-3.8673,-3.8707,-3.8707,-3.8707,-3.8707,-3.8707,-3.8707,-3.8707,-3.8707,-3.8707,-3.8707,-3.8707,-3.8707,-3.8707,-3.8707,-3.8707,-3.8707,-3.8505,-3.689,-3.6303,-3.6064,-3.4376,-3.3807,-3.3807,-3.3807,-3.3807,-3.3807,-3.3807,-3.3807,-3.3807,-3.3807,-3.3807,-3.3807,-3.3807,-3.3807,-3.3807,-3.3807,-3.3807,-3.3807,-3.3807,-3.378,-3.3726,-3.3633,-3.3477,-3.3393,-3.3393,-3.3393,-3.3393,-3.3393,-3.3393,-3.3393,-3.3393,-3.3393,-3.3378,-3.3382,-3.3322,-3.3307,-3.3319,-3.3307,-3.3307,-3.3367,-3.3396,-3.3393,-3.3393,-3.3393,-3.3393,-3.3393,-3.3393,-3.3393,-3.3393,-3.3393,-3.3393,-3.3393,-3.3393,-3.3393,-4.7356,-4.7606,-4.7799,-4.8606,-4.8083,-4.7349,-4.7162,-4.6376,-4.565,-4.5438,-4.54,-4.541,-4.5389,-4.5379,-4.5091,-4.4208,-4.4025,-4.3452,-4.1839,-4.2316,-4.2221,-4.0607,-4.1006,-4.1078,-4.024,-4.0003,-3.99,-3.99,-3.99,-3.99,-3.9889,-3.9712,-3.9464,-3.9197,-3.9007,-3.8773,-3.851,-3.8643,-3.8707,-3.8707,-3.8707,-3.8707,-3.8707,-3.8707,-3.8707,-3.8707,-3.8707,-3.8707,-3.8707,-3.8707,-3.8707,-3.8707,-3.8707,-3.8707,-3.8505,-3.689,-3.6303,-3.6064,-3.4376,-3.3807,-3.3807,-3.3807,-3.3807,-3.3807,-3.3807,-3.3807,-3.3807,-3.3807,-3.3807,-3.3807,-3.3807,-3.3807,-3.3807,-3.3807,-3.3807,-3.3807,-3.3807,-3.3698,-3.3619,-3.3605,-3.3477,-3.3393,-3.3393,-3.3393,-3.3393,-3.3393,-3.3393,-3.3393,-3.3393,-3.3393,-3.3382,-3.3307,-3.3292,-3.3262,-3.3117,-3.3229,-3.331,-3.3292,-3.3367,-3.3393,-3.3393,-3.3393,-3.3393,-3.3393,-3.3393,-3.3393,-3.3393,-3.3393,-3.3393,-3.3393,-3.3393,-3.3393,-4.6682,-4.6366,-4.5992,-4.6296,-4.6084,-4.5741,-4.5545,-4.5622,-4.5715,-4.5566,-4.5522,-4.5523,-4.5477,-4.5429,-4.5273,-4.4906,-4.394,-4.3023,-4.2412,-4.1686,-4.0969,-4.0358,-4.0462,-4.044,-4.0125,-3.9984,-3.99,-3.99,-3.99,-3.99,-3.99,-3.9658,-3.9439,-3.921,-3.8964,-3.8728,-3.8491,-3.8624,-3.8707,-3.8707,-3.8707,-3.8707,-3.8707,-3.8707,-3.8707,-3.8707,-3.8707,-3.8707,-3.8707,-3.8707,-3.8707,-3.8707,-3.8707,-3.8707,-3.8505,-3.689,-3.6303,-3.6064,-3.4376,-3.3807,-3.3807,-3.3807,-3.3807,-3.3807,-3.3807,-3.3807,-3.3807,-3.3807,-3.3807,-3.3807,-3.3807,-3.3807,-3.3807,-3.3807,-3.3766,-3.3739,-3.3739,-3.3657,-3.3591,-3.3534,-3.3466,-3.3393,-3.3393,-3.3393,-3.3393,-3.3393,-3.3393,-3.3393,-3.3393,-3.3367,-3.3292,-3.318,-3.3008,-3.293,-3.2979,-3.3011,-3.3091,-3.3183,-3.3319,-3.3393,-3.3393,-3.3393,-3.3393,-3.3393,-3.3393,-3.3393,-3.3393,-3.3393,-3.3393,-3.3393,-3.3393,-3.3393,-4.6296,-4.5883,-4.5372,-4.5072,-4.496,-4.486,-4.4696,-4.5056,-4.5452,-4.5594,-4.5629,-4.5614,-4.5513,-4.5467,-4.5227,-4.4573,-4.3531,-4.2603,-4.2049,-4.0989,-4.0301,-4.0301,-4.0176,-4.0106,-4.0106,-3.9984,-3.99,-3.99,-3.99,-3.99,-3.99,-3.9647,-3.9363,-3.905,-3.8773,-3.8559,-3.843,-3.8562,-3.8624,-3.8624,-3.8673,-3.8707,-3.8689,-3.8414,-3.8432,-3.8689,-3.8414,-3.845,-3.8707,-3.8707,-3.8707,-3.8707,-3.8707,-3.8524,-3.812,-3.678,-3.6101,-3.5679,-3.4284,-3.3807,-3.3807,-3.3807,-3.3807,-3.3807,-3.3807,-3.3807,-3.3807,-3.3807,-3.3807,-3.3807,-3.3807,-3.3807,-3.3807,-3.3807,-3.3753,-3.3684,-3.3671,-3.3601,-3.3549,-3.3506,-3.3452,-3.3393,-3.3393,-3.3393,-3.3393,-3.3393,-3.3393,-3.3378,-3.3367,-3.3322,-3.3198,-3.2993,-3.275,-3.262,-3.2688,-3.2753,-3.2884,-3.3024,-3.3256,-3.3393,-3.3393,-3.3393,-3.3393,-3.3393,-3.3393,-3.3393,-3.3393,-3.3393,-3.3393,-3.3393,-3.3393,-3.3393,0.0,0.0,0.0,-4.5189,-4.4909,-4.4848,-4.4783,-4.4671,-4.4763,-4.5507,-4.5657,-4.5637,-4.5522,-4.5504,-4.491,-4.312,-4.2833,-4.2259,-4.0616,-4.0358,-4.0358,-4.0339,-4.0233,-4.0164,-4.0144,-4.0022,-3.9938,-3.99,-3.99,-3.99,-3.99,-3.9635,-3.9245,-3.8723,-3.8437,-3.8307,-3.8307,-3.843,-3.851,-3.851,-3.8643,-3.8689,-3.8634,-3.786,-3.7933,-3.8615,-3.7841,-3.7951,-3.867,-3.867,-3.867,-3.867,-3.8652,-3.8138,-3.7364,-3.656,-3.5734,-3.4876,-3.4082,-3.3807,-3.3807,-3.3807,-3.3807,-3.3807,-3.3807,-3.3807,-3.3807,-3.3807,-3.3807,-3.3807,-3.3807,-3.3807,-3.3807,-3.3807,-3.3753,-3.3671,-3.3601,-3.3549,-3.3509,-3.3509,-3.3437,-3.3393,-3.3393,-3.3393,-3.3393,-3.3393,-3.3393,-3.3382,-3.3307,-3.331,-3.3137,-3.275,-3.2519,-3.2386,-3.2318,-3.2506,-3.2688,-3.29,-3.3214,-3.3393,-3.3393,-3.3393,-3.3393,-3.3393,-3.3393,-3.3393,-3.3393,-3.3393,-3.3393,-3.3393,-3.3393,-3.3393,-4.5521,0.0,0.0,0.0,0.0,0.0,-4.3867,-4.3786,-4.3945,-4.4684,-4.4797,-4.4938,-4.547,-4.5577,-4.5204,-4.4066,-4.38,-4.3369,-4.2269,-4.2106,-4.1877,-4.1246,-4.1646,-4.1729,-4.1097,-4.0967,-4.0637,-3.9938,-3.99,-3.99,-3.99,-3.9414,-3.9008,-3.8723,-3.8437,-3.8307,-3.8307,-3.843,-3.851,-3.851,-3.8643,-3.8395,-3.7823,-3.7603,-3.7621,-3.7823,-3.7603,-3.7621,-3.7841,-3.7841,-3.7841,-3.7768,-3.7184,-3.6817,-3.6523,-3.5665,-3.5206,-3.4876,-3.4082,-3.3807,-3.3807,-3.3807,-3.3807,-3.3807,-3.3807,-3.3807,-3.3807,-3.3807,-3.3807,-3.3807,-3.3807,-3.3807,-3.3807,-3.3807,-3.3712,-3.3615,-3.3605,-3.3506,-3.3422,-3.3422,-3.3408,-3.3393,-3.3393,-3.3393,-3.3393,-3.3393,-3.3393,-3.3378,-3.3382,-3.3244,-3.3088,-3.2866,-3.2538,-3.2352,-3.2439,-3.2539,-3.2705,-3.2948,-3.3244,-3.3393,-3.3393,-3.3393,-3.3393,-3.3393,-3.3393,-3.3393,-3.3393,-3.3393,-3.3393,-3.3393,-3.3393,-3.3393,-4.4605,-4.4466,-4.4248,-4.3377,0.0,0.0,-4.3042,-4.2977,-4.3112,-4.384,-4.3947,-4.4025,-4.4476,-4.4547,-4.4385,-4.3833,-4.4009,-4.3733,-4.2479,-4.2604,-4.2479,-4.16,-4.22,-4.237,-4.1471,-4.1341,-4.0916,-4.0019,-3.9911,-3.9856,-3.9747,-3.8982,-3.859,-3.8689,-3.8077,-3.7913,-3.8257,-3.8024,-3.7922,-3.7922,-3.7702,-3.7378,-3.6901,-3.66,-3.6652,-3.6978,-3.6597,-3.6652,-3.6978,-3.6597,-3.667,-3.696,-3.6468,-3.6083,-3.5697,-3.5188,-3.4784,-3.4417,-3.3972,-3.3807,-3.3807,-3.3807,-3.3807,-3.3807,-3.3807,-3.3807,-3.3807,-3.3807,-3.3807,-3.3807,-3.3807,-3.3807,-3.3775,-3.3766,-3.3671,-3.3591,-3.3563,-3.3481,-3.3393,-3.3393,-3.3393,-3.3393,-3.3393,-3.3393,-3.3393,-3.3393,-3.3393,-3.3396,-3.3367,-3.3259,-3.3104,-3.2916,-3.2622,-3.2472,-3.254,-3.2588,-3.2736,-3.2977,-3.3259,-3.3393,-3.3393,-3.3393,-3.3393,-3.3393,-3.3393,-3.3393,-3.3393,-3.3393,-3.3393,-3.3393,-3.3393,-3.3393,-4.3452,-4.3547,-4.3467,-4.2498,-4.2334,0.0,-4.2407,-4.2237,-4.227,-4.3001,-4.3112,-4.306,-4.3091,-4.3104,-4.3069,-4.3026,-4.366,-4.3586,-4.1961,-4.2517,-4.2757,-4.1887,-4.2497,-4.2638,-4.1759,-4.1609,-4.1233,-4.0338,-4.0122,-3.9894,-3.9526,-3.8488,-3.81,-3.8542,-3.7553,-3.7303,-3.7937,-3.7384,-3.7053,-3.6962,-3.6386,-3.6058,-3.593,-3.5306,-3.5426,-3.6101,-3.5334,-3.5445,-3.6101,-3.5316,-3.5463,-3.6156,-3.6064,-3.555,-3.4876,-3.4876,-3.4399,-3.3807,-3.3807,-3.3807,-3.3807,-3.3807,-3.3807,-3.3807,-3.3807,-3.3807,-3.3807,-3.3807,-3.3807,-3.3807,-3.3807,-3.3775,-3.378,-3.3712,-3.3629,-3.3577,-3.3506,-3.3452,-3.3393,-3.3393,-3.3393,-3.3393,-3.3393,-3.3393,-3.3393,-3.3393,-3.3393,-3.3382,-3.3307,-3.3292,-3.3201,-3.2948,-3.2753,-3.2639,-3.2655,-3.2703,-3.2814,-3.3024,-3.3256,-3.3393,-3.3393,-3.3393,-3.3393,-3.3393,-3.3393,-3.3393,-3.3393,-3.3393,-3.3393,-3.3393,-3.3393,-3.3393,-4.1986,-4.263,-4.3312,-4.1743,-4.1878,0.0,-4.2393,-4.1808,-4.1443,-4.2189,-4.2276,-4.2419,-4.2983,-4.3104,-4.3104,-4.3069,-4.3222,-4.3141,-4.2651,-4.3915,-4.4555,-4.3615,-4.4274,-4.4425,-4.3505,-4.3408,-4.3012,-4.2077,-4.1347,-4.0518,-3.9545,-3.8488,-3.784,-3.7731,-3.7262,-3.6761,-3.6256,-3.6824,-3.6778,-3.6124,-3.6112,-3.5765,-3.5121,-3.505,-3.5096,-3.5243,-3.5078,-3.5096,-3.5243,-3.5078,-3.5096,-3.5188,-3.4541,-3.4174,-3.4027,-3.4027,-3.3935,-3.3807,-3.3807,-3.3807,-3.3807,-3.3807,-3.3807,-3.3807,-3.3807,-3.3807,-3.3807,-3.3807,-3.3807,-3.3807,-3.3807,-3.3766,-3.3712,-3.3698,-3.3619,-3.3524,-3.3491,-3.3452,-3.3393,-3.3393,-3.3393,-3.3393,-3.3393,-3.3393,-3.3393,-3.3393,-3.3393,-3.3411,-3.3364,-3.3322,-3.3247,-3.3088,-3.293,-3.285,-3.2916,-3.293,-3.3024,-3.3232,-3.3352,-3.3393,-3.3393,-3.3393,-3.3393,-3.3393,-3.3393,-3.3393,-3.3393,-3.3393,-3.3393,-3.3393,-3.3393,-3.3393,-4.1341,-4.175,-4.2196,-4.1314,-4.1426,0.0,0.0,-4.1365,-4.1097,-4.1393,-4.1406,-4.144,-4.1751,-4.1797,-4.1797,-4.1797,-4.2162,-4.2552,-4.2859,-4.402,-4.4643,-4.4114,-4.4822,-4.4973,-4.4033,-4.3916,-4.3338,-4.2001,-4.1513,-4.0734,-3.9564,-3.8109,-3.7354,-3.7507,-3.6406,-3.5802,-3.5804,-3.5833,-3.5647,-3.5263,-3.4976,-3.4629,-3.426,-3.4358,-3.4399,-3.4399,-3.4399,-3.4399,-3.4399,-3.4399,-3.4399,-3.4362,-3.3972,-3.3807,-3.3807,-3.3807,-3.3807,-3.3807,-3.3807,-3.3807,-3.3807,-3.3807,-3.3807,-3.3807,-3.3807,-3.3807,-3.3807,-3.3807,-3.3807,-3.3775,-3.3766,-3.3726,-3.3684,-3.3619,-3.3549,-3.3495,-3.3452,-3.3422,-3.3393,-3.3393,-3.3393,-3.3393,-3.3393,-3.3393,-3.3393,-3.3393,-3.3393,-3.3393,-3.3393,-3.3367,-3.3319,-3.3256,-3.318,-3.315,-3.3198,-3.3196,-3.3241,-3.3352,-3.3382,-3.3393,-3.3393,-3.3393,-3.3393,-3.3393,-3.3393,-3.3393,-3.3393,-3.3393,-3.3393,-3.3393,-3.3393,-3.3393,-4.091,-4.0985,-4.102,-4.0709,-4.0737,-4.0797,0.0,0.0,0.0,-4.0565,-4.0603,-4.0602,-4.0327,-4.04,-4.0458,-4.0285,-4.0989,-4.1838,-4.2642,-4.3372,-4.3893,-4.4087,-4.4862,-4.5033,-4.4093,-4.3946,-4.3177,-4.1445,-4.1298,-4.0768,-3.9576,-3.7729,-3.6867,-3.7268,-3.5678,-3.4989,-3.5333,-3.4989,-3.4679,-3.4371,-3.3862,-3.3605,-3.3605,-3.3739,-3.3807,-3.3807,-3.3807,-3.3807,-3.3807,-3.3807,-3.3807,-3.3807,-3.3807,-3.3807,-3.3807,-3.3807,-3.3807,-3.3807,-3.3807,-3.3807,-3.3807,-3.3807,-3.3807,-3.3807,-3.3807,-3.3793,-3.378,-3.378,-3.378,-3.3753,-3.3684,-3.3671,-3.3629,-3.352,-3.3495,-3.3466,-3.3408,-3.3393,-3.3393,-3.3393,-3.3393,-3.3393,-3.3393,-3.3393,-3.3411,-3.3364,-3.3349,-3.3334,-3.3334,-3.3334,-3.3349,-3.3382,-3.3378,-3.3393,-3.3393,-3.3393,-3.3393,-3.3393,-3.3393,-3.3393,-3.3393,-3.3393,-3.3393,-3.3393,-3.3393,-3.3393,-3.3393,-3.3393,-3.3393,-3.3393,-3.3393,-3.3393,-4.0239,-4.0552,-4.0748,-3.9264,-3.9429,-3.9722,-3.8909,0.0,-3.9719,-3.9594,0.0,-4.0361,-3.9588,0.0,0.0,-3.9554,-4.0131,-4.095,-4.1808,-4.2011,-4.2584,-4.3934,-4.4862,-4.5033,-4.4093,-4.3935,-4.3198,-4.1529,-4.1322,-4.0809,-3.9656,-3.7754,-3.6607,-3.6438,-3.5933,-3.5007,-3.3701,-3.4989,-3.495,-3.3538,-3.3589,-3.3605,-3.3605,-3.3739,-3.3807,-3.3807,-3.3807,-3.3807,-3.3807,-3.3807,-3.3807,-3.3807,-3.3807,-3.3807,-3.3807,-3.3807,-3.3807,-3.3807,-3.3807,-3.3807,-3.3807,-3.3807,-3.3807,-3.3807,-3.3807,-3.3766,-3.3712,-3.3712,-3.3671,-3.3633,-3.3601,-3.3563,-3.352,-3.3491,-3.3452,-3.3408,-3.3393,-3.3393,-3.3393,-3.3393,-3.3393,-3.3393,-3.3393,-3.3393,-3.3382,-3.3307,-3.3214,-3.3132,-3.3132,-3.3132,-3.318,-3.3292,-3.3367,-3.3393,-3.3393,-3.3393,-3.3393,-3.3393,-3.3393,-3.3393,-3.3393,-3.3393,-3.3393,-3.3393,-3.3393,-3.3393,-3.3393,-3.3393,-3.3393,-3.3393,-3.3393,-3.3393,-3.9795,-3.972,-3.9546,-3.9399,-3.9208,-3.8922,-3.8507,-3.8991,-3.9508,-3.9412,0.0,0.0,0.0,0.0,0.0,0.0,-4.0285,-4.0804,-4.1681,-4.1788,-4.2198,-4.3273,-4.3723,-4.379,-4.3348,-4.3699,-4.3248,-4.1531,-4.1376,-4.0859,-3.9708,-3.7779,-3.6586,-3.638,-3.5089,-3.4081,-3.3411,-3.4081,-3.4081,-3.3393,-3.3534,-3.3605,-3.3605,-3.3698,-3.3739,-3.3739,-3.3739,-3.3739,-3.3739,-3.3739,-3.3739,-3.3739,-3.3739,-3.3766,-3.3807,-3.3807,-3.3807,-3.3807,-3.3807,-3.3807,-3.3807,-3.3807,-3.3807,-3.3775,-3.3753,-3.3726,-3.3684,-3.3643,-3.3615,-3.3591,-3.3549,-3.352,-3.3495,-3.3452,-3.3408,-3.3393,-3.3393,-3.3393,-3.3396,-3.3352,-3.3274,-3.3211,-3.3165,-3.3289,-3.3349,-3.3214,-3.3037,-3.2925,-3.2977,-3.2959,-3.3006,-3.3165,-3.3319,-3.3393,-3.3393,-3.3393,-3.3393,-3.3393,-3.3393,-3.3393,-3.3393,-3.3393,-3.3393,-3.3393,-3.3393,-3.3393,-3.3393,-3.3393,-3.3393,-3.3393,-3.3393,-3.3393,-3.9243,-3.8978,-3.8615,-3.9064,-3.8653,-3.8057,-3.773,-3.8433,-3.9112,-3.9025,-3.9844,0.0,0.0,0.0,-4.0439,-4.0208,0.0,-4.0727,-4.1354,-4.145,-4.1726,-4.2485,-4.2755,-4.2766,-4.2479,-4.3195,-4.2965,-4.1226,-4.1073,-4.0676,-3.9777,-3.8003,-3.6941,-3.6735,-3.5195,-3.4172,-3.3737,-3.3954,-3.3846,-3.3393,-3.3534,-3.3591,-3.3577,-3.3657,-3.3684,-3.3671,-3.3684,-3.3684,-3.3671,-3.3684,-3.3684,-3.3671,-3.3684,-3.3726,-3.378,-3.3775,-3.3807,-3.3807,-3.3807,-3.3807,-3.3807,-3.3807,-3.3793,-3.3766,-3.3712,-3.3671,-3.3647,-3.3591,-3.3563,-3.3534,-3.3495,-3.3481,-3.3466,-3.3408,-3.3393,-3.3393,-3.3393,-3.3393,-3.3382,-3.3277,-3.3117,-3.299,-3.2916,-3.3088,-3.318,-3.2993,-3.2798,-3.2702,-3.2787,-3.2768,-3.283,-3.3055,-3.3274,-3.3393,-3.3393,-3.3393,-3.3393,-3.3393,-3.3393,-3.3393,-3.3393,-3.3393,-3.3393,-3.3393,-3.3393,-3.3393,-3.3393,-3.3393,-3.3393,-3.3393,-3.3393,-3.3393,-3.8441,-3.8468,-3.8313,-3.7572,-3.7312,-3.6985,-3.6013,-3.705,-3.8208,-3.8082,-3.9361,-4.0265,-3.9477,-3.9977,-4.0246,-3.9477,-3.9996,0.0,0.0,-4.0535,-4.0849,-4.1632,-4.2365,-4.2469,-4.1609,-4.2335,-4.2144,-4.0454,-4.0282,-4.0106,-3.9815,-3.8577,-3.7764,-3.7565,-3.7124,-3.6143,-3.4588,-3.5333,-3.4935,-3.3393,-3.3534,-3.3563,-3.3509,-3.3629,-3.3657,-3.3619,-3.3671,-3.3657,-3.3619,-3.3671,-3.3657,-3.3619,-3.3671,-3.3698,-3.3712,-3.378,-3.3807,-3.3807,-3.3807,-3.3807,-3.3807,-3.3807,-3.3766,-3.3698,-3.3698,-3.3619,-3.3509,-3.3491,-3.3452,-3.3411,-3.3393,-3.3393,-3.3393,-3.3393,-3.3393,-3.3393,-3.3393,-3.3393,-3.3334,-3.3132,-3.2941,-3.2765,-3.2655,-3.277,-3.2852,-3.2655,-3.2437,-3.2352,-3.2507,-3.2556,-3.2705,-3.2963,-3.3244,-3.3393,-3.3393,-3.3393,-3.3393,-3.3393,-3.3393,-3.3393,-3.3393,-3.3393,-3.3393,-3.3393,-3.3393,-3.3393,-3.3393,-3.3393,-3.3393,-3.3393,-3.3393,-3.3393,-3.7374,-3.7138,-3.6799,-3.7157,-3.674,-3.6312,-3.6463,-3.7337,-3.8273,-3.8768,-3.9727,-4.0419,-4.015,-4.0323,-4.0419,-4.015,-4.0323,-4.0496,0.0,-4.0511,-4.0595,-4.0869,-4.1559,-4.1657,-4.0777,-4.1457,-4.1476,-4.0377,-4.0272,-4.0147,-3.9889,-3.8657,-3.7867,-3.7673,-3.672,-3.5693,-3.4624,-3.4878,-3.448,-3.3393,-3.3495,-3.352,-3.3509,-3.3549,-3.3549,-3.3534,-3.3549,-3.3549,-3.3534,-3.3549,-3.3549,-3.3534,-3.3619,-3.3629,-3.3661,-3.3766,-3.3807,-3.3807,-3.3807,-3.3807,-3.3775,-3.3753,-3.3726,-3.3684,-3.3591,-3.3534,-3.3495,-3.3452,-3.3408,-3.3393,-3.3393,-3.3393,-3.3393,-3.3393,-3.3393,-3.3396,-3.3337,-3.3259,-3.3132,-3.2896,-3.2636,-3.2437,-3.2284,-3.2232,-3.2179,-3.2197,-3.2021,-3.1967,-3.2214,-3.2335,-3.2537,-3.29,-3.3196,-3.3393,-3.3393,-3.3393,-3.3393,-3.3393,-3.3393,-3.3393,-3.3393,-3.3393,-3.3393,-3.3393,-3.3393,-3.3393,-3.3393,-3.3393,-3.3393,-3.3393,-3.3393,-3.3393,-3.6018,-3.5946,-3.585,-3.6161,-3.5997,-3.5957,-3.674,-3.7524,-3.8324,-3.9126,-3.9938,-4.0496,-4.0496,-4.0496,-4.0496,-4.0496,-4.0496,-4.0496,0.0,-4.0511,-4.0507,-4.0507,-4.1154,-4.1255,-4.0384,-4.1026,-4.116,-4.0339,-4.0244,-4.0117,-3.9837,-3.8902,-3.8268,-3.8102,-3.7161,-3.6127,-3.5025,-3.5025,-3.448,-3.3393,-3.3466,-3.3495,-3.3466,-3.3495,-3.3495,-3.3466,-3.3495,-3.3495,-3.3466,-3.3495,-3.3495,-3.3481,-3.3563,-3.3605,-3.3619,-3.3753,-3.3807,-3.3807,-3.3807,-3.3793,-3.3766,-3.3712,-3.3657,-3.3601,-3.352,-3.3495,-3.3452,-3.3408,-3.3393,-3.3393,-3.3393,-3.3393,-3.3393,-3.3393,-3.3393,-3.3364,-3.3244,-3.3101,-3.2894,-3.2603,-3.23,-3.2038,-3.1911,-3.1726,-3.1653,-3.1822,-3.173,-3.1728,-3.1965,-3.2109,-3.2352,-3.2753,-3.3104,-3.3319,-3.3393,-3.3393,-3.3393,-3.3393,-3.3393,-3.3393,-3.3393,-3.3393,-3.3393,-3.3393,-3.3393,-3.3393,-3.3393,-3.3393,-3.3393,-3.3393,-3.3393,-3.3393]},{"header":{"parameterUnit":"m.s-1","parameterCategory":1,"la1":30.6,"la2":29.2853,"lo1":-89.7004,"lo2":-87.6739,"dy":0.0162,"dx":0.0183,"nx":112,"ny":82,"refTime":"2026-04-30T00:00:00:Z","depth":0,"parameterNumber":3,"parameterNumberName":"V-component_of_WINDS"},"data":[0.0,0.0,0.0,0.0,0.0,0.0,0.0,0.0,0.0,0.0,0.0,0.0,0.0,0.0,0.0,0.0,0.0,0.0,0.0,0.0,0.0,0.0,0.0,0.0,0.0,0.0,0.0,0.0,0.0,0.0,0.0,0.0,0.0,0.0,0.0,0.0,0.0,0.0,0.0,0.0,0.0,0.0,0.0,0.0,0.0,0.0,0.0,0.0,0.0,0.0,0.0,0.0,0.0,0.0,0.0,0.0,0.0,0.0,0.0,0.0,0.0,0.0,0.0,0.0,0.0,0.0,0.0,0.0,0.0,0.0,0.0,0.0,0.0,0.0,0.0,0.0,0.0,0.0,0.0,0.0,0.0,0.0,0.0,0.0,0.0,0.0,0.0,0.0,0.0,0.0,-0.6556,-0.6912,-0.7821,-0.8391,-0.8391,-0.8776,-0.8891,-0.8578,0.0,0.0,0.0,0.0,0.0,0.0,0.0,0.0,0.0,0.0,0.0,0.0,0.0,0.0,0.0,0.0,0.0,0.0,0.0,0.0,0.0,0.0,0.0,0.0,0.0,0.0,0.0,0.0,0.0,0.0,0.0,0.0,0.0,0.0,0.0,0.0,0.0,0.0,0.0,0.0,0.0,0.0,0.0,0.0,0.0,0.0,0.0,0.0,0.0,0.0,0.0,0.0,0.0,0.0,0.0,0.0,0.0,0.0,0.0,0.0,0.0,0.0,0.0,0.0,0.0,0.0,0.0,0.0,0.0,0.0,0.0,0.0,0.0,0.0,0.0,0.0,0.0,0.0,0.0,0.0,0.0,0.0,0.0,0.0,0.0,0.0,0.0,0.0,0.0,0.0,0.0,0.0,0.0,0.0,0.0,0.0,0.0,0.0,0.0,0.0,0.0,0.0,0.0,0.0,-0.6131,-0.7117,-0.7845,-0.8199,-0.8199,-0.88,-0.8948,-0.8457,0.0,0.0,0.0,0.0,0.0,0.0,0.0,0.0,0.0,0.0,0.0,0.0,0.0,0.0,0.0,0.0,0.0,0.0,0.0,0.0,0.0,0.0,0.0,0.0,0.0,0.0,0.0,0.0,0.0,0.0,0.0,0.0,0.0,0.0,0.0,0.0,0.0,0.0,0.0,0.0,0.0,0.0,0.0,0.0,0.0,0.0,0.0,0.0,0.0,0.0,0.0,0.0,0.0,0.0,0.0,0.0,0.0,0.0,0.0,0.0,0.0,0.0,0.0,0.0,0.0,0.0,0.0,0.0,0.0,0.0,0.0,0.0,0.0,0.0,0.0,0.0,0.0,0.0,0.0,0.0,0.0,0.0,0.0,0.0,0.0,0.0,0.0,0.0,0.0,0.0,0.0,0.0,0.0,0.0,0.0,0.0,0.0,0.0,0.0,0.0,0.0,0.0,0.0,-0.511,-0.5703,-0.6917,-0.7719,-0.8172,-0.8172,-0.8744,-0.8854,-0.832,-0.8781,0.0,0.0,0.0,0.0,0.0,0.0,0.0,0.0,0.0,0.0,0.0,0.0,0.0,0.0,0.0,0.0,0.0,0.0,0.0,0.0,0.0,0.0,0.0,0.0,0.0,0.0,0.0,0.0,0.0,0.0,0.0,0.0,0.0,0.0,0.0,0.0,0.0,0.0,0.0,0.0,0.0,0.0,0.0,0.0,0.0,0.0,0.0,0.0,0.0,0.0,0.0,0.0,0.0,0.0,0.0,0.0,0.0,0.0,0.0,0.0,0.0,0.0,0.0,0.0,0.0,0.0,0.0,0.0,0.0,0.0,0.0,0.0,0.0,0.0,0.0,0.0,0.0,0.0,0.0,0.0,0.0,0.0,0.0,0.0,0.0,0.0,0.0,0.0,0.0,0.0,0.0,0.0,0.0,0.0,0.0,0.0,0.0,0.0,0.0,0.0,0.0,0.0,-0.4593,-0.516,-0.651,-0.7551,-0.8182,-0.8152,-0.8602,-0.8696,-0.8223,-0.8562,0.0,0.0,0.0,0.0,0.0,0.0,0.0,0.0,0.0,0.0,0.0,0.0,0.0,0.0,0.0,0.0,0.0,0.0,0.0,0.0,0.0,0.0,0.0,0.0,0.0,0.0,0.0,0.0,0.0,0.0,0.0,0.0,0.0,0.0,0.0,0.0,0.0,0.0,0.0,0.0,0.0,0.0,0.0,0.0,0.0,0.0,0.0,0.0,0.0,0.0,0.0,0.0,0.0,0.0,0.0,0.0,0.0,0.0,0.0,0.0,0.0,0.0,0.0,0.0,0.0,0.0,0.0,0.0,0.0,0.0,0.0,0.0,0.0,0.0,0.0,0.0,0.0,0.0,0.0,0.0,0.0,0.0,0.0,0.0,0.0,0.0,0.0,0.0,0.0,0.0,0.0,0.0,0.0,0.0,0.0,0.0,0.0,0.0,0.0,0.0,0.0,0.0,-0.3927,-0.452,-0.5978,-0.7311,-0.8081,-0.7905,-0.8331,-0.8496,-0.8211,-0.8429,0.0,0.0,0.0,0.0,0.0,0.0,0.0,0.0,0.0,0.0,0.0,0.0,0.0,0.0,0.0,0.0,0.0,0.0,0.0,0.0,0.0,0.0,0.0,0.0,0.0,0.0,0.0,0.0,0.0,0.0,0.0,0.0,0.0,0.0,0.0,0.0,0.0,0.0,0.0,0.0,0.0,0.0,0.0,0.0,0.0,0.0,0.0,0.0,0.0,0.0,0.0,0.0,0.0,0.0,0.0,0.0,0.0,0.0,0.0,0.0,0.0,0.0,0.0,0.0,0.0,0.0,0.0,0.0,0.0,0.0,0.0,0.0,0.0,0.0,0.0,0.0,0.0,0.0,0.0,0.0,0.0,0.0,0.0,0.0,0.0,0.0,0.0,0.0,0.0,0.0,0.0,0.0,0.0,0.0,0.0,0.0,0.0,0.0,0.0,0.0,0.0,0.0,-0.3394,-0.386,-0.534,-0.6672,-0.7505,-0.7577,-0.8113,-0.8317,-0.7962,0.0,0.0,0.0,0.0,0.0,0.0,0.0,0.0,0.0,0.0,0.0,0.0,0.0,0.0,0.0,0.0,0.0,0.0,0.0,0.0,0.0,0.0,0.0,0.0,0.0,0.0,0.0,0.0,0.0,0.0,0.0,0.0,0.0,0.0,0.0,0.0,0.0,0.0,0.0,0.0,0.0,0.0,0.0,0.0,0.0,0.0,0.0,0.0,0.0,0.0,0.0,0.0,0.0,0.0,0.0,0.0,0.0,0.0,0.0,0.0,0.0,0.0,0.0,0.0,0.0,0.0,0.0,0.0,0.0,0.0,0.0,0.0,0.0,0.0,0.0,0.0,0.0,0.0,0.0,0.0,0.0,0.0,0.0,0.0,0.0,0.0,0.0,0.0,0.0,0.0,0.0,0.0,0.0,0.0,0.0,0.0,0.0,0.0,0.0,0.0,0.0,0.0,-0.3072,-0.2813,-0.3192,-0.4553,-0.5853,-0.6794,-0.7055,-0.7755,-0.8019,-0.7699,0.0,0.0,0.0,0.0,0.0,0.0,0.0,0.0,0.0,0.0,0.0,0.0,0.0,0.0,0.0,0.0,0.0,0.0,0.0,0.0,0.0,0.0,0.0,0.0,0.0,0.0,0.0,0.0,0.0,0.0,0.0,0.0,0.0,0.0,0.0,0.0,0.0,0.0,0.0,0.0,0.0,0.0,0.0,0.0,0.0,0.0,0.0,0.0,0.0,0.0,0.0,0.0,0.0,0.0,0.0,0.0,0.0,0.0,0.0,0.0,0.0,0.0,0.0,0.0,0.0,0.0,0.0,0.0,0.0,0.0,0.0,0.0,0.0,0.0,0.0,0.0,0.0,0.0,0.0,0.0,0.0,0.0,0.0,0.0,0.0,0.0,0.0,0.0,0.0,0.0,0.0,0.0,0.0,0.0,0.0,0.0,0.0,0.0,0.0,0.0,0.0,0.0,-0.2743,-0.2305,-0.247,-0.3763,-0.4991,-0.5891,-0.6374,-0.7113,-0.7549,0.0,0.0,0.0,0.0,0.0,0.0,0.0,0.0,0.0,0.0,0.0,0.0,0.0,0.0,0.0,0.0,0.0,0.0,0.0,0.0,0.0,0.0,0.0,0.0,0.0,0.0,0.0,0.0,0.0,0.0,0.0,0.0,0.0,0.0,0.0,0.0,0.0,0.0,0.0,0.0,0.0,0.0,0.0,0.0,0.0,0.0,0.0,0.0,0.0,0.0,0.0,0.0,0.0,0.0,0.0,0.0,0.0,0.0,0.0,0.0,0.0,0.0,0.0,0.0,0.0,0.0,0.0,0.0,0.0,0.0,0.0,0.0,0.0,0.0,0.0,0.0,0.0,0.0,0.0,0.0,0.0,0.0,0.0,0.0,0.0,0.0,0.0,0.0,0.0,0.0,0.0,0.0,0.0,0.0,0.0,0.0,0.0,0.0,0.0,0.0,0.0,0.0,0.0,-0.2364,-0.1702,-0.1801,-0.3056,-0.429,-0.5309,-0.6034,-0.6927,-0.7414,-0.7284,0.0,0.0,0.0,0.0,0.0,0.0,0.0,0.0,0.0,0.0,0.0,0.0,0.0,0.0,0.0,0.0,0.0,0.0,0.0,0.0,0.0,0.0,0.0,0.0,0.0,0.0,0.0,0.0,0.0,0.0,0.0,0.0,0.0,0.0,0.0,0.0,0.0,0.0,0.0,0.0,0.0,0.0,0.0,0.0,0.0,0.0,0.0,0.0,0.0,0.0,0.0,0.0,0.0,0.0,0.0,0.0,0.0,0.0,0.0,0.0,0.0,0.0,0.0,0.0,0.0,0.0,0.0,0.0,0.0,0.0,0.0,0.0,0.0,0.0,0.0,0.0,0.0,0.0,0.0,0.0,0.0,0.0,0.0,0.0,0.0,0.0,0.0,0.0,0.0,0.0,0.0,0.0,0.0,0.0,0.0,0.0,0.0,0.0,0.0,0.0,0.0,0.0,-0.1997,-0.1165,-0.1078,-0.2306,-0.3517,-0.4638,-0.5581,-0.6626,-0.7155,-0.6872,0.0,0.0,0.0,0.0,0.0,0.0,0.0,0.0,0.0,0.0,0.0,0.0,0.0,0.0,0.0,0.0,0.0,0.0,0.0,0.0,0.0,0.0,0.0,0.0,0.0,0.0,0.0,0.0,0.0,0.0,0.0,0.0,0.0,0.0,0.0,0.0,0.0,0.0,0.0,0.0,0.0,0.0,0.0,0.0,0.0,0.0,0.0,0.0,0.0,0.0,0.0,0.0,0.0,0.0,0.0,0.0,0.0,0.0,0.0,0.0,0.0,0.0,0.0,0.0,0.0,0.0,0.0,0.0,0.0,0.0,0.0,0.0,0.0,0.0,0.0,0.0,0.0,0.0,0.0,0.0,0.0,0.0,0.0,0.0,0.0,0.0,0.0,0.0,0.0,0.0,0.0,0.0,0.0,0.0,0.0,0.0,0.0,0.0,0.0,0.0,0.0,0.0,-0.1697,-0.0648,-0.044,-0.1617,-0.2786,-0.3931,-0.5019,-0.6199,-0.6756,-0.6425,0.0,0.0,0.0,0.0,0.0,0.0,0.0,0.0,0.0,0.0,0.0,0.0,0.0,0.0,0.0,0.0,0.0,0.0,0.0,0.0,0.0,0.0,0.0,0.0,0.0,0.0,0.0,0.0,0.0,0.0,0.0,0.0,0.0,0.0,0.0,0.0,0.0,0.0,0.0,0.0,0.0,0.0,0.0,0.0,0.0,0.0,0.0,0.0,0.0,0.0,0.0,0.0,0.0,0.0,0.0,0.0,0.0,0.0,0.0,0.0,0.0465,0.0,0.0,0.0,0.0,0.0,0.0,0.0,0.0,0.0,0.0,0.0,0.0,0.0,0.0,0.0,0.0,0.0,0.0,0.0,0.0,0.0,0.0,0.0,0.0,0.0,0.0,0.0,0.0,0.0,0.0,0.0,0.0,0.0,0.0,0.0,0.0,0.0,0.0,0.0,0.0,0.0,-0.1409,-0.053,-0.0376,-0.1292,-0.226,-0.3275,-0.4386,-0.5435,-0.6096,-0.6231,-0.6531,0.0,0.0,0.0,0.0,0.0,0.0,0.0,0.0,0.0,0.0,0.0,0.0,0.0,0.0,0.0,0.0,0.0,0.0,0.0,0.0,0.0,0.0,0.0,0.0,0.0,0.0,0.0,0.0,0.0,0.0,0.0,0.0,0.0,0.0,0.0,0.0,0.0,0.0,0.0,0.0,0.0,0.0,0.0,0.0,0.0,0.0,0.0,0.0,0.0,0.0,0.0,0.0,0.0,0.0,0.0,0.0,0.0,0.0,0.0,0.1747,0.0896,0.0,0.0,0.0,0.0,0.0,0.0,0.0,0.0,0.0,0.0,0.0,0.0,0.0,0.0,0.0,0.0,0.0,0.0,0.0,0.0,0.0,0.0,0.0,0.0,0.0,0.0,0.0,0.0,0.0,0.0,0.0,0.0,0.0,0.0,0.0,0.0,0.0,0.0,0.0,0.0,-0.1089,-0.0419,-0.0264,-0.1011,-0.1755,-0.2649,-0.373,-0.4784,-0.5546,-0.5859,-0.6128,0.0,0.0,0.0,0.0,0.0,0.0,0.0,0.0,0.0,0.0,0.0,0.0,0.0,0.0,0.0,0.0,0.0,0.0,0.0,0.0,0.0,0.0,0.0,0.0,0.0,0.0,0.0,0.0,0.0,0.0,0.0,0.0,0.0,0.0,0.0,0.0,0.0,0.0,0.0,0.0,0.0,0.0,0.0,0.0,0.0,0.0,0.0,0.0,0.0,0.0,0.0,0.0,0.0,0.5992,0.5713,0.5714,0.5707,0.5713,0.5644,0.3836,0.261,0.1918,0.1544,0.0,0.0,0.0,0.0,0.0,0.0,0.0,0.0,0.0,0.0,0.0,0.0,0.0,0.0,0.0,0.0,0.0,0.0,0.0,0.0,0.0,0.0,0.0,0.0,0.0,0.0,0.0,0.0,0.0,0.0,0.0,0.0,0.0,0.0,0.0,0.0,0.0,0.0,-0.0773,-0.031,-0.0208,-0.0738,-0.1318,-0.2043,-0.2993,-0.4066,-0.4829,-0.523,-0.5519,-0.5678,0.0,0.0,0.0,0.0,0.0,0.0,0.0,0.0,0.0,0.0,0.0,0.0,0.0,0.0,0.0,0.0,0.0,0.0,0.0,0.0,0.0,0.0,0.0,0.0,0.0,0.0,0.0,0.0,0.0,0.0,0.0,0.0,1.007,1.0205,0.0,0.0,0.0,0.0,0.0,0.0,0.0,0.0,0.0,0.0,0.0,0.0,0.0,0.9459,0.9133,0.8494,0.7994,0.7628,0.724,0.7054,0.7065,0.7051,0.7054,0.7006,0.681,0.0,0.3762,0.2848,0.0,0.0,0.0,0.0,0.0,0.0,0.0,0.0,0.0,0.0,0.0,0.0,0.0,0.0,0.0,0.0,0.0,0.0,0.0,0.0,0.0,0.0,0.0,0.0,0.0,0.0,0.0,0.0,0.0,0.0,0.0,-0.0101,0.0,0.0,0.0,0.0,0.0,0.0,-0.0506,-0.0203,-0.0101,-0.0458,-0.0763,-0.127,-0.2126,-0.2933,-0.3632,-0.4169,-0.4624,-0.4822,-0.4793,-0.4627,0.0,0.0,0.0,0.0,0.0,0.0,0.0,0.0,0.0,0.0,0.0,0.0,0.0,0.0,0.0,0.0,0.0,0.0,0.0,0.0,0.0,0.0,0.0,0.0,0.0,0.0,0.0,0.0,0.0,1.0083,1.0205,1.0273,1.0219,1.0144,0.0,0.0,0.0,0.0,0.0,0.0,0.0,0.0,0.0,0.9852,0.9801,0.9686,0.9705,0.9532,0.9379,0.9188,0.9057,0.9029,0.9095,0.9026,0.9074,0.9205,0.9054,0.8306,0.6871,0.4745,0.321,0.2203,0.0,0.0,0.0,0.0,0.0,0.0,0.0,0.0,0.0,0.0,0.0,0.0,0.0,0.0,0.0,0.0,0.0,0.0,0.0,0.0,0.0,0.0,0.0,0.0,0.0,0.0,0.0,0.0,0.0103,0.0204,0.005,0.0099,0.0,0.0,0.0,0.0148,0.0252,0.0354,0.0404,0.0303,0.0051,-0.0404,-0.106,-0.1815,-0.252,-0.3077,-0.3513,-0.3754,-0.3726,-0.3531,-0.3453,0.0,0.0,0.0,0.0,0.0,0.0,0.0,0.0,0.0,0.0,0.0,0.0,0.0,0.0,0.0,0.0,0.0,0.0,0.0,0.0,0.0,0.0,0.0,0.0,0.0,0.0,0.0,0.0,1.0651,1.0841,1.0841,1.0649,1.0458,0.0,0.0,0.0,0.0,0.0,0.0,0.9984,0.9781,0.9771,0.9876,0.988,0.9954,1.0107,1.0222,1.028,1.028,1.0317,1.0371,1.0436,1.0368,1.0456,1.0649,1.0392,0.9958,0.9246,0.653,0.4747,0.3489,0.1988,0.1135,0.0707,0.0177,0.0,0.0,0.0,0.0,0.0,0.0,0.0,0.0,0.0,0.0,0.0,0.0,0.0,0.0,0.0,0.0,0.0,0.0,0.0056,0.0111,0.0109,0.0161,0.0158,0.0104,0.0259,0.041,0.0503,0.0644,0.0,0.0801,0.0793,0.0791,0.0806,0.0808,0.0808,0.0808,0.0553,0.0201,-0.0251,-0.0948,-0.1591,-0.2039,-0.2451,-0.2619,-0.2607,-0.2452,-0.2449,-0.2518,0.0,0.0,0.0,0.0,0.0,0.0,0.0,0.0,0.0,0.0,0.0,0.0,0.0,0.0,0.0,0.0,0.0,0.0,0.0,0.0,0.0,0.0,0.0,0.0,0.0,0.0,0.0,0.0,0.0,1.2215,1.1622,0.0,0.0,0.0,0.0,1.0266,1.0259,1.0198,0.9994,0.9974,0.9967,0.9974,0.9974,1.0048,1.0266,1.0276,1.028,1.0283,1.0415,1.0415,1.0293,1.0422,1.049,1.0493,1.0344,1.0082,0.9681,0.8092,0.6607,0.5107,0.3187,0.2026,0.1353,0.0353,0.0,0.0,0.0,0.0,0.0,0.0,0.0,0.0,0.0,0.0,0.0,0.0,0.0,0.0,0.0,0.0,0.0,0.0,0.0222,0.0382,0.0375,0.0579,0.0676,0.0416,0.041,0.0503,0.074,0.0,0.0786,0.0786,0.0786,0.0791,0.0806,0.0808,0.0808,0.0808,0.0547,0.0295,0.0,-0.0532,-0.0957,-0.1243,-0.1529,-0.1657,-0.1579,-0.1573,-0.1511,-0.1482,-0.1405,0.0,0.0,0.0,0.0,0.0,0.0,0.0,0.0,0.0,0.0,0.0,0.0,0.0,0.0,0.0,0.0,0.0,0.0,0.0,0.0,0.0,0.0,0.0,0.0,0.0,0.0,0.0,0.0,1.342,1.2692,0.0,1.1416,1.0749,1.0317,1.0409,1.0415,1.0436,1.0477,1.0388,1.0334,1.0334,1.0085,1.0014,1.0131,1.0036,0.9985,0.9985,1.0036,1.0086,1.0131,1.0083,1.0168,1.0341,1.0093,0.9977,0.9857,0.9184,0.7821,0.6067,0.4327,0.3118,0.2211,0.1017,0.0482,0.0304,0.0061,0.0,0.0,0.0,0.0,0.0,0.0,0.0,0.0,0.0,0.0,0.0,0.0,0.0,0.0,0.0,0.022,0.038,0.0422,0.0626,0.0828,0.092,0.0913,0.0958,0.1051,0.1188,0.1331,0.1298,0.1273,0.1262,0.1287,0.1276,0.1266,0.1266,0.1016,0.0819,0.0723,0.0383,0.0143,0.0048,-0.0048,-0.0095,-0.0094,-0.0093,-0.0092,-0.0046,-0.0044,-0.0043,0.0,0.0,0.0,0.0,0.0,0.0,0.0,0.0,0.0,0.0,0.0,0.0,0.0,0.0,0.0,0.0,0.0,0.0,0.0,0.0,0.0,0.0,0.0,0.0,0.0,1.5386,1.5698,1.4726,1.3726,1.2774,1.1888,1.1002,1.0466,1.0561,1.0568,1.0592,1.0639,1.0548,1.0446,1.0344,1.0088,0.9963,0.9909,0.9873,0.9822,0.9822,0.9873,0.9862,0.9909,0.9859,1.0008,1.0188,0.993,0.988,0.9889,0.971,0.8713,0.7215,0.5767,0.4533,0.3408,0.1864,0.1092,0.0674,0.0184,0.0,0.0,0.0,0.0,0.0,0.0,0.0,0.0,0.0,0.0,0.0,0.0,0.0,0.0,0.0,0.0271,0.0535,0.0522,0.0827,0.1128,0.1317,0.1263,0.1212,0.1314,0.15,0.159,0.16,0.1567,0.1545,0.1555,0.1538,0.1478,0.1478,0.128,0.1086,0.1086,0.0844,0.0701,0.0701,0.0701,0.0701,0.0701,0.0692,0.0687,0.0687,0.0709,0.0653,0.0609,0.0,0.0,0.0,0.0,0.0,0.0,0.0,0.0,0.0,0.0,0.0,0.0,0.0,0.0,0.0,0.0,0.0,0.0,0.0,0.0,0.0,0.0,0.0,1.6888,1.7104,1.7047,1.6169,1.4615,1.334,1.239,1.1317,1.0721,1.0721,1.0721,1.0656,1.0507,1.0493,1.0361,1.0011,0.9994,0.9916,0.9829,0.9822,0.9822,0.9822,0.9909,0.9903,0.9825,0.9909,0.9974,0.9963,0.9873,0.9808,0.9795,0.9652,0.9247,0.86,0.739,0.6215,0.4885,0.2986,0.1863,0.1143,0.0301,0.0,0.0,0.0,0.0,0.0,0.0,0.0,0.0,0.0,0.0,0.0,0.0,0.0,0.0,0.0,0.0426,0.0779,0.083,0.1228,0.1616,0.1615,0.1414,0.1312,0.1565,0.1615,0.1604,0.1575,0.1618,0.0,0.1528,0.1477,0.1476,0.1476,0.1262,0.1109,0.1109,0.0862,0.0718,0.0718,0.0718,0.0718,0.0718,0.0718,0.0718,0.0718,0.0704,0.061,0.0435,0.0,0.0,0.0,0.0,0.0,0.0,0.0,0.0,0.0,0.0,0.0,0.0,0.0,0.0,0.0,0.0,0.0,0.0,0.0,0.0,0.0,1.9051,1.8831,1.8211,1.9015,1.9138,1.7647,1.5929,1.4435,1.3153,1.1641,1.0721,1.0721,1.0721,1.0704,1.066,1.0551,1.0456,1.0375,1.0161,0.9967,0.9923,0.9876,0.9822,0.9822,0.9863,0.9863,0.9819,0.9758,0.973,0.9724,0.9568,0.9503,0.949,0.934,0.9228,0.8987,0.7938,0.6965,0.5921,0.4136,0.2462,0.0947,0.0468,0.0174,0.0,0.0,0.0,0.0,0.0,0.0,0.0,0.0,0.0,0.0,0.0,0.0,0.0054,0.0264,0.0575,0.0828,0.1072,0.1369,0.161,0.1588,0.1535,0.1535,0.1584,0.1566,0.1548,0.154,0.152,0.1503,0.1494,0.1474,0.1414,0.1414,0.1362,0.1312,0.1312,0.126,0.1211,0.1211,0.1211,0.1211,0.1211,0.1211,0.1211,0.1211,0.1204,0.1103,0.0,0.0,0.0,0.0,0.0,0.0,0.0,0.0,0.0,0.0,0.0,0.0,0.0,0.0,0.0,0.0,0.0,0.0,0.0,0.0,0.0,0.0,2.0076,1.9959,1.9707,2.0239,2.003,1.8413,1.6522,1.4833,1.3407,1.1703,1.0721,1.0721,1.0721,1.0694,1.0626,1.0541,1.0436,1.031,1.0078,0.9957,0.9893,0.9866,0.9822,0.9822,0.9761,0.9734,0.9727,0.9581,0.9513,0.951,0.9418,0.9344,0.9337,0.9248,0.9173,0.9006,0.0,0.0,0.0,0.0,0.3247,0.1585,0.1156,0.0747,0.0401,0.0395,0.0279,0.0167,0.0167,0.011,0.0,0.0,0.0054,0.016,0.0162,0.0267,0.0368,0.052,0.0774,0.1024,0.1165,0.1406,0.1593,0.1624,0.1599,0.0,0.1582,0.1529,0.1522,0.1509,0.1492,0.1476,0.1463,0.1446,0.1391,0.1391,0.1391,0.1391,0.1391,0.1391,0.0,0.0,0.0,0.1391,0.1391,0.1391,0.0,0.0,0.0,0.0,0.0,0.0,0.0,0.0,0.0834,0.0927,0.0,0.0,0.0,0.0,0.0,0.0,0.0,0.0,0.0,0.0,0.0,0.0,0.0,0.0,0.0,0.0,2.0942,2.1109,2.1109,2.0856,2.0157,1.8734,1.6716,1.4898,1.3473,1.1769,1.0721,1.0721,1.0704,1.0636,1.05,1.046,0.0,0.0,0.0,0.9896,0.9822,0.9805,0.9795,0.9795,0.9652,0.9585,0.9578,0.9425,0.9354,0.9354,0.934,0.9256,0.9183,0.9183,0.9052,0.8885,0.8902,0.8507,0.7724,0.581,0.416,0.2799,0.2189,0.0,0.0,0.0956,0.072,0.0383,0.0382,0.0216,0.0,0.0053,0.0213,0.0424,0.0425,0.063,0.0828,0.0828,0.1023,0.1212,0.126,0.1441,0.1618,0.1611,0.1518,0.148,0.1476,0.1498,0.1506,0.148,0.1476,0.1466,0.1394,0.1391,0.1391,0.1391,0.1391,0.0,0.1391,0.1387,0.1385,0.1385,0.1383,0.1381,0.1381,0.1384,0.1385,0.1385,0.1389,0.1332,0.1132,0.1307,0.1307,0.1132,0.1153,0.124,0.0,0.0,0.0,0.0,0.0,0.0,0.0,0.0,0.0,0.0,0.0,0.0,0.0,0.0,0.0,2.0982,2.1076,2.1109,2.1109,2.1046,2.0475,1.9136,1.7098,1.5279,1.394,1.1905,1.0721,1.0721,1.0605,1.0524,1.0493,1.0266,1.0044,0.9987,0.9869,0.9849,0.9822,0.9707,0.9649,0.9649,0.9496,0.0,0.9418,0.9323,0.9255,0.9248,0.9076,0.9008,0.8981,0.8981,0.8908,0.8895,0.8785,0.8308,0.7554,0.6492,0.5295,0.4006,0.3155,0.231,0.1574,0.1326,0.0823,0.0382,0.0377,0.0212,0.0,0.0266,0.0366,0.0461,0.0676,0.0772,0.0863,0.1067,0.1165,0.1258,0.1486,0.1576,0.1605,0.1508,0.1489,0.1473,0.1448,0.1404,0.1406,0.14,0.1399,0.1397,0.1391,0.1391,0.1391,0.1391,0.1391,0.1391,0.1391,0.1413,0.1399,0.1399,0.1335,0.1322,0.1322,0.1386,0.1399,0.1399,0.1378,0.1376,0.1347,0.137,0.137,0.1347,0.1352,0.1365,0.0,0.0,0.0,0.0,0.0,0.0,0.0,0.0,0.0,0.0,0.0,2.0274,2.0428,0.0,2.0768,2.1062,2.0989,2.0942,2.1089,2.0982,2.0502,1.9501,1.7619,1.5934,1.452,1.2495,1.1185,1.0986,1.0644,1.046,1.0388,1.0171,0.9953,0.9876,0.9863,0.9788,0.9717,0.9646,0.9571,0.9493,0.934,0.9323,0.932,0.9113,0.9045,0.9042,0.8967,0.8885,0.8885,0.8885,0.8885,0.8888,0.8851,0.8552,0.8162,0.7446,0.6585,0.5644,0.4589,0.3563,0.2596,0.2083,0.146,0.0852,0.0844,0.0624,0.0411,0.057,0.0717,0.081,0.0971,0.1119,0.1212,0.1364,0.1405,0.1441,0.1575,0.1596,0.1517,0.1487,0.1468,0.1453,0.1393,0.1391,0.1391,0.1391,0.1391,0.1391,0.1391,0.1391,0.1391,0.1391,0.1422,0.1412,0.1412,0.1386,0.1369,0.1369,0.1313,0.1305,0.1305,0.1319,0.1369,0.1369,0.134,0.134,0.1369,0.1398,0.1449,0.1608,0.1581,0.1509,0.0,0.0,0.0,0.0,0.0,0.0,0.0,1.9593,1.98,1.98,2.0074,2.0394,2.0635,2.0722,2.0842,2.1069,2.0915,2.0842,2.1076,2.0909,2.0529,1.9871,1.8337,1.6716,1.5364,1.3346,1.1905,1.1442,1.0812,1.0399,1.0287,1.0103,0.9886,0.9825,0.9795,0.9727,0.9612,0.9551,0.9459,0.9337,0.9184,0.9169,0.9163,0.8991,0.8885,0.8885,0.8885,0.8885,0.8885,0.8885,0.8885,0.8885,0.8885,0.8885,0.8826,0.8322,0.7765,0.7093,0.6017,0.4854,0.3704,0.3036,0.2178,0.1453,0.1396,0.1074,0.0808,0.0859,0.101,0.1212,0.1263,0.1415,0.1615,0.1609,0.159,0.1617,0.1605,0.1515,0.1525,0.1565,0.1543,0.157,0.1615,0.166,0.1614,0.1436,0.1391,0.1391,0.1391,0.1385,0.1382,0.1382,0.1399,0.138,0.1373,0.1352,0.1295,0.1289,0.1288,0.1288,0.1288,0.1294,0.1298,0.1298,0.1303,0.1303,0.1298,0.1416,0.156,0.1771,0.1862,0.1749,1.9002,1.8867,1.8945,1.9245,1.9339,1.9424,0.0,1.9593,1.98,1.98,2.0241,2.0635,2.0668,2.0882,2.1076,2.1109,2.1082,2.1076,2.1109,2.1082,2.0886,2.0539,1.9234,1.7806,1.6473,1.4376,1.2869,1.2223,1.1038,1.0297,1.028,1.0005,0.9839,0.9822,0.97,0.9625,0.9608,0.934,0.9251,0.9234,0.9032,0.8905,0.8905,0.8892,0.8885,0.8885,0.8885,0.8885,0.8885,0.8885,0.8885,0.8885,0.8885,0.8885,0.8881,0.8543,0.8208,0.775,0.6704,0.5789,0.483,0.3896,0.2861,0.1965,0.168,0.1214,0.0859,0.1111,0.1162,0.1263,0.1516,0.1566,0.161,0.1583,0.1623,0.1605,0.1503,0.1485,0.1565,0.1717,0.1932,0.2154,0.2334,0.2556,0.2419,0.1524,0.1391,0.1391,0.1391,0.1412,0.1395,0.1395,0.1327,0.13,0.1315,0.1309,0.1296,0.1309,0.1307,0.1307,0.1307,0.1293,0.1308,0.1308,0.1292,0.1293,0.1308,0.1534,0.1677,0.1732,0.2025,0.2154,1.9836,1.9556,1.9496,1.9855,1.9764,1.9649,1.9649,1.9703,1.9846,2.0013,2.0388,2.0728,2.0895,2.1029,2.1109,2.1109,2.0969,2.0915,2.1082,2.0815,2.0666,2.0886,2.025,1.9132,1.756,1.5489,1.3874,1.312,1.1543,1.0556,1.0399,0.9999,0.9822,0.9822,0.9683,0.9568,0.9479,0.932,0.9166,0.9028,0.8967,0.8885,0.8885,0.8885,0.8885,0.8885,0.8885,0.8885,0.8885,0.8885,0.8885,0.8885,0.8885,0.8828,0.876,0.8738,0.8604,0.8301,0.7536,0.6717,0.5903,0.4784,0.3702,0.2648,0.2226,0.1667,0.1313,0.1415,0.1415,0.1465,0.1566,0.1604,0.1587,0.1624,0.1593,0.1512,0.1486,0.1467,0.1541,0.1977,0.2332,0.2734,0.3092,0.3446,0.3578,0.313,0.2642,0.2285,0.2285,0.2201,0.2152,0.2096,0.2074,0.2043,0.1996,0.1992,0.1984,0.2003,0.2002,0.2002,0.2002,0.1981,0.1992,0.1992,0.2011,0.2011,0.1992,0.214,0.2262,0.2272,0.2603,0.2837,2.0185,1.992,1.9759,2.0067,1.9915,1.9713,1.9795,1.9692,1.9666,2.004,2.0347,2.0641,2.0935,2.1056,2.1109,2.1109,2.0935,2.0869,2.1082,2.0742,2.0628,2.1056,2.0922,2.0248,1.8728,1.6856,1.5271,1.4098,1.2262,1.1088,1.0677,1.0087,0.9802,0.9764,0.9622,0.9473,0.932,0.9171,0.9042,0.8885,0.8885,0.8885,0.8885,0.8885,0.8861,0.8821,0.8821,0.8797,0.8811,0.8811,0.8811,0.8811,0.8811,0.8747,0.8662,0.8771,0.8743,0.8588,0.8009,0.7442,0.6762,0.5658,0.4532,0.3525,0.2924,0.2321,0.1818,0.1718,0.1667,0.1615,0.1607,0.1588,0.1616,0.1648,0.1655,0.1709,0.1746,0.1813,0.1973,0.2467,0.2959,0.3448,0.3892,0.438,0.469,0.469,0.4115,0.358,0.3312,0.3151,0.3006,0.295,0.2936,0.2915,0.2943,0.2938,0.2978,0.3015,0.3017,0.3017,0.3017,0.3017,0.3017,0.3017,0.3017,0.3017,0.3017,0.3089,0.3071,0.2916,0.3277,0.3512,1.9742,1.9601,1.9499,1.9745,1.9604,1.946,1.9747,1.9374,1.9112,1.9693,2.0047,2.0334,2.0635,2.0915,2.1109,2.1109,2.1102,2.1096,2.1109,2.1096,2.1089,2.1109,2.1102,2.0786,2.0106,1.8728,1.7129,1.5184,1.3387,1.1948,1.1046,1.021,0.9758,0.9618,0.9466,0.9313,0.9217,0.9018,0.8888,0.8885,0.8885,0.8885,0.8885,0.8885,0.8804,0.8716,0.8716,0.8632,0.8496,0.8496,0.8496,0.8496,0.8496,0.8492,0.8489,0.8496,0.8492,0.8469,0.8014,0.7705,0.7319,0.6284,0.5441,0.4583,0.3828,0.3025,0.2321,0.2071,0.1819,0.161,0.1581,0.1621,0.1654,0.1778,0.1992,0.221,0.2436,0.2691,0.3002,0.3452,0.3942,0.4387,0.4875,0.5364,0.5675,0.5675,0.563,0.5272,0.4378,0.4095,0.392,0.3777,0.3759,0.3834,0.4029,0.4068,0.4144,0.4334,0.4334,0.4334,0.4334,0.4334,0.4334,0.4334,0.4334,0.4334,0.4334,0.4398,0.4129,0.3487,0.4029,0.4116,1.9793,1.9708,1.9776,2.0248,2.004,1.9722,2.0085,1.9683,1.9325,1.972,1.988,2.0094,2.0588,2.0755,2.0882,2.1076,2.1109,2.1109,2.1109,2.0942,2.0895,2.1089,2.0768,2.0354,1.9857,1.8788,1.7479,1.6045,1.4012,1.2517,1.1853,1.0662,0.9954,0.9905,0.9476,0.9262,0.921,0.9011,0.8885,0.8885,0.8885,0.8885,0.8885,0.8885,0.8855,0.871,0.871,0.8625,0.8482,0.8482,0.8482,0.8482,0.8482,0.8425,0.8391,0.8391,0.8275,0.8147,0.8146,0.7998,0.7704,0.7004,0.6387,0.5684,0.4682,0.3728,0.2822,0.2371,0.1952,0.1584,0.1624,0.1589,0.1648,0.1996,0.2381,0.2757,0.3139,0.3534,0.3979,0.4431,0.4921,0.5364,0.5852,0.6296,0.6697,0.6881,0.621,0.553,0.5077,0.4952,0.4864,0.4636,0.473,0.481,0.4888,0.5002,0.5115,0.5193,0.519,0.519,0.519,0.519,0.519,0.519,0.519,0.519,0.519,0.5081,0.4785,0.4373,0.4694,0.4835,1.9639,1.9727,1.9947,2.0413,2.0093,1.9759,2.0172,1.974,1.9292,1.9586,1.9726,1.9947,2.0428,2.0608,2.0768,2.1062,2.1109,2.1109,2.1109,2.0949,2.0902,2.1089,2.0681,2.0277,1.9904,1.8989,1.7875,1.6669,1.5034,1.3672,1.2687,1.1316,1.0436,1.0088,0.9485,0.9183,0.9076,0.8984,0.8885,0.8885,0.8885,0.8885,0.8885,0.8885,0.8825,0.8628,0.8628,0.8513,0.8323,0.8323,0.8323,0.8323,0.8323,0.8269,0.8187,0.8187,0.8126,0.8005,0.8153,0.8123,0.7939,0.749,0.7039,0.6487,0.5536,0.4531,0.3677,0.3126,0.2588,0.2107,0.2093,0.2039,0.2124,0.2567,0.3077,0.3537,0.3981,0.4469,0.4914,0.5322,0.5677,0.6074,0.6476,0.6922,0.7323,0.7462,0.6879,0.6322,0.6145,0.6117,0.6012,0.5691,0.578,0.5899,0.598,0.6093,0.6205,0.6279,0.6279,0.6279,0.6279,0.6279,0.6279,0.6279,0.6279,0.6279,0.6279,0.6093,0.5749,0.5311,0.5515,0.5642,1.9279,1.9558,1.982,2.015,1.98,1.957,2.0187,1.9597,1.9025,1.9363,1.9586,1.9867,2.0154,2.0454,2.0748,2.1042,2.1096,2.1109,2.1109,2.1109,2.1102,2.1089,2.0828,2.0524,2.0201,1.9369,1.8313,1.7049,1.6375,1.5275,1.3562,1.2227,1.1065,1.0115,0.9536,0.9132,0.894,0.8885,0.8885,0.8885,0.8885,0.8885,0.8885,0.8885,0.8771,0.8482,0.8482,0.8313,0.7988,0.7988,0.7988,0.7988,0.7988,0.7988,0.7988,0.7988,0.7988,0.7988,0.7988,0.7988,0.7942,0.7693,0.7441,0.7089,0.6292,0.5489,0.4784,0.4234,0.3629,0.317,0.3111,0.3047,0.3076,0.3559,0.4032,0.452,0.4964,0.5453,0.5855,0.6083,0.6302,0.652,0.6792,0.7194,0.7503,0.754,0.7577,0.7543,0.7428,0.7402,0.727,0.6937,0.6903,0.698,0.718,0.7223,0.7296,0.7484,0.7484,0.7484,0.7484,0.7484,0.7484,0.7484,0.7484,0.7484,0.7484,0.7296,0.6868,0.624,0.6479,0.6479,1.9279,1.9338,1.9535,2.0098,1.9964,1.9854,2.0466,2.0092,1.9605,1.9686,1.9593,1.9566,1.986,2.0147,2.0441,2.0742,2.0969,2.1109,2.1109,2.1109,2.1029,2.0815,2.0528,2.0133,1.9606,1.8946,1.8205,1.7454,1.6407,1.5418,1.4491,1.2721,1.149,1.106,0.9935,0.9307,0.9268,0.9051,0.8885,0.8885,0.8885,0.8885,0.8885,0.8885,0.8771,0.8482,0.8482,0.8313,0.7988,0.7988,0.7988,0.7988,0.7988,0.7988,0.7988,0.7988,0.7988,0.7988,0.7988,0.7988,0.7988,0.7942,0.7842,0.769,0.7089,0.6487,0.5884,0.5334,0.472,0.421,0.4189,0.4075,0.4051,0.4525,0.501,0.5453,0.5941,0.6428,0.6741,0.683,0.6874,0.701,0.7282,0.7418,0.7552,0.7778,0.7807,0.772,0.7432,0.7256,0.7096,0.6926,0.7022,0.7142,0.7184,0.733,0.7446,0.7484,0.7484,0.7484,0.7484,0.7484,0.7484,0.7484,0.7484,0.7484,0.7484,0.7296,0.7022,0.6707,0.6788,0.6788,1.8698,1.8803,1.9103,1.9852,1.9909,1.9916,2.0409,2.0155,1.9758,1.9649,1.9374,1.9305,1.9726,1.9826,2.0034,2.0588,2.0815,2.0915,2.0915,2.1029,2.0955,2.0535,2.0334,1.9993,1.9575,1.8841,1.8217,1.783,1.6858,1.5949,1.5104,1.3765,1.2636,1.1833,1.0626,0.9702,0.9213,0.8992,0.8851,0.8838,0.8851,0.8848,0.8842,0.8854,0.8771,0.8482,0.8482,0.8313,0.7988,0.7988,0.7988,0.7988,0.7988,0.7988,0.7988,0.7988,0.7988,0.7988,0.7988,0.7988,0.7988,0.7988,0.7988,0.7939,0.749,0.7089,0.6686,0.6239,0.573,0.5275,0.5275,0.5071,0.5006,0.5411,0.5766,0.6121,0.6479,0.6833,0.7095,0.7095,0.7187,0.7323,0.7462,0.768,0.784,0.7893,0.7927,0.7856,0.7609,0.7459,0.7328,0.7192,0.7253,0.7334,0.7334,0.7446,0.7484,0.7484,0.7484,0.7484,0.7484,0.7484,0.7447,0.737,0.7443,0.7447,0.737,0.7337,0.7292,0.7173,0.7173,0.7173,1.7648,1.795,1.8404,1.9403,1.9683,1.9847,2.0138,1.9984,1.9689,1.9367,1.9045,1.9025,1.9533,1.9486,1.9678,2.0381,2.0568,2.0615,2.0615,2.0835,2.0788,2.0241,2.014,2.0007,1.9713,1.8851,1.822,1.7893,1.7347,1.66,1.5528,1.4933,1.3881,1.2337,1.1278,1.0186,0.9047,0.8972,0.8893,0.8817,0.8879,0.8862,0.874,0.8873,0.8723,0.8455,0.8455,0.8296,0.7988,0.7988,0.7988,0.7988,0.7988,0.7988,0.7988,0.7988,0.7988,0.7988,0.7988,0.7988,0.7988,0.7988,0.7988,0.7942,0.7746,0.7494,0.7238,0.7042,0.666,0.6322,0.6322,0.6087,0.5941,0.6169,0.6346,0.6564,0.6792,0.6966,0.7095,0.7143,0.7323,0.7507,0.7595,0.794,0.8134,0.7944,0.7951,0.7943,0.7788,0.7763,0.7702,0.75,0.7484,0.7484,0.7484,0.7484,0.7484,0.7484,0.7484,0.7484,0.7484,0.7484,0.7403,0.7191,0.7395,0.7399,0.7187,0.7399,0.7484,0.7484,0.7484,0.7484,1.6135,1.6605,1.7271,1.8413,1.9071,1.9562,1.9808,1.9666,1.9378,1.9069,1.8764,1.8597,1.8698,1.9078,1.9477,1.9573,2.0,2.0307,2.0307,2.0354,2.0261,1.9913,1.9659,1.9399,1.9105,1.8488,1.7862,1.7357,1.6987,1.6474,1.5852,1.505,1.372,1.1787,1.1291,1.0578,0.9651,0.9461,0.9377,0.9348,0.925,0.9086,0.885,0.8878,0.8685,0.8357,0.8357,0.8204,0.7988,0.7988,0.7988,0.7988,0.7988,0.7988,0.7988,0.7988,0.7988,0.7988,0.7988,0.7988,0.7988,0.7988,0.7988,0.7988,0.7939,0.7889,0.7839,0.7789,0.7585,0.7362,0.7362,0.7096,0.6874,0.6918,0.6962,0.7007,0.7054,0.7098,0.7187,0.737,0.7462,0.7635,0.8025,0.8157,0.8135,0.7984,0.7991,0.7898,0.7573,0.7571,0.7559,0.7488,0.7484,0.7484,0.7484,0.7484,0.7484,0.7484,0.7484,0.7484,0.7484,0.7484,0.7403,0.7191,0.7395,0.7399,0.7187,0.7399,0.7484,0.7484,0.7484,0.7484,1.5126,1.5625,1.6356,1.7639,1.8404,1.8926,1.9063,1.8904,1.8651,1.8288,1.8026,1.7912,1.8229,1.8479,1.8831,1.9292,1.9599,1.9833,1.9987,2.014,2.0067,1.9626,1.9511,1.9252,1.8951,1.8335,1.7772,1.7265,1.6889,1.6474,1.5916,1.5212,1.4223,1.298,1.2481,1.1833,1.0974,1.0832,1.0685,1.0495,1.02,0.9848,0.9352,0.9186,0.8827,0.8323,0.8323,0.8184,0.7988,0.7988,0.7988,0.7988,0.7988,0.7988,0.7988,0.7988,0.7988,0.7988,0.7988,0.7938,0.7919,0.7919,0.7919,0.7887,0.7965,0.7934,0.7919,0.7919,0.7767,0.7584,0.7502,0.7312,0.7095,0.7095,0.7095,0.7095,0.7095,0.7231,0.7323,0.7462,0.768,0.794,0.8157,0.8214,0.8196,0.8011,0.7939,0.7784,0.7516,0.7484,0.7484,0.7484,0.7484,0.7484,0.7484,0.7484,0.7484,0.7484,0.7484,0.7484,0.7484,0.7484,0.7358,0.709,0.7346,0.735,0.7086,0.7354,0.7484,0.7484,0.7484,0.7484,1.3968,1.4463,1.5171,1.6645,1.7485,1.801,1.8075,1.7914,1.764,1.7313,1.7056,1.7124,1.7689,1.7932,1.8222,1.8971,1.9138,1.9279,1.9573,1.9806,1.9786,1.9325,1.9219,1.9065,1.8764,1.8257,1.7674,1.7115,1.675,1.6365,1.5945,1.5416,1.4874,1.4277,1.3734,1.3031,1.2221,1.2073,1.1864,1.1592,1.1156,1.0625,0.9932,0.9623,0.905,0.8421,0.8421,0.8301,0.8088,0.8088,0.8038,0.7988,0.7988,0.7988,0.7988,0.7988,0.7988,0.7985,0.7951,0.7913,0.7804,0.7777,0.7767,0.7787,0.786,0.7862,0.7767,0.7767,0.7662,0.7522,0.745,0.7255,0.7095,0.7187,0.7187,0.7177,0.7186,0.7362,0.753,0.7541,0.7835,0.8092,0.8135,0.8192,0.817,0.7988,0.7886,0.7735,0.7543,0.7484,0.7484,0.7484,0.7484,0.7484,0.7484,0.7484,0.7484,0.7484,0.7484,0.7484,0.7484,0.7484,0.7371,0.7053,0.7359,0.7367,0.7049,0.7367,0.7484,0.7484,0.7484,0.7484,1.2192,1.2617,1.3338,1.4986,1.6063,1.6782,1.6868,1.6655,1.6393,1.612,1.6035,1.6176,1.6747,1.7494,1.8015,1.8095,1.839,1.8671,1.8965,1.9025,1.9025,1.8971,1.8731,1.845,1.8102,1.7822,1.7411,1.6768,1.6271,1.5945,1.5891,1.5636,1.5208,1.46,1.4018,1.3467,1.2808,1.2403,1.2184,1.2139,1.1722,1.1093,1.034,1.0061,0.9512,0.8748,0.8748,0.8592,0.8382,0.8382,0.8237,0.7988,0.7988,0.7988,0.7988,0.7988,0.7988,0.7971,0.7879,0.7824,0.779,0.7662,0.7617,0.7624,0.7638,0.7631,0.7617,0.7617,0.7509,0.7436,0.7419,0.7255,0.7143,0.7415,0.7462,0.7464,0.7526,0.7582,0.7623,0.7685,0.7696,0.782,0.7982,0.8007,0.7979,0.7849,0.7812,0.7735,0.7543,0.7484,0.7484,0.7484,0.7484,0.7484,0.7484,0.7484,0.7484,0.7484,0.7484,0.7484,0.7484,0.7484,0.7395,0.7167,0.7387,0.7391,0.7163,0.7391,0.7484,0.7484,0.7484,0.7484,1.2014,1.235,1.2903,1.4241,1.5034,1.5547,1.5609,1.5292,1.503,1.4886,1.4863,1.5018,1.5565,1.6244,1.6858,1.7197,1.7537,1.7929,1.8562,1.8811,1.8991,1.9165,1.8931,1.8637,1.8343,1.8036,1.7443,1.6507,1.6128,1.5747,1.5427,1.5473,1.5328,1.4902,1.4694,1.4413,1.4005,1.3807,1.3627,1.347,1.2991,1.2408,1.1765,1.1375,1.0837,1.0243,0.9899,0.9509,0.9118,0.8775,0.8382,0.7988,0.7988,0.7988,0.7988,0.7988,0.7931,0.7892,0.7831,0.7695,0.7536,0.7482,0.7397,0.7356,0.7543,0.7536,0.7461,0.7461,0.7417,0.735,0.7255,0.7142,0.7187,0.7415,0.7388,0.7382,0.7575,0.7651,0.7685,0.7706,0.7814,0.7892,0.7971,0.7927,0.7877,0.7812,0.7702,0.7604,0.7492,0.7484,0.7561,0.7684,0.7561,0.7484,0.7484,0.7484,0.7484,0.7484,0.7484,0.7484,0.7484,0.7484,0.7403,0.7191,0.7395,0.7399,0.7187,0.7399,0.7484,0.7484,0.7484,0.7484,1.1836,1.2128,1.2414,1.3433,1.3955,1.4287,1.4282,1.3912,1.36,1.3668,1.3626,1.3815,1.4369,1.497,1.5565,1.6193,1.6596,1.7133,1.8013,1.8434,1.8738,1.8945,1.8784,1.8551,1.825,1.7848,1.7292,1.6458,1.6041,1.5571,1.5099,1.5218,1.5215,1.5113,1.5034,1.4902,1.4721,1.463,1.4491,1.4298,1.3823,1.3335,1.2829,1.2398,1.196,1.1424,1.0935,1.0395,0.9809,0.932,0.873,0.8137,0.8137,0.8088,0.7988,0.7988,0.7894,0.7804,0.7763,0.7584,0.7409,0.7319,0.7227,0.7136,0.7397,0.7387,0.7302,0.7302,0.7302,0.7278,0.7125,0.7095,0.7173,0.7442,0.7433,0.7364,0.7605,0.7702,0.7723,0.7668,0.7737,0.7858,0.7858,0.7756,0.7718,0.7718,0.7604,0.7484,0.7484,0.7561,0.7642,0.7804,0.7718,0.7676,0.7676,0.7676,0.7676,0.7676,0.7676,0.7676,0.7676,0.7676,0.7618,0.7455,0.7613,0.7613,0.7455,0.7613,0.7676,0.7676,0.7676,0.7676,1.1451,1.15,1.1677,1.2329,1.2748,1.2989,1.2847,1.2531,1.2239,1.2398,1.2325,1.2452,1.3195,1.3766,1.4298,1.4905,1.5547,1.6232,1.7063,1.7664,1.7995,1.8029,1.7989,1.7876,1.7622,1.7075,1.6697,1.6691,1.596,1.5382,1.5109,1.4863,1.4841,1.5101,1.4859,1.4721,1.4714,1.4437,1.4298,1.4298,1.4022,1.363,1.3076,1.2899,1.2516,1.1975,1.1731,1.1145,1.0364,1.0117,0.9373,0.8382,0.8382,0.8233,0.7988,0.7988,0.7894,0.779,0.7651,0.7502,0.7346,0.7146,0.7098,0.7095,0.7098,0.7098,0.7098,0.7098,0.7098,0.7098,0.7095,0.7095,0.719,0.7515,0.7603,0.764,0.7761,0.7804,0.7747,0.7525,0.7488,0.7488,0.7488,0.7488,0.7484,0.7484,0.7484,0.7484,0.7484,0.7684,0.7804,0.7804,0.7991,0.8102,0.8102,0.8102,0.8102,0.8102,0.8102,0.8102,0.8102,0.8102,0.8102,0.8102,0.8102,0.8102,0.8102,0.8102,0.8102,0.8102,0.8102,0.8102,1.1265,1.1309,1.1425,1.1831,1.2091,1.2158,1.2156,1.1991,1.1815,1.1828,1.1846,1.1928,1.2313,1.2698,1.3137,1.3738,1.4326,1.5104,1.6181,1.6993,1.7614,1.8029,1.8041,1.7989,1.7856,1.7396,1.6863,1.6469,1.6026,1.549,1.4879,1.4776,1.4667,1.4552,1.4473,1.4431,1.4431,1.434,1.4298,1.4298,1.4202,1.4058,1.3908,1.3865,1.3721,1.357,1.3098,1.2554,1.1912,1.114,1.0207,0.9167,0.8825,0.8382,0.7988,0.7988,0.7882,0.7658,0.7614,0.7431,0.7207,0.7112,0.7095,0.7095,0.7095,0.7095,0.7095,0.7095,0.7095,0.7095,0.7095,0.7231,0.7416,0.7554,0.7643,0.771,0.7769,0.7698,0.7592,0.7492,0.7484,0.7484,0.7484,0.7484,0.7484,0.7484,0.7484,0.7561,0.7684,0.7765,0.7915,0.8178,0.825,0.8255,0.8102,0.8102,0.8102,0.8102,0.8102,0.8102,0.8102,0.8102,0.8102,0.8102,0.8102,0.8102,0.8102,0.8102,0.8102,0.8102,0.8102,0.8102,1.0793,1.106,1.1265,1.1371,1.1442,1.1509,1.1436,1.1274,1.1159,1.1223,1.1185,1.1213,1.1442,1.1678,1.1951,1.255,1.3137,1.3937,1.5072,1.6121,1.7,1.7845,1.7862,1.7856,1.7869,1.7435,1.6976,1.6489,1.6088,1.5648,1.5035,1.4927,1.479,1.4592,1.4394,1.4298,1.4298,1.4298,1.4298,1.4298,1.4298,1.4298,1.4298,1.4298,1.4298,1.4298,1.3829,1.3335,0.0,1.197,1.0944,0.9858,0.9418,0.8841,0.8203,0.8203,0.7959,0.7648,0.7648,0.7392,0.7095,0.7095,0.7095,0.7095,0.7095,0.7095,0.7095,0.7095,0.7095,0.7139,0.7231,0.737,0.7537,0.7608,0.7681,0.771,0.7707,0.7604,0.7484,0.7484,0.7484,0.7484,0.7484,0.7484,0.7484,0.7484,0.7561,0.7642,0.7804,0.7915,0.814,0.8365,0.8479,0.8479,0.8327,0.8327,0.8327,0.8327,0.8327,0.8327,0.8327,0.8327,0.8327,0.8327,0.8327,0.8327,0.8327,0.8327,0.8327,0.8327,0.8327,0.8327,0.0,1.0721,1.109,1.0988,1.0948,1.0907,1.0729,1.0558,0.0,1.0655,1.0554,1.0485,1.0714,1.0747,1.0966,1.1568,1.21,1.2856,1.4056,1.5173,1.6293,1.7424,1.7582,1.7582,1.7582,1.7373,1.7079,1.6727,1.6229,1.5793,1.5506,1.5267,1.5131,1.5083,1.464,1.4346,1.4346,1.4346,1.4346,1.4346,1.4346,1.4346,1.4346,1.4298,1.4298,1.4298,1.4022,1.3624,1.3167,1.2657,1.1722,1.0489,1.0243,0.9543,0.8716,0.8668,0.8273,0.7773,0.7727,0.7444,0.7095,0.7095,0.7095,0.7095,0.7095,0.7095,0.7095,0.7095,0.7095,0.7187,0.7415,0.7496,0.7541,0.7685,0.7724,0.7663,0.7518,0.7484,0.7484,0.7484,0.7484,0.7484,0.7484,0.7484,0.7522,0.7522,0.7684,0.7842,0.7876,0.8217,0.8479,0.8518,0.8665,0.878,0.878,0.8737,0.8703,0.8703,0.8703,0.8703,0.8703,0.8703,0.8703,0.8703,0.8703,0.8703,0.8703,0.8703,0.8703,0.8703,0.8703,0.8703,0.8017,0.0,1.0477,1.0493,1.0647,1.0745,0.0,1.0558,1.0485,1.0655,1.0554,1.0539,1.0929,1.124,1.1568,1.2114,1.2708,1.3359,1.4116,1.5185,1.6146,1.6836,1.7166,1.7378,1.7582,1.7373,1.7079,1.6727,1.6384,1.5994,1.5512,1.5452,1.5309,1.5131,1.4987,1.4885,1.4885,1.4885,1.4885,1.4885,1.4688,1.4592,1.4592,1.4394,1.4298,1.4298,1.425,1.4106,1.3956,1.3437,1.2694,1.1803,1.1374,1.0721,0.9941,0.9571,0.9049,0.8487,0.8132,0.7624,0.7095,0.7095,0.7095,0.7095,0.7095,0.7095,0.7095,0.7095,0.7234,0.7415,0.7507,0.7636,0.7788,0.77,0.7756,0.772,0.7533,0.7484,0.7484,0.7484,0.7484,0.7484,0.7484,0.7484,0.7561,0.7723,0.7915,0.8178,0.8665,0.8937,0.9208,0.9501,0.9576,0.9614,0.9614,0.9046,0.8703,0.8703,0.8703,0.8703,0.8703,0.8703,0.8703,0.8703,0.8703,0.8703,0.8703,0.8703,0.8703,0.8703,0.8703,0.8703,0.6927,0.8371,0.9699,0.9978,1.0304,1.0574,1.0574,1.0436,1.0339,1.0428,1.0375,1.0469,1.1074,1.1594,1.2053,1.2689,1.3295,1.3781,1.4099,1.4917,1.5725,1.6246,1.6736,1.7166,1.7582,1.7494,1.7168,1.674,1.656,1.6231,1.5662,1.5635,1.5594,1.541,1.541,1.5315,1.5083,1.5083,1.5083,1.5083,1.4939,1.4838,1.4688,1.4544,1.4442,1.4298,1.4298,1.4298,1.4238,1.3742,1.3081,1.2418,1.1984,1.1297,1.056,1.0108,0.9479,0.8771,0.8288,0.7697,0.7095,0.7095,0.7095,0.7095,0.7095,0.7187,0.7279,0.7279,0.737,0.7533,0.7636,0.7806,0.7889,0.7759,0.7789,0.7747,0.7563,0.7484,0.7484,0.7484,0.7484,0.7484,0.7484,0.7565,0.7684,0.7804,0.8217,0.8703,0.9226,0.9609,0.9997,1.0406,1.0443,1.0443,1.0443,1.0062,0.9647,0.9268,0.9236,0.9236,0.9236,0.9236,0.9236,0.9236,0.9236,0.9236,0.9236,0.9236,0.9236,0.9236,0.9236,0.9198,0.6154,0.7554,0.884,0.9544,1.0112,1.0455,1.0427,1.0335,1.0261,1.029,1.0253,1.0431,1.1221,1.1824,1.2452,1.3205,1.3717,1.4035,1.3981,1.4428,1.503,1.5547,1.614,1.6783,1.7424,1.7437,1.7236,1.6747,1.6667,1.64,1.5811,1.5784,1.5784,1.5784,1.5784,1.5594,1.5226,1.5226,1.5226,1.5226,1.5172,1.5029,1.4831,1.4742,1.4567,1.4285,1.4238,1.4261,1.4207,1.3702,1.3252,1.277,1.234,1.1754,1.1107,1.0573,0.9832,0.8978,0.8285,0.7625,0.7095,0.7095,0.7095,0.7095,0.7143,0.7323,0.7499,0.7566,0.7573,0.765,0.79,0.7951,0.7922,0.7829,0.7796,0.7714,0.7555,0.7484,0.7484,0.7484,0.7484,0.7522,0.7522,0.7718,0.7876,0.7953,0.8627,0.9301,0.9787,1.0319,1.085,1.1223,1.1298,1.1298,1.1298,1.1298,1.0999,1.0331,1.0143,1.0067,1.0067,1.0067,1.0067,1.0067,1.0067,1.0067,1.0067,1.0067,1.0067,1.0067,1.0067,0.9992,0.5148,0.6605,0.7951,0.913,1.0183,1.0846,1.0688,1.0517,1.0432,1.0582,1.0424,1.0472,1.1404,1.1921,1.2457,1.3166,1.3581,1.3689,1.3472,1.3694,1.4013,1.4433,1.5185,1.5986,1.6783,1.684,1.6818,1.6734,1.648,1.6192,1.5798,1.5784,1.5784,1.5784,1.5784,1.5784,1.5689,1.5689,1.5689,1.5689,1.5547,1.5404,1.535,1.4927,1.4564,1.43,1.406,1.3938,1.396,1.3638,1.3435,1.3357,1.3061,1.27,1.2336,1.1467,1.0526,0.9492,0.7837,0.7183,0.7095,0.7095,0.7095,0.7143,0.737,0.7462,0.7566,0.7775,0.7965,0.8109,0.8126,0.8071,0.8003,0.7988,0.7744,0.7555,0.7488,0.7484,0.7484,0.7484,0.7484,0.7561,0.7723,0.7915,0.8217,0.8742,0.9349,1.003,1.0769,1.1254,1.1669,1.2077,1.2114,1.2114,1.2114,1.2114,1.2077,1.1929,1.1298,1.0925,1.0925,1.0925,1.0925,1.0925,1.0925,1.0925,1.0925,1.0925,1.0925,1.0925,1.0925,1.0812,0.4704,0.6113,0.7412,0.8412,0.9758,1.0798,1.0712,1.0481,1.031,1.0387,1.0197,1.0327,1.1282,1.1774,1.2422,1.3557,1.357,1.3305,1.2866,1.2925,1.3034,1.3186,1.4159,1.5127,1.5931,1.6283,1.6502,1.6457,1.6346,1.6146,1.5798,1.5784,1.5784,1.5784,1.5784,1.5752,1.5598,1.5752,1.5784,1.5784,1.573,1.5588,1.5493,1.5261,1.4905,1.4496,1.4347,1.4217,1.4028,1.3777,1.3616,1.3486,1.3213,1.2948,1.2577,1.1365,1.0332,0.9375,0.7977,0.7408,0.7279,0.7143,0.7187,0.7323,0.7462,0.768,0.7863,0.7912,0.8029,0.8198,0.8099,0.8054,0.7992,0.7898,0.7675,0.7484,0.7484,0.7484,0.7484,0.7484,0.7603,0.7684,0.7804,0.825,0.8737,0.9263,1.0019,1.085,1.1632,1.2114,1.2489,1.29,1.2936,1.2936,1.2936,1.2936,1.2753,1.2342,1.1966,1.1744,1.1744,1.1744,1.1744,1.1744,1.1744,1.1744,1.1744,1.1744,1.1744,1.1744,1.1744,1.1595,0.4399,0.5671,0.6832,0.7578,0.9258,1.0634,1.0594,1.0481,1.0339,1.0339,1.014,1.0263,1.1114,1.1636,1.2312,1.3493,1.3285,1.2807,1.2313,1.2172,1.2144,1.213,1.3168,1.4186,1.5074,1.569,1.6099,1.6306,1.6213,1.6072,1.5791,1.5784,1.5751,1.5732,1.5732,1.5585,1.5297,1.5518,1.5658,1.5732,1.5751,1.5697,1.5489,1.5514,1.5184,1.4678,1.4627,1.4442,1.4193,1.3894,1.3679,1.3517,1.3261,1.2966,1.2577,1.137,1.0381,0.9476,0.846,0.7937,0.7676,0.7363,0.7411,0.7591,0.7635,0.7896,0.8158,0.799,0.8053,0.821,0.8108,0.8016,0.7931,0.7882,0.7686,0.7484,0.7484,0.7484,0.7522,0.7561,0.7723,0.7915,0.8063,0.8703,0.9377,0.9863,1.0732,1.1595,1.2342,1.2746,1.3119,1.3455,1.3492,1.3492,1.3492,1.3492,1.3236,1.2636,1.2562,1.2562,1.2562,1.2562,1.2562,1.2562,1.2562,1.2562,1.2562,1.2562,1.2562,1.2562,1.2562,1.2378,0.4102,0.5033,0.5855,0.688,0.8875,1.0455,1.0347,1.0507,1.0655,1.0655,1.0517,1.0506,1.1017,1.1588,1.2132,1.2486,1.2273,1.2005,1.1678,1.1527,1.1358,1.1398,1.224,1.3199,1.4282,1.4883,1.5479,1.6224,1.6019,1.5852,1.5784,1.5784,1.5705,1.5438,1.5431,1.5291,1.5042,1.5062,1.5164,1.5431,1.5698,1.5638,1.5391,1.5469,1.5152,1.4624,1.4681,1.4488,1.4182,1.3918,1.3745,1.3678,1.3447,1.3094,1.2619,1.21,1.1327,1.0376,0.941,0.8803,0.8368,0.7984,0.7856,0.79,0.8113,0.8157,0.8174,0.8046,0.8124,0.83,0.8276,0.8065,0.7853,0.7959,0.7732,0.7484,0.7484,0.7484,0.7561,0.7723,0.7953,0.8255,0.8813,0.9425,1.0105,1.0887,1.1521,1.2157,1.2783,1.3046,1.3273,1.3499,1.3492,1.3492,1.3492,1.3492,1.3499,1.3419,1.3419,1.3419,1.3419,1.3419,1.3419,1.3419,1.3419,1.3419,1.3419,1.3419,1.3419,1.3419,1.3419,1.3309,0.3615,0.4421,0.5279,0.6187,0.7801,0.9322,0.9915,1.0366,1.0692,1.0692,1.0639,1.06,1.0551,1.0774,1.1031,1.1018,1.0947,1.0841,1.0735,1.0676,1.0634,1.0626,1.1501,1.2485,1.3389,1.4298,1.5163,1.5909,1.5892,1.5784,1.5784,1.5658,1.5504,1.5398,1.5217,1.4983,1.4689,1.4914,1.4968,1.4856,1.515,1.5237,1.513,1.5198,1.4982,1.4584,1.4564,1.4407,1.4148,1.4015,1.3877,1.3695,1.3476,1.3222,1.2924,1.2577,1.1843,1.089,0.9971,0.924,0.864,0.8072,0.7984,0.8113,0.8157,0.8214,0.8208,0.8043,0.7988,0.8004,0.8004,0.7902,0.7816,0.7882,0.7667,0.7484,0.7484,0.7603,0.7723,0.7804,0.825,0.8813,0.9296,1.0094,1.0925,1.1744,1.2268,1.2716,1.32,1.3346,1.3419,1.3492,1.3492,1.3492,1.3492,1.3309,1.3192,1.3192,1.3382,1.3492,1.3492,1.3492,1.3492,1.3492,1.3492,1.3492,1.3492,1.3492,1.3492,1.3492,1.3492,1.3382,0.3236,0.3795,0.4452,0.5488,0.6775,0.8131,0.9254,1.0108,1.0692,1.0692,1.0692,1.0599,1.0302,1.0351,1.0375,1.0245,1.0212,1.0212,1.0212,1.0163,1.0126,1.0126,1.0895,1.181,1.26,1.3577,1.4491,1.5267,1.5397,1.5499,1.5547,1.5365,1.5259,1.5264,1.4977,1.4683,1.4389,1.4589,1.4589,1.4389,1.4589,1.478,1.4874,1.4961,1.4821,1.4588,1.4615,1.4471,1.4235,1.4216,1.4083,1.3822,1.3652,1.3525,1.3398,1.3222,1.2528,1.1628,1.0664,0.985,0.9126,0.8384,0.8208,0.8324,0.8269,0.8256,0.8239,0.8,0.789,0.7788,0.7726,0.771,0.7726,0.7784,0.7696,0.7599,0.7676,0.7834,0.803,0.8221,0.8822,0.9453,0.9976,1.0807,1.1632,1.2378,1.2783,1.3119,1.3455,1.3492,1.3492,1.3492,1.3492,1.3492,1.3492,1.3294,1.3119,1.3016,1.3221,1.3338,1.3338,1.3338,1.3389,1.3492,1.3492,1.3492,1.3492,1.3492,1.3492,1.3492,1.3492,1.3419,0.2955,0.2987,0.323,0.4716,0.5922,0.7036,0.8371,0.9751,1.0692,1.0692,1.0692,1.0639,1.0465,1.0379,1.0371,1.0241,1.0208,1.0208,1.0208,0.9998,0.9884,0.9884,1.0427,1.1091,1.1907,1.2651,1.3431,1.4202,1.4544,1.479,1.5077,1.5031,1.4976,1.5015,1.4669,1.4382,1.4088,1.4088,1.4088,1.4088,1.4088,1.4242,1.4529,1.4823,1.4796,1.4529,1.4874,1.4783,1.4516,1.4516,1.4349,1.4088,1.4088,1.4088,1.4088,1.4088,1.3525,1.2577,1.1628,1.0722,0.9864,0.8915,0.8608,0.8575,0.8345,0.8288,0.8211,0.7902,0.78,0.7755,0.7567,0.7522,0.7567,0.7751,0.7818,0.7842,0.8063,0.825,0.8594,0.9208,0.962,1.018,1.0962,1.1595,1.2224,1.2826,1.3083,1.3273,1.3455,1.3492,1.3492,1.3492,1.3492,1.3492,1.3492,1.3492,1.3353,1.3031,1.3001,1.3001,1.3001,1.3009,1.3162,1.3484,1.3492,1.3492,1.3492,1.3492,1.3492,1.3492,1.3492,1.3492,0.2626,0.2852,0.3281,0.4515,0.5712,0.6826,0.7908,0.9472,1.0729,1.0858,1.0785,1.0599,1.0298,1.0245,1.014,0.9835,0.9786,0.9786,0.9786,0.9738,0.9705,0.9705,1.0201,1.0748,1.137,1.1955,1.2543,1.3119,1.3613,1.3963,1.4149,1.4354,1.4495,1.4656,1.4369,1.4175,1.4088,1.4088,1.4088,1.4088,1.4088,1.4128,1.4215,1.4309,1.4295,1.4222,1.4309,1.4295,1.4215,1.4215,1.4168,1.4088,1.4088,1.4088,1.4088,1.4088,1.3616,1.2881,1.2057,1.1192,1.0294,0.9388,0.8866,0.8571,0.8347,0.8238,0.8173,0.8219,0.8212,0.8245,0.8336,0.836,0.8221,0.7704,0.7799,0.8102,0.8437,0.8899,0.9425,1.0013,1.0582,1.1186,1.1818,1.2342,1.279,1.3236,1.3382,1.3419,1.3492,1.3492,1.3492,1.3492,1.3492,1.3492,1.3492,1.3287,1.3111,1.3016,1.2543,1.2397,1.2658,1.2884,1.3053,1.3148,1.3375,1.3492,1.3492,1.3492,1.3492,1.3492,1.3492,1.3492,0.2537,0.2729,0.3128,0.4337,0.5341,0.6406,0.794,0.9465,1.0614,1.0834,1.0716,1.0501,1.0269,1.0155,0.9957,0.9673,0.9579,0.9579,0.9579,0.9579,0.9628,0.9723,1.0117,1.0605,1.1135,1.14,1.1737,1.2112,1.2559,1.2958,1.3396,1.3748,1.4116,1.4479,1.4242,1.4088,1.4088,1.4088,1.4088,1.4088,1.4088,1.4088,1.4088,1.4088,1.4088,1.4088,1.4088,1.4088,1.4088,1.4088,1.4088,1.4088,1.4088,1.4088,1.4088,1.4088,1.3743,1.3137,1.2491,1.161,1.0633,0.9742,0.9049,0.8543,0.8222,0.8171,0.8251,0.8443,0.8644,0.8813,0.9112,0.9188,0.896,0.8169,0.8289,0.867,0.9084,0.9576,1.0175,1.0832,1.1323,1.1818,1.2415,1.2826,1.3119,1.3455,1.3492,1.3492,1.3492,1.3492,1.3492,1.3492,1.3492,1.3492,1.3492,1.3316,1.3148,1.3016,1.2602,1.2419,1.2485,1.2584,1.2745,1.3001,1.3206,1.3367,1.3492,1.3492,1.3492,1.3492,1.3492,1.3492,0.2506,0.2655,0.2904,0.4126,0.4922,0.5975,0.832,0.9567,1.0288,1.0617,1.0546,1.0375,1.0172,0.9998,0.9827,0.9657,0.9579,0.9579,0.9579,0.9628,0.9727,0.9969,1.0216,1.06,1.1072,1.0908,1.0929,1.1133,1.1419,1.1935,1.2632,1.3179,1.3755,1.4439,1.4222,1.4088,1.4088,1.4088,1.4088,1.4088,1.4088,1.4088,1.4088,1.4088,1.4088,1.4088,1.4088,1.4088,1.4088,1.4088,1.4088,1.4088,1.4088,1.4088,1.4088,1.4088,1.3828,1.3349,1.2893,1.2006,1.0935,1.0068,0.9299,0.8575,0.8085,0.818,0.8513,0.8755,0.9117,0.9485,0.9895,1.0008,0.982,0.9079,0.9165,0.9511,0.9916,1.0331,1.085,1.1632,1.1966,1.2268,1.2863,1.3119,1.3309,1.3455,1.3492,1.3492,1.3492,1.3492,1.3492,1.3492,1.3492,1.3492,1.3492,1.3492,1.3367,1.3075,1.3023,1.2877,1.2543,1.2251,1.2368,1.2994,1.3038,1.3199,1.3492,1.3492,1.3492,1.3492,1.3492,1.3492,0.2182,0.2444,0.2807,0.3616,0.4968,0.6486,0.8001,0.8858,0.9565,1.0327,1.0407,1.0335,1.0006,0.9912,0.9827,0.9657,0.9579,0.9579,0.9579,0.9772,0.992,0.9969,1.0216,1.0405,1.0351,1.0302,1.0161,0.9809,1.0594,1.1314,1.1842,1.2692,1.3505,1.4146,1.4122,1.4088,1.4088,1.4088,1.4088,1.4088,1.4088,1.4088,1.4088,1.4088,1.4088,1.4088,1.4088,1.4088,1.4088,1.4088,1.4088,1.4088,1.4088,1.4088,1.4088,1.4088,1.3913,1.3578,1.3102,1.245,1.1615,1.0639,0.9898,0.931,0.8876,0.8907,0.9191,0.9554,0.9916,1.0319,1.0732,1.0844,1.0807,1.0619,1.04,1.0368,1.0775,1.1149,1.1669,1.2489,1.2673,1.2863,1.3309,1.3419,1.3455,1.3492,1.3492,1.3492,1.3492,1.3492,1.3492,1.3492,1.3492,1.3492,1.3492,1.3492,1.347,1.3397,1.3148,1.298,1.2906,1.284,1.2862,1.3001,1.3258,1.3426,1.3492,1.3492,1.3492,1.3492,1.3492,1.3492,0.2092,0.2322,0.2551,0.3175,0.4564,0.6065,0.7308,0.8217,0.9054,0.9979,1.0172,1.0111,0.992,0.9819,0.9734,0.9595,0.9579,0.9579,0.9579,0.9727,0.992,1.0167,1.0236,1.0338,1.0475,1.02,0.9904,0.9664,1.0148,1.0756,1.1422,1.2171,1.2985,1.387,1.3913,1.3955,1.4088,1.4088,1.4088,1.4088,1.4088,1.4088,1.4088,1.4088,1.4088,1.4088,1.4088,1.4088,1.4088,1.4088,1.4088,1.4088,1.4088,1.4088,1.4068,1.3928,1.3791,1.362,1.3209,1.2652,1.1988,1.1209,1.0562,0.994,0.9555,0.9632,0.9954,1.0368,1.0775,1.1186,1.1558,1.1669,1.1669,1.1669,1.1298,1.0999,1.1335,1.1632,1.204,1.2753,1.29,1.3046,1.3419,1.3492,1.3492,1.3492,1.3492,1.3492,1.3492,1.3492,1.3492,1.3492,1.3492,1.3492,1.3492,1.3492,1.3492,1.3492,1.3338,1.3243,1.3243,1.3243,1.317,1.3009,1.3177,1.3338,1.3492,1.3492,1.3492,1.3492,1.3492,1.3492,0.2059,0.2154,0.2361,0.2958,0.4093,0.5345,0.6568,0.7643,0.8661,0.9622,0.9864,0.9876,0.9847,0.9726,0.9579,0.9579,0.9579,0.9567,0.9587,0.9608,0.9801,1.0223,1.0206,1.0296,1.0702,1.0246,0.9944,0.9862,0.9962,1.0381,1.1154,1.1671,1.2443,1.3561,1.3603,1.3779,1.4088,1.4088,1.4088,1.4088,1.4088,1.4088,1.4088,1.4088,1.4088,1.4088,1.4088,1.4088,1.4088,1.4088,1.4088,1.4088,1.4088,1.4088,1.4048,1.3713,1.36,1.3553,1.3253,1.2765,1.2165,1.1686,1.1135,1.0588,1.0239,1.0351,1.0738,1.1111,1.1484,1.1855,1.2187,1.2305,1.2305,1.2305,1.1929,1.1595,1.1781,1.1929,1.2231,1.279,1.2973,1.3119,1.3455,1.3492,1.3492,1.3492,1.3492,1.3492,1.3492,1.3492,1.3492,1.3492,1.3492,1.3492,1.3492,1.3492,1.3492,1.3492,1.3492,1.3492,1.3492,1.3492,1.3367,1.3097,1.3097,1.3221,1.3492,1.3492,1.3492,1.3492,1.3492,1.3492,0.1763,0.1975,0.2361,0.2958,0.3759,0.4835,0.6303,0.7296,0.8245,0.9398,0.9778,0.9839,0.9689,0.9644,0.9579,0.9579,0.9579,0.9571,0.9461,0.9722,0.9852,0.9626,1.0091,1.033,1.0072,1.017,1.0063,0.9657,1.0009,1.0381,1.0679,1.137,1.2143,1.3045,1.3307,1.3652,1.4088,1.4088,1.4088,1.4088,1.4088,1.4088,1.4088,1.4088,1.4088,1.4088,1.4088,1.4088,1.4088,1.4088,1.4088,1.4088,1.4088,1.4088,1.4048,1.3713,1.36,1.3527,1.3038,1.2677,1.2382,1.1846,1.1478,1.1223,1.0999,1.1105,1.1335,1.1558,1.1781,1.2003,1.2224,1.2305,1.2305,1.2305,1.2224,1.2194,1.2224,1.2224,1.2378,1.2826,1.32,1.3455,1.3492,1.3492,1.3492,1.3492,1.3492,1.3492,1.3492,1.3492,1.3492,1.3492,1.3492,1.3492,1.3492,1.3492,1.3492,1.3492,1.3492,1.3492,1.3492,1.3492,1.3477,1.3433,1.3433,1.3448,1.3492,1.3492,1.3492,1.3492,1.3492,1.3492,0.1654,0.1943,0.224,0.2495,0.3386,0.4548,0.581,0.6799,0.7761,0.8943,0.9233,0.936,0.9541,0.9579,0.9579,0.9579,0.9543,0.9445,0.9412,0.9436,0.9508,0.9486,0.9778,0.9925,0.9885,1.003,1.0055,0.983,1.0038,1.025,1.0593,1.1154,1.1886,1.279,1.3222,1.3616,1.4088,1.4088,1.4088,1.4088,1.4088,1.4088,1.4088,1.4088,1.4088,1.4088,1.4088,1.4088,1.4088,1.4088,1.4088,1.4088,1.4088,1.4088,1.4035,1.3567,1.336,1.3273,1.2705,1.2468,1.2335,1.2123,1.1966,1.1892,1.1781,1.1818,1.1929,1.2003,1.2114,1.2194,1.2268,1.2305,1.2305,1.2305,1.2305,1.2305,1.2305,1.2305,1.2415,1.2826,1.3229,1.3492,1.3492,1.3492,1.3492,1.3492,1.3492,1.3492,1.3492,1.3492,1.3492,1.3492,1.3608,1.3608,1.3499,1.3608,1.3608,1.3499,1.3492,1.3492,1.3492,1.3492,1.3492,1.3492,1.3492,1.3492,1.3492,1.3492,1.3492,1.3492,1.3492,1.3492,0.1602,0.1869,0.2032,0.2174,0.3046,0.4195,0.5424,0.6414,0.7431,0.8574,0.8825,0.8924,0.9426,0.948,0.9513,0.9567,0.9441,0.9371,0.9277,0.9149,0.9157,0.925,0.9386,0.9579,0.9754,0.9914,0.9994,0.9994,0.9994,1.0125,1.0424,1.0939,1.1671,1.2577,1.3137,1.3652,1.4166,1.4124,1.4088,1.4088,1.4088,1.4088,1.4088,1.4088,1.4088,1.4088,1.4088,1.4088,1.4088,1.4088,1.4088,1.4088,1.4088,1.4088,1.4015,1.3427,1.3213,1.3126,1.2512,1.2305,1.2305,1.2305,1.2305,1.2305,1.2305,1.2305,1.2305,1.2305,1.2305,1.2305,1.2305,1.2305,1.2305,1.2305,1.2305,1.2305,1.2305,1.2378,1.2526,1.2826,1.3229,1.3492,1.3492,1.3492,1.3492,1.3492,1.3492,1.3492,1.3492,1.3492,1.3528,1.3572,1.3717,1.3754,1.3674,1.3754,1.3754,1.3608,1.3535,1.3492,1.3492,1.3492,1.3492,1.3492,1.3492,1.3492,1.3492,1.3492,1.3492,1.3492,1.3492,1.3492,0.1602,0.1714,0.1774,0.2122,0.2783,0.3778,0.5321,0.626,0.7179,0.8524,0.8825,0.8878,0.9183,0.9232,0.9276,0.9397,0.9408,0.9286,0.8893,0.8995,0.8974,0.8677,0.9138,0.9437,0.9336,0.9742,0.9994,0.9994,0.9994,0.9994,1.0038,1.0641,1.1456,1.2406,1.3052,1.373,1.4398,1.4208,1.4088,1.4088,1.4088,1.4088,1.4088,1.4088,1.4088,1.4088,1.4088,1.4088,1.4088,1.4088,1.4088,1.4088,1.4088,1.4088,1.4015,1.3427,1.3213,1.3126,1.2512,1.2305,1.2305,1.2305,1.2305,1.2305,1.2305,1.2305,1.2305,1.2305,1.2305,1.2305,1.2305,1.2305,1.2305,1.2305,1.2305,1.2305,1.2305,1.2599,1.2863,1.29,1.3229,1.3492,1.3492,1.3492,1.3492,1.3492,1.3492,1.3492,1.3492,1.3492,1.3572,1.3754,1.379,1.3863,1.4057,1.3891,1.3797,1.379,1.3608,1.3492,1.3492,1.3492,1.3492,1.3492,1.3492,1.3492,1.3492,1.3492,1.3492,1.3492,1.3492,1.3492,0.1273,0.1366,0.1455,0.1718,0.2516,0.355,0.4837,0.5854,0.6883,0.8035,0.8283,0.8386,0.8634,0.8985,0.9262,0.9494,0.934,0.9145,0.9015,0.8861,0.8755,0.8624,0.9063,0.9336,0.931,0.9738,0.9994,0.9994,0.9994,0.9994,0.9994,1.0766,1.1542,1.2363,1.3179,1.3857,1.4391,1.4201,1.4088,1.4088,1.4088,1.4088,1.4088,1.4088,1.4088,1.4088,1.4088,1.4088,1.4088,1.4088,1.4088,1.4088,1.4088,1.4088,1.4015,1.3427,1.3213,1.3126,1.2512,1.2305,1.2305,1.2305,1.2305,1.2305,1.2305,1.2305,1.2305,1.2305,1.2305,1.2305,1.2305,1.2305,1.2305,1.2305,1.2415,1.2489,1.2489,1.2709,1.2936,1.3083,1.3309,1.3492,1.3492,1.3492,1.3492,1.3492,1.3492,1.3492,1.3492,1.3608,1.379,1.3956,1.431,1.4489,1.4425,1.4353,1.4217,1.4,1.3674,1.3492,1.3492,1.3492,1.3492,1.3492,1.3492,1.3492,1.3492,1.3492,1.3492,1.3492,1.3492,1.3492,0.1061,0.1201,0.1287,0.1525,0.2307,0.3284,0.4304,0.5333,0.6388,0.7528,0.7789,0.7992,0.8333,0.8684,0.8996,0.9271,0.9104,0.8959,0.8938,0.8759,0.8612,0.8612,0.8999,0.9305,0.9305,0.9738,0.9994,0.9994,0.9994,0.9994,0.9994,1.0809,1.18,1.2924,1.373,1.4321,1.4608,1.437,1.4201,1.4201,1.4124,1.4088,1.4082,1.3981,1.3988,1.4082,1.3981,1.3995,1.4088,1.4088,1.4088,1.4088,1.4088,1.4021,1.3874,1.3387,1.314,1.2986,1.2478,1.2305,1.2305,1.2305,1.2305,1.2305,1.2305,1.2305,1.2305,1.2305,1.2305,1.2305,1.2305,1.2305,1.2305,1.2305,1.2452,1.2636,1.2673,1.2856,1.3046,1.3156,1.3346,1.3492,1.3492,1.3492,1.3492,1.3492,1.3492,1.3528,1.3608,1.3717,1.3964,1.4346,1.4796,1.5081,1.5026,1.4883,1.4641,1.4274,1.3775,1.3492,1.3492,1.3492,1.3492,1.3492,1.3492,1.3492,1.3492,1.3492,1.3492,1.3492,1.3492,1.3492,0.0,0.0,0.0,0.1529,0.2157,0.289,0.377,0.4744,0.5794,0.6953,0.7385,0.7739,0.8283,0.8382,0.8476,0.8675,0.8715,0.8694,0.8633,0.8624,0.8624,0.862,0.9012,0.9319,0.9314,0.9747,1.0004,0.9994,0.9994,0.9994,0.9994,1.0852,1.2186,1.4046,1.4755,1.509,1.509,1.4608,1.4398,1.4398,1.4208,1.4082,1.4062,1.3733,1.376,1.4055,1.3726,1.3766,1.4075,1.4075,1.4075,1.4075,1.4068,1.3881,1.3553,1.3307,1.3006,1.2737,1.2405,1.2305,1.2305,1.2305,1.2305,1.2305,1.2305,1.2305,1.2305,1.2305,1.2305,1.2305,1.2305,1.2305,1.2305,1.2305,1.2452,1.2673,1.2856,1.3046,1.32,1.32,1.3382,1.3492,1.3492,1.3492,1.3492,1.3492,1.3492,1.3572,1.3754,1.3797,1.4109,1.4796,1.5251,1.5578,1.5762,1.5417,1.5026,1.4605,1.3928,1.3492,1.3492,1.3492,1.3492,1.3492,1.3492,1.3492,1.3492,1.3492,1.3492,1.3492,1.3492,1.3492,0.0745,0.0,0.0,0.0,0.0,0.0,0.3212,0.4168,0.525,0.6379,0.6945,0.7419,0.8018,0.8088,0.8174,0.8316,0.8663,0.8922,0.8936,0.895,0.8901,0.8767,0.9137,0.9394,0.9441,0.9741,0.9944,1.0004,0.9994,0.9994,0.9994,1.1488,1.2863,1.4046,1.4755,1.509,1.509,1.4608,1.4398,1.4398,1.4208,1.3975,1.372,1.364,1.3646,1.372,1.364,1.3646,1.3726,1.3726,1.3726,1.37,1.3534,1.34,1.3293,1.3025,1.2857,1.2737,1.2405,1.2305,1.2305,1.2305,1.2305,1.2305,1.2305,1.2305,1.2305,1.2305,1.2305,1.2305,1.2305,1.2305,1.2305,1.2305,1.2562,1.282,1.29,1.3156,1.3419,1.3419,1.3455,1.3492,1.3492,1.3492,1.3492,1.3492,1.3492,1.3528,1.3572,1.3855,1.4173,1.4633,1.5303,1.5692,1.5603,1.5346,1.4991,1.4497,1.3855,1.3492,1.3492,1.3492,1.3492,1.3492,1.3492,1.3492,1.3492,1.3492,1.3492,1.3492,1.3492,1.3492,0.0633,0.0776,0.0917,0.1373,0.0,0.0,0.268,0.3571,0.4626,0.5772,0.6421,0.7071,0.7692,0.7855,0.7876,0.8074,0.8405,0.8699,0.8787,0.8862,0.8884,0.8795,0.9163,0.9393,0.9384,0.9687,0.987,0.9839,0.9951,1.0168,1.0511,1.1779,1.3006,1.4082,1.4712,1.5078,1.5215,1.4739,1.4462,1.4462,1.4049,1.3743,1.3568,1.3367,1.334,1.3413,1.332,1.334,1.3413,1.332,1.3347,1.3407,1.3273,1.3133,1.2993,1.2851,1.2703,1.2569,1.2365,1.2305,1.2305,1.2305,1.2305,1.2305,1.2305,1.2305,1.2305,1.2305,1.2305,1.2305,1.2305,1.2305,1.2335,1.2415,1.2673,1.2936,1.301,1.3273,1.3492,1.3492,1.3492,1.3492,1.3492,1.3492,1.3492,1.3492,1.3492,1.3535,1.3608,1.3819,1.4137,1.4569,1.5169,1.5488,1.539,1.5196,1.4875,1.4382,1.3819,1.3492,1.3492,1.3492,1.3492,1.3492,1.3492,1.3492,1.3492,1.3492,1.3492,1.3492,1.3492,1.3492,0.0664,0.0808,0.0901,0.1345,0.1571,0.0,0.213,0.3,0.4024,0.5089,0.5915,0.6676,0.7453,0.76,0.7691,0.7926,0.8043,0.8226,0.8394,0.8602,0.8796,0.8856,0.9178,0.9355,0.9258,0.9654,0.9804,0.9684,0.9911,1.041,1.1241,1.1859,1.2748,1.4028,1.4604,1.5024,1.5279,1.482,1.4596,1.456,1.3831,1.3482,1.3434,1.2981,1.2938,1.314,1.2904,1.2945,1.314,1.2898,1.2951,1.316,1.3126,1.2939,1.2737,1.2737,1.2563,1.2305,1.2305,1.2305,1.2305,1.2305,1.2305,1.2305,1.2305,1.2305,1.2305,1.2305,1.2305,1.2305,1.2305,1.2335,1.2378,1.2562,1.2783,1.2973,1.3156,1.3346,1.3492,1.3492,1.3492,1.3492,1.3492,1.3492,1.3492,1.3492,1.3492,1.3572,1.3754,1.379,1.4008,1.4497,1.4883,1.5133,1.5098,1.4947,1.4653,1.4274,1.3775,1.3492,1.3492,1.3492,1.3492,1.3492,1.3492,1.3492,1.3492,1.3492,1.3492,1.3492,1.3492,1.3492,0.0687,0.0744,0.0851,0.1093,0.1188,0.0,0.1573,0.2374,0.3398,0.4434,0.5378,0.634,0.7386,0.76,0.76,0.7691,0.7719,0.7947,0.8532,0.8885,0.9166,0.9271,0.9461,0.9595,0.9595,0.9673,0.9831,1.0053,1.0165,1.0573,1.1246,1.1859,1.2661,1.3686,1.449,1.4853,1.4695,1.4645,1.4441,1.4184,1.3727,1.3372,1.3088,1.2887,1.2817,1.2871,1.2811,1.2817,1.2871,1.2811,1.2817,1.2851,1.2572,1.2438,1.2385,1.2385,1.2351,1.2305,1.2305,1.2305,1.2305,1.2305,1.2305,1.2305,1.2305,1.2305,1.2305,1.2305,1.2305,1.2305,1.2305,1.2415,1.2562,1.2599,1.2863,1.3163,1.3193,1.3346,1.3492,1.3492,1.3492,1.3492,1.3492,1.3492,1.3492,1.3492,1.3492,1.3499,1.3564,1.3717,1.3899,1.4173,1.4489,1.4669,1.4569,1.4489,1.4274,1.3935,1.3645,1.3492,1.3492,1.3492,1.3492,1.3492,1.3492,1.3492,1.3492,1.3492,1.3492,1.3492,1.3492,1.3492,0.0722,0.082,0.0967,0.1082,0.1266,0.0,0.0,0.2575,0.355,0.4533,0.5405,0.6286,0.7174,0.737,0.737,0.737,0.7434,0.7695,0.8282,0.8557,0.8829,0.9176,0.9323,0.9457,0.956,0.9636,0.9806,1.0035,1.0062,1.044,1.1251,1.1696,1.2453,1.3559,1.4158,1.4465,1.4511,1.4387,1.4222,1.4024,1.347,1.312,1.2937,1.2675,1.2563,1.2563,1.2563,1.2563,1.2563,1.2563,1.2563,1.2549,1.2365,1.2305,1.2305,1.2305,1.2305,1.2305,1.2305,1.2305,1.2305,1.2305,1.2305,1.2305,1.2305,1.2305,1.2305,1.2305,1.2305,1.2335,1.2415,1.2526,1.2636,1.2863,1.3046,1.3236,1.3346,1.3419,1.3492,1.3492,1.3492,1.3492,1.3492,1.3492,1.3492,1.3492,1.3492,1.3492,1.3492,1.3608,1.3674,1.3775,1.3956,1.4029,1.3964,1.392,1.3811,1.3645,1.3572,1.3492,1.3492,1.3492,1.3492,1.3492,1.3492,1.3492,1.3492,1.3492,1.3492,1.3492,1.3492,1.3492,0.0803,0.0939,0.1119,0.1066,0.1423,0.187,0.0,0.0,0.0,0.4891,0.5661,0.634,0.6929,0.7078,0.7088,0.7058,0.7227,0.7471,0.7855,0.799,0.8284,0.892,0.9127,0.9265,0.9372,0.9592,0.972,0.9759,0.9867,1.0306,1.1208,1.1535,1.2246,1.3473,1.3875,1.4181,1.432,1.4181,1.4011,1.3887,1.3211,1.29,1.29,1.2489,1.2305,1.2305,1.2305,1.2305,1.2305,1.2305,1.2305,1.2305,1.2305,1.2305,1.2305,1.2305,1.2305,1.2305,1.2305,1.2305,1.2305,1.2305,1.2305,1.2305,1.2305,1.2342,1.2378,1.2378,1.2378,1.2452,1.2636,1.2673,1.2783,1.3119,1.3236,1.3309,1.3455,1.3492,1.3492,1.3492,1.3492,1.3492,1.3492,1.3492,1.3499,1.3564,1.3601,1.3637,1.3637,1.3637,1.3601,1.3572,1.3528,1.3492,1.3492,1.3492,1.3492,1.3492,1.3492,1.3492,1.3492,1.3492,1.3492,1.3492,1.3492,1.3492,1.3492,1.3492,1.3492,1.3492,1.3492,1.3492,0.1098,0.1062,0.1067,0.1028,0.1377,0.1865,0.2422,0.0,0.4394,0.5257,0.0,0.6483,0.6847,0.0,0.0,0.693,0.7031,0.7221,0.7419,0.7502,0.7844,0.8889,0.9127,0.9265,0.9372,0.964,0.9626,0.9302,0.9682,1.0222,1.0997,1.1453,1.216,1.3127,1.3974,1.4188,1.3616,1.4181,1.4121,1.355,1.3104,1.29,1.29,1.2489,1.2305,1.2305,1.2305,1.2305,1.2305,1.2305,1.2305,1.2305,1.2305,1.2305,1.2305,1.2305,1.2305,1.2305,1.2305,1.2305,1.2305,1.2305,1.2305,1.2305,1.2305,1.2415,1.2562,1.2562,1.2673,1.2826,1.2856,1.301,1.3119,1.3193,1.3346,1.3455,1.3492,1.3492,1.3492,1.3492,1.3492,1.3492,1.3492,1.3492,1.3572,1.3754,1.3928,1.4021,1.4021,1.4021,1.3956,1.379,1.3608,1.3492,1.3492,1.3492,1.3492,1.3492,1.3492,1.3492,1.3492,1.3492,1.3492,1.3492,1.3492,1.3492,1.3492,1.3492,1.3492,1.3492,1.3492,1.3492,0.152,0.143,0.1381,0.1075,0.154,0.221,0.2862,0.384,0.4851,0.5714,0.0,0.0,0.0,0.0,0.0,0.0,0.7058,0.7149,0.735,0.7415,0.7678,0.8509,0.8648,0.881,0.9214,0.9438,0.9489,0.9207,0.9362,0.9857,1.0733,1.1235,1.1976,1.2883,1.3557,1.377,1.3499,1.377,1.377,1.3492,1.3083,1.29,1.29,1.2599,1.2489,1.2489,1.2489,1.2489,1.2489,1.2489,1.2489,1.2489,1.2489,1.2415,1.2305,1.2305,1.2305,1.2305,1.2305,1.2305,1.2305,1.2305,1.2305,1.2335,1.2452,1.2526,1.2636,1.2746,1.282,1.2936,1.3046,1.3119,1.3236,1.3346,1.3455,1.3492,1.3492,1.3492,1.3535,1.3645,1.3783,1.3884,1.3992,1.3746,1.3601,1.3928,1.4194,1.4402,1.4382,1.4374,1.4266,1.3992,1.3674,1.3492,1.3492,1.3492,1.3492,1.3492,1.3492,1.3492,1.3492,1.3492,1.3492,1.3492,1.3492,1.3492,1.3492,1.3492,1.3492,1.3492,1.3492,1.3492,0.2057,0.1872,0.1686,0.1194,0.173,0.2578,0.326,0.4294,0.5323,0.6181,0.6623,0.0,0.0,0.0,0.7085,0.7045,0.0,0.7136,0.7292,0.7309,0.7545,0.8162,0.8408,0.8652,0.8981,0.9181,0.923,0.9045,0.9106,0.9531,1.0472,1.1167,1.1958,1.2874,1.3554,1.3806,1.3631,1.3718,1.3675,1.3492,1.3083,1.2936,1.2973,1.2709,1.2636,1.2673,1.2636,1.2636,1.2673,1.2636,1.2636,1.2673,1.2636,1.2526,1.2378,1.2335,1.2305,1.2305,1.2305,1.2305,1.2305,1.2305,1.2342,1.2415,1.2562,1.2673,1.279,1.2936,1.301,1.3083,1.3236,1.3273,1.3309,1.3455,1.3492,1.3492,1.3492,1.3492,1.3572,1.3826,1.4057,1.4302,1.4569,1.4173,1.3956,1.4346,1.4689,1.4903,1.4856,1.4804,1.4617,1.4201,1.3783,1.3492,1.3492,1.3492,1.3492,1.3492,1.3492,1.3492,1.3492,1.3492,1.3492,1.3492,1.3492,1.3492,1.3492,1.3492,1.3492,1.3492,1.3492,1.3492,0.2688,0.2269,0.1882,0.1394,0.1955,0.2789,0.3587,0.4672,0.571,0.6501,0.6896,0.7055,0.6916,0.7004,0.7051,0.6916,0.7007,0.0,0.0,0.7102,0.7341,0.8045,0.8667,0.9027,0.8844,0.8999,0.8958,0.8645,0.8792,0.9305,1.025,1.129,1.227,1.3164,1.4251,1.4557,1.3975,1.432,1.4159,1.3492,1.3083,1.301,1.32,1.2783,1.2709,1.2863,1.2673,1.2709,1.2863,1.2673,1.2709,1.2863,1.2673,1.2599,1.2562,1.2378,1.2305,1.2305,1.2305,1.2305,1.2305,1.2305,1.2415,1.2599,1.2599,1.2863,1.32,1.3193,1.3346,1.3499,1.3492,1.3492,1.3492,1.3492,1.3492,1.3492,1.3492,1.3492,1.3637,1.4021,1.4366,1.4716,1.5098,1.4848,1.4713,1.5098,1.5515,1.5692,1.5505,1.5311,1.4991,1.4461,1.3855,1.3492,1.3492,1.3492,1.3492,1.3492,1.3492,1.3492,1.3492,1.3492,1.3492,1.3492,1.3492,1.3492,1.3492,1.3492,1.3492,1.3492,1.3492,1.3492,0.3516,0.3086,0.2654,0.2273,0.265,0.3337,0.4154,0.504,0.5934,0.6662,0.696,0.7082,0.7034,0.7065,0.7082,0.7034,0.7065,0.7095,0.0,0.7234,0.7432,0.7667,0.8314,0.8617,0.8435,0.8717,0.8816,0.8629,0.8652,0.913,1.0038,1.1085,1.2076,1.2972,1.405,1.4421,1.3989,1.4092,1.3931,1.3492,1.3236,1.3119,1.32,1.3046,1.3046,1.3083,1.3046,1.3046,1.3083,1.3046,1.3046,1.3083,1.2863,1.2783,1.2753,1.2415,1.2305,1.2305,1.2305,1.2305,1.2335,1.2452,1.2526,1.2636,1.2936,1.3083,1.3236,1.3346,1.3455,1.3492,1.3492,1.3492,1.3492,1.3492,1.3492,1.3535,1.3681,1.3819,1.4021,1.4517,1.5046,1.5515,1.5877,1.6026,1.6088,1.5965,1.6271,1.642,1.6061,1.5727,1.5259,1.4605,1.392,1.3492,1.3492,1.3492,1.3492,1.3492,1.3492,1.3492,1.3492,1.3492,1.3492,1.3492,1.3492,1.3492,1.3492,1.3492,1.3492,1.3492,1.3492,1.3492,0.4263,0.3857,0.3452,0.3044,0.3347,0.3938,0.4633,0.5399,0.6113,0.6767,0.6997,0.7095,0.7095,0.7095,0.7095,0.7095,0.7095,0.7095,0.0,0.7234,0.737,0.737,0.8046,0.844,0.8216,0.858,0.8796,0.8712,0.8784,0.9262,1.0164,1.1293,1.2296,1.3166,1.4265,1.4596,1.4196,1.4196,1.3931,1.3492,1.3309,1.3236,1.3309,1.3236,1.3236,1.3309,1.3236,1.3236,1.3309,1.3236,1.3236,1.3273,1.301,1.29,1.2863,1.2452,1.2305,1.2305,1.2305,1.2342,1.2415,1.2562,1.2709,1.2856,1.3119,1.3236,1.3346,1.3455,1.3492,1.3492,1.3492,1.3492,1.3492,1.3492,1.3492,1.3564,1.3855,1.4093,1.4474,1.5117,1.5754,1.6324,1.6656,1.7047,1.7141,1.6698,1.6915,1.6959,1.6551,1.614,1.5648,1.4883,1.4137,1.3674,1.3492,1.3492,1.3492,1.3492,1.3492,1.3492,1.3492,1.3492,1.3492,1.3492,1.3492,1.3492,1.3492,1.3492,1.3492,1.3492,1.3492,1.3492]}]]